[[{"header":{"parameterUnit":"m.s-1","parameterCategory":1,"la1":31.0,"la2":29.5877,"lo1":-88.7671,"lo2":-86.6584,"dx":0.0162,"dy":0.0185,"nx":115,"ny":88,"refTime":"2023-01-20T06:00:00:Z","depth":0,"parameterNumber":2,"parameterNumberName":"U-component_of_WINDS"},"data":[0.0,0.0,0.0,0.0,0.0,0.0,0.0,0.0,0.0,0.0,0.0,0.0,0.0,0.0,0.0,0.0,0.0,0.0,0.0,0.0,0.0,0.0,0.0,0.0,0.0,0.0,0.0,0.0,0.0,0.0,0.0,0.0,0.0,0.0,0.0,0.0,0.0,0.0,0.0,0.0,0.0,0.0,0.0,0.0,0.0,0.0,0.0,0.0,0.0,0.0,0.0,0.0,0.0,0.0,0.0,0.0,0.0,0.0,0.0,0.0,0.0,0.0,0.0,0.0,0.0,0.0,0.0,0.0,0.0,0.0,0.0,0.0,0.0,0.0,0.0,0.0,0.0,0.0,0.0,0.0,0.0,0.0,0.0,0.0,0.0,0.0,0.0,0.0,0.0,0.0,0.0,0.0,0.0,0.0,0.0,0.0,0.0,0.0,0.0,0.0,0.0,0.0,0.0,0.0,0.0,0.0,0.0,0.0,0.0,0.0,0.0,0.0,0.0,0.0,0.0,0.0,0.0,0.0,0.0,0.0,0.0,0.0,0.0,0.0,0.0,0.0,0.0,0.0,0.0,0.0,0.0,0.0,0.0,0.0,0.0,0.0,0.0,0.0,0.0,0.0,0.0,0.0,0.0,0.0,0.0,0.0,0.0,0.0,0.0,0.0,0.0,0.0,0.0,0.0,0.0,0.0,0.0,0.0,0.0,0.0,0.0,0.0,0.0,0.0,0.0,0.0,0.0,0.0,0.0,0.0,0.0,0.0,0.0,0.0,0.0,0.0,0.0,0.0,0.0,0.0,0.0,0.0,0.0,0.0,0.0,0.0,0.0,0.0,0.0,0.0,0.0,0.0,0.0,0.0,0.0,0.0,0.0,0.0,0.0,0.0,0.0,0.0,0.0,0.0,0.0,0.0,0.0,0.0,0.0,0.0,0.0,0.0,0.0,0.0,0.0,0.0,0.0,0.0,0.0,0.0,0.0,0.0,0.0,0.0,0.0,0.0,0.0,0.0,0.0,0.0,0.0,0.0,0.0,0.0,0.0,0.0,0.0,0.0,0.0,0.0,0.0,0.0,0.0,0.0,0.0,0.0,0.0,0.0,0.0,0.0,0.0,0.0,0.0,0.0,0.0,0.0,0.0,0.0,0.0,0.0,0.0,0.0,0.0,0.0,0.0,0.0,0.0,0.0,0.0,0.0,0.0,0.0,0.0,0.0,0.0,0.0,0.0,0.0,0.0,0.0,0.0,0.0,0.0,0.0,0.0,0.0,0.0,0.0,0.0,0.0,0.0,0.0,0.0,0.0,0.0,0.0,0.0,0.0,0.0,0.0,0.0,0.0,0.0,0.0,0.0,0.0,0.0,0.0,0.0,0.0,0.0,0.0,0.0,0.0,0.0,0.0,0.0,0.0,0.0,0.0,0.0,0.0,0.0,0.0,0.0,0.0,0.0,0.0,0.0,0.0,0.0,0.0,0.0,0.0,0.0,0.0,0.0,0.0,0.0,0.0,0.0,0.0,0.0,0.0,0.0,0.0,0.0,0.0,0.0,0.0,0.0,0.0,0.0,0.0,0.0,0.0,0.0,0.0,0.0,0.0,0.0,0.0,0.0,0.0,0.0,0.0,0.0,0.0,0.0,0.0,0.0,0.0,0.0,0.0,0.0,0.0,0.0,0.0,0.0,0.0,0.0,0.0,0.0,0.0,0.0,0.0,0.0,0.0,0.0,0.0,0.0,0.0,0.0,0.0,0.0,0.0,0.0,0.0,0.0,0.0,0.0,0.0,0.0,0.0,0.0,0.0,0.0,0.0,0.0,0.0,0.0,0.0,0.0,0.0,0.0,0.0,0.0,0.0,0.0,0.0,0.0,0.0,0.0,0.0,0.0,0.0,0.0,0.0,0.0,0.0,0.0,0.0,0.0,0.0,0.0,0.0,0.0,0.0,0.0,0.0,0.0,0.0,0.0,0.0,0.0,0.0,0.0,0.0,0.0,0.0,0.0,0.0,0.0,0.0,0.0,0.0,0.0,0.0,0.0,0.0,0.0,0.0,0.0,0.0,0.0,0.0,0.0,0.0,0.0,0.0,0.0,0.0,0.0,0.0,0.0,0.0,0.0,0.0,0.0,0.0,0.0,0.0,0.0,0.0,0.0,0.0,0.0,0.0,0.0,0.0,0.0,0.0,0.0,0.0,0.0,0.0,0.0,0.0,0.0,0.0,0.0,0.0,0.0,0.0,0.0,0.0,0.0,0.0,0.0,0.0,0.0,0.0,0.0,0.0,0.0,0.0,0.0,0.0,0.0,0.0,0.0,0.0,0.0,0.0,0.0,0.0,0.0,0.0,0.0,0.0,0.0,0.0,0.0,0.0,0.0,0.0,0.0,0.0,0.0,0.0,0.0,0.0,0.0,0.0,0.0,0.0,0.0,0.0,0.0,0.0,0.0,0.0,0.0,0.0,0.0,0.0,0.0,0.0,0.0,0.0,0.0,0.0,0.0,0.0,0.0,0.0,0.0,0.0,0.0,0.0,0.0,0.0,0.0,0.0,0.0,0.0,0.0,0.0,0.0,0.0,0.0,0.0,0.0,0.0,0.0,0.0,0.0,0.0,0.0,0.0,0.0,0.0,0.0,0.0,0.0,0.0,0.0,0.0,0.0,0.0,0.0,0.0,0.0,0.0,0.0,0.0,0.0,0.0,0.0,0.0,0.0,0.0,0.0,0.0,0.0,0.0,0.0,0.0,0.0,0.0,0.0,0.0,0.0,0.0,0.0,0.0,0.0,0.0,0.0,0.0,0.0,0.0,0.0,0.0,0.0,0.0,0.0,0.0,0.0,0.0,0.0,0.0,0.0,0.0,0.0,0.0,0.0,0.0,0.0,0.0,0.0,0.0,0.0,0.0,0.0,0.0,0.0,0.0,0.0,0.0,0.0,0.0,0.0,0.0,0.0,0.0,0.0,0.0,0.0,0.0,0.0,0.0,0.0,0.0,0.0,0.0,0.0,0.0,0.0,0.0,0.0,0.0,0.0,0.0,0.0,0.0,0.0,0.0,0.0,0.0,0.0,0.0,0.0,0.0,0.0,0.0,0.0,0.0,0.0,0.0,0.0,0.0,0.0,0.0,0.0,0.0,0.0,0.0,0.0,0.0,0.0,0.0,0.0,0.0,0.0,0.0,0.0,0.0,0.0,0.0,0.0,0.0,0.0,0.0,0.0,0.0,0.0,0.0,0.0,0.0,0.0,0.0,0.0,0.0,0.0,0.0,0.0,0.0,0.0,0.0,0.0,0.0,0.0,0.0,0.0,0.0,0.0,0.0,0.0,0.0,0.0,0.0,0.0,0.0,0.0,0.0,0.0,0.0,0.0,0.0,0.0,0.0,0.0,0.0,0.0,0.0,0.0,0.0,0.0,0.0,0.0,0.0,0.0,0.0,0.0,0.0,0.0,0.0,0.0,0.0,0.0,0.0,0.0,0.0,0.0,0.0,0.0,0.0,0.0,0.0,0.0,0.0,0.0,0.0,0.0,0.0,0.0,0.0,0.0,0.0,0.0,0.0,0.0,0.0,0.0,0.0,0.0,0.0,0.0,0.0,0.0,0.0,0.0,0.0,0.0,0.0,0.0,0.0,0.0,0.0,0.0,0.0,0.0,0.0,0.0,0.0,0.0,0.0,0.0,0.0,0.0,0.0,0.0,0.0,0.0,0.0,0.0,0.0,0.0,0.0,0.0,0.0,0.0,0.0,0.0,0.0,0.0,0.0,0.0,0.0,0.0,0.0,0.0,0.0,0.0,0.0,0.0,0.0,0.0,0.0,0.0,0.0,0.0,0.0,0.0,0.0,0.0,0.0,0.0,0.0,0.0,0.0,0.0,0.0,0.0,0.0,0.0,0.0,0.0,0.0,0.0,0.0,0.0,0.0,0.0,0.0,0.0,0.0,0.0,0.0,0.0,0.0,0.0,0.0,0.0,0.0,0.0,0.0,0.0,0.0,0.0,0.0,0.0,0.0,0.0,0.0,0.0,0.0,0.0,0.0,0.0,0.0,0.0,0.0,0.0,0.0,0.0,0.0,0.0,0.0,0.0,0.0,0.0,0.0,0.0,0.0,0.0,0.0,0.0,0.0,0.0,0.0,0.0,0.0,0.0,0.0,0.0,0.0,0.0,0.0,0.0,0.0,0.0,0.0,0.0,0.0,0.0,0.0,0.0,0.0,0.0,0.0,0.0,0.0,0.0,0.0,0.0,0.0,0.0,0.0,0.0,0.0,-1.943,0.0,0.0,0.0,-1.943,0.0,0.0,0.0,0.0,0.0,0.0,0.0,0.0,0.0,0.0,0.0,0.0,0.0,0.0,0.0,0.0,0.0,0.0,0.0,0.0,0.0,0.0,0.0,0.0,0.0,0.0,0.0,0.0,0.0,0.0,0.0,0.0,0.0,0.0,0.0,0.0,0.0,0.0,0.0,0.0,0.0,0.0,0.0,0.0,0.0,0.0,0.0,0.0,0.0,0.0,0.0,0.0,0.0,0.0,0.0,0.0,0.0,0.0,0.0,0.0,0.0,0.0,0.0,0.0,0.0,0.0,0.0,0.0,0.0,0.0,0.0,0.0,0.0,0.0,0.0,0.0,0.0,0.0,0.0,0.0,0.0,0.0,0.0,0.0,0.0,0.0,0.0,0.0,0.0,0.0,0.0,0.0,0.0,0.0,0.0,0.0,0.0,0.0,0.0,0.0,0.0,0.0,0.0,0.0,0.0,0.0,0.0,0.0,0.0,0.0,-1.943,-1.943,-1.943,-1.943,-1.943,0.0,0.0,0.0,0.0,0.0,0.0,0.0,0.0,0.0,0.0,0.0,0.0,0.0,0.0,0.0,0.0,0.0,0.0,0.0,0.0,0.0,0.0,0.0,0.0,0.0,0.0,0.0,0.0,0.0,0.0,0.0,0.0,0.0,0.0,0.0,0.0,0.0,0.0,0.0,0.0,0.0,0.0,0.0,0.0,0.0,0.0,0.0,0.0,0.0,0.0,0.0,0.0,0.0,0.0,0.0,0.0,0.0,0.0,0.0,0.0,0.0,0.0,0.0,0.0,0.0,0.0,0.0,0.0,0.0,0.0,0.0,0.0,0.0,0.0,0.0,0.0,0.0,0.0,0.0,0.0,0.0,0.0,0.0,0.0,0.0,0.0,0.0,0.0,0.0,0.0,0.0,0.0,0.0,0.0,0.0,0.0,0.0,0.0,0.0,0.0,0.0,0.0,0.0,0.0,0.0,0.0,0.0,0.0,0.0,0.0,0.0,0.0,-1.943,-1.943,-1.943,0.0,0.0,0.0,0.0,0.0,0.0,0.0,0.0,0.0,0.0,0.0,0.0,0.0,0.0,0.0,0.0,0.0,0.0,0.0,0.0,0.0,0.0,0.0,0.0,0.0,0.0,0.0,0.0,0.0,0.0,0.0,0.0,0.0,0.0,0.0,0.0,0.0,0.0,0.0,0.0,0.0,0.0,0.0,0.0,0.0,0.0,0.0,0.0,0.0,0.0,0.0,0.0,0.0,0.0,0.0,0.0,0.0,0.0,0.0,0.0,0.0,0.0,0.0,0.0,0.0,0.0,0.0,0.0,0.0,0.0,0.0,0.0,0.0,0.0,0.0,0.0,0.0,0.0,0.0,0.0,0.0,0.0,0.0,0.0,0.0,0.0,0.0,0.0,0.0,0.0,0.0,0.0,0.0,0.0,0.0,0.0,0.0,0.0,0.0,0.0,0.0,0.0,0.0,0.0,0.0,0.0,0.0,0.0,0.0,0.0,-1.943,-1.943,-1.943,0.0,-1.943,0.0,0.0,0.0,0.0,0.0,0.0,0.0,0.0,0.0,0.0,0.0,0.0,0.0,0.0,0.0,0.0,0.0,0.0,0.0,0.0,0.0,0.0,0.0,0.0,0.0,0.0,0.0,0.0,0.0,0.0,0.0,0.0,0.0,0.0,0.0,0.0,0.0,0.0,0.0,0.0,0.0,0.0,0.0,0.0,0.0,0.0,0.0,0.0,0.0,0.0,0.0,0.0,0.0,0.0,0.0,0.0,0.0,0.0,0.0,0.0,0.0,0.0,0.0,0.0,0.0,0.0,0.0,0.0,0.0,0.0,0.0,0.0,0.0,0.0,0.0,0.0,0.0,0.0,0.0,0.0,0.0,0.0,0.0,0.0,0.0,0.0,0.0,0.0,0.0,0.0,0.0,0.0,0.0,0.0,0.0,0.0,0.0,0.0,0.0,0.0,0.0,0.0,0.0,0.0,0.0,0.0,0.0,0.0,0.0,0.0,-1.943,-1.943,-1.943,-1.9475,0.0,0.0,0.0,0.0,0.0,0.0,0.0,0.0,0.0,0.0,0.0,0.0,0.0,0.0,0.0,0.0,0.0,0.0,0.0,0.0,0.0,0.0,0.0,0.0,0.0,0.0,0.0,0.0,0.0,0.0,0.0,0.0,0.0,0.0,0.0,0.0,0.0,0.0,0.0,0.0,0.0,0.0,0.0,0.0,0.0,0.0,0.0,0.0,0.0,0.0,0.0,0.0,0.0,0.0,0.0,0.0,0.0,0.0,0.0,0.0,0.0,0.0,0.0,0.0,0.0,0.0,0.0,0.0,0.0,0.0,0.0,0.0,0.0,0.0,0.0,0.0,0.0,0.0,0.0,0.0,0.0,0.0,0.0,0.0,0.0,0.0,0.0,0.0,0.0,0.0,0.0,0.0,0.0,0.0,0.0,0.0,0.0,0.0,0.0,0.0,0.0,0.0,0.0,0.0,0.0,0.0,0.0,0.0,0.0,0.0,-1.9292,-1.9256,-1.9246,-1.9371,-1.9527,-1.98,0.0,0.0,0.0,0.0,0.0,0.0,0.0,0.0,0.0,0.0,0.0,0.0,0.0,0.0,0.0,0.0,0.0,0.0,0.0,0.0,0.0,0.0,0.0,0.0,0.0,0.0,0.0,0.0,0.0,0.0,0.0,0.0,0.0,0.0,0.0,0.0,0.0,0.0,0.0,0.0,0.0,0.0,0.0,0.0,0.0,0.0,0.0,0.0,0.0,0.0,0.0,0.0,0.0,0.0,0.0,0.0,0.0,0.0,0.0,0.0,0.0,0.0,0.0,0.0,0.0,0.0,0.0,0.0,0.0,0.0,0.0,0.0,0.0,0.0,0.0,0.0,0.0,0.0,0.0,0.0,0.0,0.0,0.0,0.0,0.0,0.0,0.0,0.0,0.0,0.0,0.0,0.0,0.0,0.0,0.0,0.0,0.0,0.0,0.0,0.0,0.0,0.0,0.0,0.0,0.0,0.0,0.0,0.0,-1.9417,-1.9078,-1.891,-1.8932,-1.9234,-1.9498,0.0,0.0,0.0,0.0,0.0,0.0,0.0,0.0,0.0,0.0,0.0,0.0,0.0,0.0,0.0,0.0,0.0,0.0,0.0,0.0,0.0,0.0,0.0,0.0,0.0,0.0,0.0,0.0,0.0,0.0,0.0,0.0,0.0,0.0,0.0,0.0,0.0,0.0,0.0,0.0,0.0,0.0,0.0,0.0,0.0,0.0,0.0,0.0,0.0,0.0,0.0,0.0,0.0,0.0,0.0,0.0,0.0,0.0,0.0,0.0,0.0,0.0,0.0,0.0,0.0,0.0,0.0,0.0,0.0,0.0,0.0,0.0,0.0,0.0,0.0,0.0,0.0,0.0,0.0,0.0,0.0,0.0,0.0,0.0,0.0,0.0,0.0,0.0,0.0,0.0,0.0,0.0,0.0,0.0,0.0,0.0,0.0,0.0,0.0,0.0,0.0,0.0,0.0,0.0,0.0,0.0,0.0,0.0,0.0,-1.9635,-1.9346,-1.914,-1.9195,-1.964,-2.0089,0.0,0.0,0.0,0.0,0.0,0.0,0.0,0.0,0.0,0.0,0.0,0.0,0.0,0.0,0.0,0.0,0.0,0.0,0.0,0.0,0.0,0.0,0.0,0.0,0.0,0.0,0.0,0.0,0.0,0.0,0.0,0.0,0.0,0.0,0.0,0.0,0.0,0.0,0.0,0.0,0.0,0.0,0.0,0.0,0.0,0.0,0.0,0.0,0.0,0.0,0.0,0.0,0.0,0.0,0.0,0.0,0.0,0.0,0.0,0.0,0.0,0.0,0.0,0.0,0.0,0.0,0.0,0.0,0.0,0.0,0.0,0.0,0.0,0.0,0.0,0.0,0.0,0.0,0.0,0.0,0.0,0.0,0.0,0.0,0.0,0.0,0.0,0.0,0.0,0.0,0.0,0.0,0.0,0.0,0.0,0.0,0.0,0.0,0.0,0.0,0.0,0.0,0.0,0.0,0.0,0.0,0.0,0.0,0.0,-1.9805,0.0,-1.9422,-1.9445,-2.0091,-2.0656,0.0,0.0,0.0,0.0,0.0,0.0,0.0,0.0,0.0,0.0,0.0,0.0,0.0,0.0,0.0,0.0,0.0,0.0,0.0,0.0,0.0,0.0,0.0,0.0,0.0,0.0,0.0,0.0,0.0,0.0,0.0,0.0,0.0,0.0,0.0,0.0,0.0,0.0,0.0,0.0,0.0,0.0,0.0,0.0,0.0,0.0,0.0,0.0,0.0,0.0,0.0,0.0,0.0,0.0,0.0,0.0,0.0,0.0,0.0,0.0,0.0,0.0,0.0,0.0,0.0,0.0,0.0,0.0,0.0,0.0,0.0,0.0,0.0,0.0,0.0,0.0,0.0,0.0,0.0,0.0,0.0,0.0,0.0,0.0,0.0,0.0,0.0,0.0,0.0,0.0,0.0,0.0,0.0,0.0,0.0,0.0,0.0,0.0,0.0,0.0,0.0,0.0,0.0,0.0,0.0,0.0,0.0,0.0,-2.0468,-1.9745,-1.9769,-1.9796,-1.9732,-2.0681,-2.1287,0.0,0.0,0.0,0.0,0.0,0.0,0.0,0.0,0.0,0.0,0.0,0.0,0.0,0.0,0.0,0.0,0.0,0.0,0.0,0.0,0.0,0.0,0.0,0.0,0.0,0.0,0.0,0.0,0.0,0.0,0.0,0.0,0.0,0.0,0.0,0.0,0.0,0.0,0.0,0.0,0.0,0.0,0.0,0.0,0.0,0.0,0.0,0.0,0.0,0.0,0.0,0.0,0.0,0.0,0.0,0.0,0.0,0.0,0.0,0.0,0.0,0.0,0.0,0.0,0.0,0.0,0.0,0.0,0.0,0.0,0.0,0.0,0.0,0.0,0.0,0.0,0.0,0.0,0.0,0.0,0.0,0.0,0.0,0.0,0.0,0.0,0.0,0.0,0.0,0.0,0.0,0.0,0.0,0.0,0.0,0.0,0.0,0.0,0.0,0.0,0.0,0.0,0.0,0.0,0.0,0.0,0.0,0.0,0.0,-2.1332,-2.1084,-2.1074,-2.1321,-2.2193,-2.2705,0.0,0.0,0.0,0.0,0.0,0.0,0.0,0.0,0.0,0.0,0.0,0.0,0.0,0.0,0.0,0.0,0.0,0.0,0.0,0.0,0.0,0.0,0.0,0.0,0.0,0.0,0.0,0.0,0.0,0.0,0.0,0.0,0.0,0.0,0.0,0.0,0.0,0.0,0.0,0.0,0.0,0.0,0.0,0.0,0.0,0.0,0.0,0.0,0.0,0.0,0.0,0.0,0.0,0.0,0.0,0.0,0.0,0.0,0.0,0.0,0.0,0.0,0.0,0.0,0.0,0.0,0.0,0.0,0.0,0.0,0.0,0.0,0.0,0.0,0.0,0.0,0.0,0.0,0.0,0.0,0.0,0.0,0.0,0.0,0.0,0.0,0.0,0.0,0.0,0.0,0.0,0.0,0.0,0.0,0.0,0.0,0.0,0.0,0.0,0.0,0.0,0.0,0.0,0.0,0.0,0.0,0.0,0.0,0.0,-2.3174,-2.2597,-2.2425,-2.2654,-2.3432,-2.3905,-2.3905,0.0,0.0,0.0,0.0,0.0,0.0,0.0,0.0,0.0,0.0,0.0,0.0,0.0,0.0,0.0,0.0,0.0,0.0,0.0,0.0,0.0,0.0,0.0,0.0,0.0,0.0,0.0,0.0,0.0,0.0,0.0,0.0,0.0,0.0,0.0,0.0,0.0,0.0,0.0,0.0,0.0,0.0,0.0,0.0,0.0,0.0,0.0,0.0,0.0,0.0,0.0,0.0,0.0,0.0,0.0,0.0,0.0,0.0,0.0,0.0,0.0,0.0,0.0,0.0,0.0,0.0,0.0,0.0,0.0,0.0,0.0,0.0,0.0,0.0,0.0,0.0,0.0,0.0,0.0,0.0,0.0,0.0,0.0,0.0,0.0,0.0,0.0,0.0,0.0,0.0,0.0,0.0,0.0,0.0,0.0,0.0,0.0,0.0,0.0,0.0,0.0,0.0,0.0,0.0,0.0,0.0,0.0,0.0,-2.5201,-2.4349,-2.3893,-2.384,-2.4506,-2.4788,0.0,0.0,0.0,0.0,0.0,0.0,0.0,0.0,0.0,0.0,0.0,0.0,0.0,0.0,0.0,0.0,0.0,0.0,0.0,0.0,0.0,0.0,0.0,0.0,0.0,0.0,0.0,0.0,0.0,0.0,0.0,0.0,0.0,0.0,0.0,0.0,0.0,0.0,0.0,0.0,0.0,0.0,0.0,0.0,0.0,0.0,0.0,0.0,0.0,0.0,0.0,0.0,0.0,0.0,0.0,0.0,0.0,0.0,0.0,0.0,0.0,0.0,0.0,0.0,0.0,0.0,0.0,0.0,0.0,0.0,0.0,0.0,0.0,0.0,0.0,0.0,0.0,0.0,0.0,0.0,0.0,0.0,0.0,0.0,0.0,0.0,0.0,0.0,0.0,0.0,0.0,0.0,0.0,0.0,0.0,0.0,0.0,0.0,0.0,0.0,0.0,0.0,0.0,0.0,0.0,0.0,0.0,0.0,0.0,-2.6786,-2.6567,-2.6135,-2.554,-2.5901,-2.6227,0.0,0.0,0.0,0.0,0.0,0.0,0.0,0.0,0.0,0.0,0.0,0.0,0.0,0.0,0.0,0.0,0.0,0.0,0.0,0.0,0.0,0.0,0.0,0.0,0.0,0.0,0.0,0.0,0.0,0.0,0.0,0.0,0.0,0.0,0.0,0.0,0.0,0.0,0.0,0.0,0.0,0.0,0.0,0.0,0.0,0.0,0.0,0.0,0.0,0.0,0.0,0.0,0.0,0.0,0.0,0.0,0.0,0.0,0.0,0.0,0.0,0.0,0.0,0.0,0.0,0.0,0.0,0.0,0.0,0.0,0.0,0.0,0.0,0.0,0.0,0.0,0.0,0.0,0.0,0.0,0.0,0.0,0.0,0.0,0.0,0.0,0.0,0.0,0.0,0.0,0.0,0.0,0.0,0.0,0.0,0.0,0.0,0.0,0.0,0.0,0.0,0.0,0.0,0.0,0.0,0.0,0.0,0.0,-2.7422,-2.7441,-2.7611,-2.7524,-2.7104,-2.6974,-2.6989,0.0,0.0,0.0,0.0,0.0,0.0,0.0,0.0,0.0,0.0,0.0,0.0,0.0,0.0,0.0,0.0,0.0,0.0,0.0,0.0,0.0,0.0,0.0,0.0,0.0,0.0,0.0,0.0,0.0,0.0,0.0,0.0,0.0,0.0,0.0,0.0,0.0,0.0,0.0,0.0,0.0,0.0,0.0,0.0,0.0,0.0,0.0,0.0,0.0,0.0,0.0,0.0,0.0,0.0,0.0,0.0,0.0,0.0,0.0,0.0,0.0,0.0,0.0,0.0,0.0,0.0,0.0,0.0,0.0,0.0,0.0,0.0,0.0,0.0,0.0,0.0,0.0,0.0,0.0,0.0,0.0,0.0,0.0,0.0,0.0,0.0,0.0,0.0,0.0,0.0,0.0,0.0,0.0,0.0,0.0,0.0,0.0,0.0,0.0,0.0,0.0,0.0,0.0,0.0,0.0,0.0,0.0,0.0,-2.7495,-2.7552,-2.7967,-2.8306,-2.8564,-2.7889,-2.7552,0.0,0.0,0.0,0.0,0.0,0.0,0.0,0.0,0.0,0.0,0.0,0.0,0.0,0.0,0.0,0.0,0.0,0.0,0.0,0.0,0.0,0.0,0.0,0.0,0.0,0.0,0.0,0.0,0.0,0.0,0.0,0.0,0.0,0.0,0.0,0.0,0.0,0.0,0.0,0.0,0.0,0.0,0.0,0.0,0.0,0.0,0.0,0.0,0.0,0.0,0.0,0.0,0.0,0.0,0.0,0.0,0.0,0.0,0.0,0.0,0.0,0.0,0.0,0.0,0.0,0.0,0.0,0.0,0.0,0.0,0.0,0.0,0.0,0.0,0.0,0.0,0.0,0.0,0.0,0.0,0.0,0.0,0.0,0.0,0.0,0.0,0.0,0.0,0.0,0.0,0.0,0.0,0.0,0.0,0.0,0.0,0.0,0.0,0.0,0.0,0.0,0.0,0.0,0.0,0.0,0.0,0.0,0.0,-2.8242,-2.8552,-2.8649,-2.8936,-2.9378,-2.8639,-2.8372,0.0,0.0,0.0,0.0,0.0,0.0,0.0,0.0,0.0,0.0,0.0,0.0,0.0,0.0,0.0,0.0,0.0,0.0,0.0,0.0,0.0,0.0,0.0,0.0,0.0,0.0,0.0,0.0,0.0,0.0,0.0,0.0,0.0,0.0,0.0,0.0,0.0,0.0,0.0,0.0,0.0,0.0,0.0,0.0,0.0,0.0,0.0,0.0,-2.7043,0.0,0.0,0.0,0.0,0.0,0.0,0.0,0.0,0.0,0.0,0.0,0.0,0.0,0.0,0.0,0.0,0.0,0.0,0.0,0.0,0.0,0.0,0.0,0.0,0.0,0.0,0.0,0.0,0.0,0.0,0.0,0.0,0.0,0.0,0.0,0.0,0.0,0.0,0.0,0.0,0.0,0.0,0.0,0.0,0.0,0.0,0.0,0.0,0.0,0.0,0.0,0.0,0.0,0.0,0.0,0.0,0.0,0.0,0.0,-2.8496,-2.8906,-2.9121,-2.9434,-2.9844,-2.948,-2.9169,0.0,0.0,0.0,0.0,0.0,0.0,0.0,0.0,0.0,0.0,0.0,0.0,0.0,0.0,0.0,0.0,0.0,0.0,0.0,0.0,0.0,0.0,0.0,0.0,0.0,0.0,0.0,0.0,0.0,0.0,0.0,0.0,0.0,0.0,0.0,0.0,0.0,0.0,0.0,0.0,0.0,0.0,0.0,0.0,0.0,0.0,0.0,0.0,0.0,0.0,0.0,0.0,0.0,0.0,0.0,0.0,0.0,0.0,0.0,0.0,0.0,0.0,0.0,0.0,0.0,0.0,0.0,0.0,0.0,0.0,0.0,0.0,0.0,0.0,0.0,0.0,0.0,0.0,0.0,0.0,0.0,0.0,0.0,0.0,0.0,0.0,0.0,0.0,0.0,0.0,0.0,0.0,0.0,0.0,0.0,0.0,0.0,0.0,0.0,0.0,0.0,0.0,0.0,0.0,0.0,0.0,0.0,-2.8413,-2.8702,-2.9113,-2.96,-3.0032,-3.0464,-3.0464,-3.0035,-2.927,0.0,0.0,0.0,0.0,0.0,0.0,0.0,0.0,0.0,0.0,0.0,0.0,0.0,0.0,0.0,0.0,0.0,0.0,0.0,0.0,0.0,0.0,0.0,0.0,0.0,0.0,0.0,0.0,0.0,0.0,0.0,0.0,0.0,0.0,0.0,0.0,0.0,0.0,-2.9668,-2.9726,0.0,0.0,0.0,0.0,0.0,0.0,0.0,0.0,-2.7991,0.0,0.0,0.0,0.0,0.0,0.0,0.0,0.0,0.0,0.0,0.0,0.0,0.0,0.0,0.0,0.0,0.0,0.0,0.0,0.0,0.0,0.0,0.0,0.0,0.0,0.0,0.0,0.0,0.0,0.0,0.0,0.0,0.0,0.0,0.0,0.0,0.0,0.0,0.0,0.0,0.0,0.0,0.0,0.0,0.0,0.0,0.0,0.0,0.0,0.0,0.0,0.0,0.0,0.0,0.0,0.0,-2.8621,-2.903,-2.9515,-3.0249,-3.067,-3.1054,-3.1532,-3.1552,-3.1254,-3.0754,0.0,0.0,0.0,0.0,0.0,0.0,0.0,0.0,0.0,0.0,0.0,0.0,0.0,0.0,0.0,0.0,0.0,0.0,0.0,0.0,0.0,0.0,0.0,0.0,0.0,0.0,0.0,0.0,0.0,0.0,0.0,0.0,0.0,0.0,0.0,0.0,0.0,0.0,0.0,-3.043,-3.0527,0.0,0.0,0.0,0.0,0.0,0.0,0.0,0.0,-2.93,0.0,0.0,0.0,0.0,0.0,0.0,0.0,0.0,0.0,0.0,0.0,0.0,0.0,0.0,0.0,0.0,0.0,0.0,0.0,0.0,0.0,0.0,0.0,0.0,0.0,0.0,0.0,0.0,0.0,0.0,0.0,0.0,0.0,0.0,0.0,0.0,0.0,0.0,0.0,0.0,0.0,0.0,0.0,0.0,0.0,0.0,0.0,0.0,0.0,0.0,0.0,0.0,0.0,0.0,0.0,-2.9279,-2.9695,-3.0227,-3.106,-3.1416,-3.1835,-3.2207,-3.2285,-3.2068,0.0,0.0,0.0,0.0,0.0,0.0,0.0,0.0,0.0,0.0,0.0,0.0,0.0,0.0,0.0,0.0,0.0,0.0,0.0,0.0,0.0,0.0,0.0,0.0,0.0,0.0,0.0,0.0,0.0,0.0,0.0,0.0,0.0,0.0,0.0,0.0,0.0,0.0,0.0,0.0,-3.0742,-3.0801,-3.0586,0.0,0.0,0.0,0.0,0.0,0.0,-2.957,-2.957,0.0,0.0,0.0,0.0,0.0,0.0,0.0,0.0,0.0,0.0,0.0,0.0,0.0,0.0,0.0,0.0,0.0,0.0,0.0,0.0,0.0,0.0,0.0,0.0,0.0,0.0,0.0,0.0,0.0,0.0,0.0,0.0,0.0,0.0,0.0,0.0,0.0,0.0,0.0,0.0,0.0,0.0,0.0,0.0,0.0,0.0,0.0,0.0,0.0,0.0,0.0,0.0,0.0,0.0,0.0,-3.0045,-3.0437,-3.1031,-3.1926,-3.235,-3.2671,-3.3063,-3.3084,-3.2913,0.0,0.0,0.0,0.0,0.0,0.0,0.0,0.0,0.0,0.0,0.0,0.0,0.0,0.0,0.0,0.0,0.0,0.0,0.0,0.0,0.0,0.0,0.0,0.0,0.0,0.0,0.0,0.0,0.0,0.0,0.0,0.0,0.0,0.0,0.0,0.0,0.0,0.0,0.0,0.0,0.0,-3.1055,-3.1133,-3.1152,0.0,0.0,0.0,0.0,-3.0194,-3.0154,0.0,0.0,0.0,0.0,0.0,0.0,0.0,0.0,0.0,0.0,0.0,0.0,0.0,0.0,0.0,0.0,0.0,0.0,0.0,0.0,0.0,0.0,0.0,0.0,0.0,0.0,0.0,0.0,0.0,0.0,0.0,0.0,0.0,0.0,0.0,0.0,0.0,0.0,0.0,0.0,0.0,0.0,0.0,0.0,0.0,0.0,0.0,0.0,0.0,0.0,0.0,0.0,0.0,0.0,0.0,0.0,-3.0924,-3.1395,-3.2129,-3.3133,-3.3617,-3.4022,-3.4302,-3.4302,-3.4155,0.0,0.0,0.0,0.0,0.0,0.0,0.0,0.0,0.0,0.0,0.0,0.0,0.0,0.0,0.0,0.0,0.0,0.0,0.0,0.0,0.0,0.0,0.0,0.0,0.0,0.0,0.0,0.0,0.0,0.0,0.0,0.0,0.0,0.0,0.0,0.0,0.0,0.0,0.0,0.0,0.0,-3.1582,-3.1973,-3.2012,-3.1992,0.0,0.0,-3.1994,-3.1875,-3.1935,0.0,0.0,0.0,0.0,0.0,0.0,0.0,0.0,0.0,0.0,0.0,0.0,0.0,0.0,0.0,0.0,0.0,0.0,0.0,0.0,0.0,0.0,0.0,0.0,0.0,0.0,0.0,0.0,0.0,0.0,0.0,0.0,0.0,0.0,0.0,0.0,0.0,0.0,0.0,0.0,0.0,0.0,0.0,0.0,0.0,0.0,0.0,0.0,0.0,0.0,0.0,0.0,0.0,0.0,0.0,-3.1774,-3.262,-3.2998,-3.3617,-3.4516,-3.4902,-3.5212,-3.5488,-3.5543,-3.5323,0.0,0.0,0.0,0.0,0.0,0.0,0.0,0.0,0.0,0.0,0.0,0.0,0.0,0.0,0.0,0.0,0.0,0.0,0.0,0.0,0.0,0.0,0.0,0.0,0.0,0.0,0.0,0.0,0.0,0.0,0.0,0.0,0.0,0.0,0.0,0.0,0.0,0.0,0.0,0.0,0.0,0.0,-3.2461,-3.2519,0.0,0.0,0.0,-3.2793,-3.2559,0.0,0.0,0.0,0.0,0.0,0.0,0.0,0.0,0.0,0.0,0.0,0.0,0.0,0.0,0.0,0.0,0.0,0.0,0.0,0.0,0.0,0.0,0.0,0.0,0.0,0.0,0.0,0.0,0.0,0.0,0.0,0.0,0.0,0.0,0.0,0.0,0.0,0.0,0.0,0.0,0.0,0.0,0.0,0.0,0.0,0.0,0.0,0.0,0.0,0.0,0.0,0.0,0.0,0.0,0.0,0.0,0.0,-3.4119,-3.4445,-3.4939,-3.5685,-3.5927,-3.62,-3.6472,-3.6495,0.0,0.0,0.0,0.0,0.0,0.0,0.0,0.0,0.0,0.0,0.0,0.0,0.0,0.0,0.0,0.0,0.0,0.0,0.0,0.0,0.0,0.0,0.0,0.0,0.0,0.0,0.0,-3.2514,0.0,0.0,0.0,0.0,0.0,0.0,0.0,0.0,0.0,0.0,0.0,0.0,0.0,0.0,-3.2637,-3.3047,-3.3203,-3.3379,0.0,0.0,-3.3633,-3.332,-3.3184,-3.2969,0.0,0.0,0.0,0.0,0.0,0.0,0.0,0.0,0.0,0.0,0.0,0.0,0.0,0.0,0.0,0.0,0.0,0.0,0.0,0.0,0.0,0.0,0.0,0.0,0.0,0.0,0.0,0.0,0.0,0.0,0.0,0.0,0.0,0.0,0.0,0.0,0.0,0.0,0.0,0.0,0.0,0.0,0.0,0.0,0.0,0.0,0.0,0.0,0.0,0.0,0.0,0.0,0.0,0.0,-3.4274,-3.5015,-3.5283,-3.578,-3.6557,-3.6634,-3.6766,-3.7036,-3.7036,-3.6904,0.0,0.0,0.0,0.0,0.0,0.0,0.0,0.0,0.0,0.0,0.0,0.0,0.0,0.0,0.0,0.0,0.0,0.0,0.0,0.0,0.0,0.0,0.0,0.0,0.0,0.0,0.0,0.0,0.0,0.0,0.0,0.0,0.0,0.0,0.0,0.0,0.0,0.0,0.0,0.0,0.0,-3.3496,-3.3926,-3.4316,-3.459,0.0,-3.4609,-3.4609,-3.457,-3.4238,-3.3848,-3.3398,0.0,0.0,0.0,0.0,0.0,0.0,0.0,0.0,0.0,0.0,0.0,0.0,0.0,0.0,0.0,0.0,0.0,0.0,0.0,0.0,0.0,0.0,0.0,0.0,0.0,0.0,0.0,0.0,0.0,0.0,0.0,0.0,0.0,0.0,0.0,0.0,0.0,0.0,0.0,0.0,0.0,0.0,0.0,0.0,0.0,0.0,0.0,0.0,0.0,0.0,0.0,0.0,0.0,-3.601,-3.6647,-3.6731,-3.7092,-3.7708,-3.7761,-3.7892,-3.8157,-3.8157,-3.8051,0.0,0.0,0.0,0.0,0.0,0.0,0.0,0.0,0.0,0.0,0.0,0.0,0.0,0.0,0.0,0.0,0.0,0.0,0.0,0.0,0.0,0.0,0.0,0.0,0.0,0.0,0.0,0.0,-3.3671,-3.3388,-3.2856,0.0,0.0,0.0,0.0,0.0,0.0,0.0,0.0,0.0,0.0,-3.4403,-3.5093,-3.5152,0.0,0.0,-3.5508,-3.543,-3.5176,-3.5,-3.4746,-3.4277,-3.3867,0.0,0.0,0.0,0.0,0.0,0.0,0.0,0.0,0.0,0.0,0.0,0.0,0.0,0.0,0.0,0.0,0.0,0.0,0.0,0.0,0.0,0.0,0.0,0.0,0.0,0.0,0.0,0.0,0.0,0.0,0.0,0.0,0.0,0.0,0.0,0.0,0.0,0.0,0.0,0.0,0.0,0.0,0.0,0.0,0.0,0.0,0.0,0.0,0.0,0.0,0.0,0.0,-3.7411,-3.7838,-3.7892,-3.8128,-3.8526,-3.8526,-3.8631,-3.8788,-3.8788,-3.8684,0.0,0.0,0.0,0.0,0.0,0.0,0.0,0.0,0.0,0.0,0.0,0.0,0.0,0.0,0.0,0.0,0.0,0.0,0.0,0.0,0.0,0.0,0.0,0.0,0.0,0.0,0.0,0.0,-3.4697,-3.4393,-3.3884,0.0,0.0,0.0,0.0,0.0,0.0,0.0,0.0,0.0,0.0,-3.5286,-3.6163,-3.6202,-3.6257,-3.6553,-3.6544,-3.6387,-3.584,-3.5664,-3.543,-3.498,0.0,0.0,0.0,0.0,0.0,0.0,0.0,0.0,0.0,0.0,0.0,0.0,0.0,0.0,0.0,0.0,0.0,0.0,0.0,0.0,0.0,0.0,0.0,0.0,0.0,0.0,0.0,-4.2157,0.0,0.0,-4.2261,0.0,0.0,0.0,0.0,0.0,0.0,0.0,0.0,0.0,0.0,0.0,0.0,0.0,0.0,0.0,0.0,0.0,0.0,0.0,0.0,0.0,0.0,-3.8368,-3.8421,-3.8631,-3.8788,-3.8788,-3.8788,-3.8788,-3.8788,-3.8788,-3.8788,-3.8788,0.0,0.0,0.0,0.0,0.0,0.0,0.0,0.0,0.0,0.0,0.0,0.0,0.0,0.0,0.0,0.0,0.0,0.0,0.0,0.0,0.0,0.0,0.0,0.0,0.0,0.0,-3.6589,-3.6005,-3.5553,0.0,0.0,0.0,0.0,0.0,0.0,0.0,0.0,0.0,-3.5473,-3.5726,-3.6073,-3.6938,-3.7441,-3.7706,-3.7838,-3.7827,-3.7549,-3.6768,-3.6289,-3.5879,0.0,0.0,0.0,0.0,0.0,0.0,0.0,0.0,0.0,0.0,0.0,0.0,0.0,0.0,0.0,0.0,0.0,0.0,0.0,0.0,0.0,0.0,0.0,0.0,0.0,0.0,0.0,-4.3888,-4.3861,0.0,0.0,0.0,0.0,0.0,0.0,0.0,0.0,0.0,0.0,0.0,-4.5284,-4.4908,0.0,0.0,0.0,0.0,0.0,0.0,0.0,0.0,0.0,0.0,0.0,0.0,-3.8788,-3.8998,-3.9102,-3.9206,-3.9387,-3.9413,-3.9438,-3.9438,-3.9387,-3.9387,-3.9387,0.0,0.0,0.0,0.0,0.0,0.0,0.0,0.0,0.0,0.0,0.0,0.0,0.0,0.0,0.0,0.0,0.0,0.0,0.0,0.0,0.0,0.0,0.0,0.0,0.0,-3.8579,0.0,0.0,0.0,0.0,0.0,0.0,0.0,0.0,0.0,0.0,-3.5634,-3.6058,-3.6939,-3.7207,-3.757,-3.8481,-3.8344,-3.8247,0.0,0.0,0.0,0.0,0.0,0.0,0.0,0.0,0.0,0.0,0.0,0.0,0.0,0.0,-3.6914,-3.5781,-3.5586,-3.5586,-3.5566,0.0,0.0,0.0,0.0,0.0,0.0,0.0,0.0,0.0,0.0,0.0,0.0,0.0,0.0,-4.574,-4.5954,-4.5982,0.0,0.0,0.0,0.0,0.0,0.0,0.0,0.0,-4.6997,-4.7264,-4.7606,-4.7053,-4.6778,-4.6723,-4.5418,-4.4211,0.0,0.0,0.0,0.0,0.0,0.0,0.0,0.0,-3.9517,-3.9724,-3.9724,-3.9876,-4.0259,-4.0284,-4.0284,-4.0284,-4.0107,-4.0006,-4.0006,-4.0183,-4.0284,0.0,0.0,0.0,0.0,0.0,0.0,0.0,0.0,0.0,0.0,0.0,0.0,0.0,0.0,0.0,0.0,0.0,0.0,0.0,0.0,0.0,0.0,0.0,-3.9722,0.0,0.0,0.0,0.0,0.0,0.0,0.0,0.0,0.0,-3.7079,-3.7227,-3.7771,-3.8526,-3.8702,-3.9082,-3.9884,0.0,0.0,0.0,0.0,0.0,0.0,0.0,-3.8156,-3.7803,-3.7516,-3.7504,-3.8086,-3.8437,-3.8789,-3.9375,0.0,0.0,-3.7226,-3.6914,-3.6914,-3.6914,-3.6914,-3.7031,-3.748,-3.7891,-3.832,0.0,0.0,0.0,0.0,-4.4901,0.0,0.0,0.0,-4.7213,-4.7784,0.0,-4.7729,0.0,0.0,0.0,0.0,-4.6167,-4.7053,0.0,0.0,-4.8858,-4.9456,-4.9957,-4.9338,-4.9057,-4.8949,-4.7341,-4.6454,-4.6349,-4.3686,0.0,0.0,0.0,0.0,0.0,0.0,-4.0517,-4.0542,-4.0542,-4.085,-4.144,-4.1466,-4.1466,-4.1466,-4.0901,-4.0644,-4.0644,-4.1132,-4.1466,-4.1414,-4.1664,0.0,0.0,0.0,0.0,0.0,0.0,0.0,0.0,0.0,0.0,0.0,0.0,0.0,0.0,0.0,0.0,0.0,0.0,0.0,0.0,-4.1418,0.0,0.0,0.0,0.0,0.0,0.0,0.0,0.0,0.0,-3.9991,-3.9408,-3.9383,-3.9685,-4.0088,0.0,0.0,0.0,0.0,-4.1812,-4.153,-4.1188,-4.0758,-3.9941,-3.9506,-3.908,-3.8652,0.0,0.0,-3.9802,-3.9961,-4.0215,-4.1055,-4.1172,-4.0684,-3.9023,-3.8691,-3.8652,-3.8652,-3.8652,-3.8809,-3.9219,-3.9668,-4.0098,-4.7903,0.0,0.0,0.0,0.0,-4.818,-4.8841,-4.9008,-4.9203,-4.937,-4.9509,-4.9342,0.0,0.0,0.0,0.0,0.0,0.0,-4.9417,-4.9756,-5.0134,-5.0507,-5.0818,-5.0646,-5.056,-5.0503,-4.9223,-4.8522,-4.8466,-4.6656,-4.4834,-4.2971,0.0,0.0,0.0,0.0,-4.1279,-4.1696,-4.1722,-4.2008,-4.2606,-4.2606,-4.2606,-4.2606,-4.245,-4.2372,-4.2372,-4.2528,-4.2502,-4.2293,-4.2343,0.0,0.0,0.0,0.0,0.0,0.0,0.0,0.0,0.0,0.0,0.0,0.0,0.0,0.0,0.0,0.0,0.0,0.0,0.0,-4.3027,-4.2814,-4.27,0.0,0.0,0.0,0.0,0.0,0.0,0.0,0.0,0.0,-4.2867,-4.2101,-4.157,0.0,0.0,-4.2967,-4.3197,-4.3128,-4.3164,-4.3512,-4.3006,0.0,-4.2424,-4.1814,-4.1232,-4.0846,-4.0814,-4.1098,-4.1636,-4.1794,-4.1816,-4.2052,-4.207,-4.1894,-4.1445,-4.082,-4.0469,-4.043,-4.043,-4.0664,-4.1328,-4.1621,-4.1914,-5.1135,-4.9101,-4.9155,-4.9065,-4.9047,-5.0294,-5.0995,-5.1275,-5.1608,-5.1917,-5.2117,-5.1526,-5.1275,-5.1165,-5.0182,0.0,0.0,0.0,-5.0981,-5.1322,-5.1811,-5.2156,-5.2391,-5.218,-5.2093,-5.2013,-5.094,-5.0255,-4.9925,-4.8931,-4.7313,-4.5101,0.0,-4.3633,-4.2885,-4.2708,-4.2844,-4.3189,-4.3165,-4.3508,-4.4067,-4.4067,-4.4067,-4.4067,-4.3854,-4.3721,-4.3748,-4.396,-4.3963,-4.3651,-4.3704,-4.3702,0.0,0.0,0.0,0.0,0.0,0.0,0.0,0.0,0.0,0.0,0.0,-4.2986,-4.2986,0.0,0.0,0.0,-4.3514,-4.3733,-4.3886,-4.3854,0.0,0.0,0.0,0.0,0.0,0.0,0.0,-4.3741,-4.4074,-4.4487,-4.4997,-4.4744,-4.4276,-4.3642,-4.4277,-4.4778,-4.4819,0.0,-4.4845,-4.5147,-4.4693,-4.4233,-4.4156,-4.3474,-4.2942,-4.2725,-4.2794,-4.2964,-4.3416,-4.3459,-4.3499,-4.3492,-4.3585,-4.3621,-4.3457,-4.3027,-4.25,-4.2051,-4.207,-4.2422,-4.3086,-4.3223,-4.3418,-5.4458,-5.4029,-5.2059,-5.1179,-5.1207,-5.2151,-5.2833,-5.341,-5.4226,-5.4997,-5.5492,-5.4008,-5.3328,-5.3271,-5.1856,0.0,-5.0872,-5.2018,-5.27,-5.2907,-5.375,-5.4273,-5.4473,-5.3883,-5.3588,-5.3588,-5.2599,-5.1704,-5.0959,-5.0622,-4.9638,-4.7949,-4.6665,-4.563,-4.4866,-4.4838,-4.4866,-4.487,-4.492,-4.5169,-4.5792,-4.582,-4.582,-4.582,-4.5275,-4.4952,-4.5002,-4.5469,-4.5614,-4.5383,-4.5607,-4.5608,-4.5367,0.0,0.0,0.0,0.0,0.0,0.0,0.0,0.0,0.0,0.0,0.0,0.0,0.0,0.0,-4.3865,-4.4317,0.0,-4.4694,-4.4694,0.0,0.0,0.0,-4.4385,-4.436,-4.415,-4.4171,-4.4664,0.0,0.0,-4.6266,-4.7227,-4.7375,-4.5933,-4.6186,-4.6357,-4.6136,-4.6582,-4.682,-4.6628,-4.6178,-4.5845,-4.5622,-4.4873,-4.4418,-4.4407,-4.452,-4.479,-4.5103,-4.523,-4.5207,-4.5051,-4.5465,-4.5574,-4.517,-4.5072,-4.4772,-4.366,-4.3637,-4.3926,-4.4355,-4.4453,-4.459,-5.5966,-5.5725,-5.5219,-5.4597,-5.406,-5.4937,-5.5395,-5.5542,-5.5771,-5.5971,-5.6089,-5.5688,-5.5435,-5.5221,-5.506,-5.4837,-5.4623,-5.5089,-5.5389,-5.5442,-5.5824,-5.6071,-5.6094,-5.5442,-5.5145,-5.5086,-5.3735,-5.2965,-5.2767,-5.2138,-5.1578,-5.0988,-5.0614,-4.893,-4.6014,-4.5881,-4.6181,-4.6578,-4.6578,-4.6885,-4.7471,-4.7499,-4.7499,-4.7499,-4.7359,-4.7275,-4.7275,-4.7239,-4.7067,-4.6837,-4.7124,-4.7134,-4.6894,-4.6946,0.0,0.0,0.0,0.0,0.0,0.0,0.0,0.0,0.0,-4.4586,-4.4586,0.0,-4.4418,0.0,-4.4543,-4.4794,-4.5246,-4.5296,0.0,0.0,-4.5864,-4.5805,-4.5805,-4.6095,-4.6334,-4.6459,-4.6959,-4.7483,-4.8121,-4.8421,-4.8654,-4.878,-4.8739,-4.8488,-4.8166,-4.8352,-4.8511,-4.8497,-4.8051,-4.7645,-4.7558,-4.7016,-4.6523,-4.6244,-4.6514,-4.6732,-4.656,-4.6513,-4.6475,-4.6103,-4.6135,-4.6145,-4.6101,-4.6276,-4.6396,-4.6076,-4.5371,-4.4844,-4.5273,-4.5371,-4.5488,-5.8565,-5.8402,-5.8456,-5.8169,-5.7675,-5.7143,-5.6906,-5.6936,-5.7393,-5.7511,-5.7511,-5.7108,-5.6598,-5.6094,-5.6225,-5.6225,-5.6118,-5.6332,-5.6492,-5.6492,-5.6727,-5.6885,-5.6885,-5.6527,-5.6147,-5.5931,-5.5062,-5.4256,-5.3592,-5.3207,-5.2752,-5.2159,-5.2159,-5.1108,-4.9133,-4.878,-4.8852,-4.9145,-4.9145,-4.9316,-4.963,-4.9658,-4.9658,-4.9658,-4.9557,-4.9456,-4.9484,-4.9229,-4.8972,-4.8714,-4.8865,-4.8797,-4.8401,-4.8353,-4.8301,0.0,0.0,0.0,0.0,0.0,0.0,0.0,0.0,0.0,0.0,0.0,-4.5446,-4.5582,-4.5431,-4.5497,-4.5824,-4.5849,-4.5974,-4.6276,-4.6527,-4.6677,-4.6677,-4.7154,-4.7481,-4.7481,-4.7958,-4.841,-4.8736,-4.8987,-4.9375,-5.0031,-5.0182,-5.0139,-4.9848,-4.9869,-5.0028,-5.0119,-4.9652,-4.9108,-4.8766,-4.8753,-4.8576,-4.8056,-4.8344,-4.858,-4.8187,-4.7975,-4.7725,-4.7358,-4.7361,-4.7479,-4.7331,-4.7403,-4.7622,-4.7516,-4.6861,-4.6306,-4.6245,-4.613,-4.6035,-6.1104,-6.1104,-6.1104,-6.1104,-6.0928,-5.8947,-5.8148,-5.8178,-5.8901,-5.9189,-5.9069,-5.8202,-5.7422,-5.6622,-5.6651,-5.6622,-5.6705,-5.6888,-5.6994,-5.6994,-5.7258,-5.7334,-5.7334,-5.7274,-5.6944,-5.6487,-5.6398,-5.5586,-5.425,-5.425,-5.3772,-5.292,-5.2891,-5.2891,-5.2841,-5.244,-5.202,-5.1736,-5.1707,-5.1707,-5.1736,-5.1707,-5.1736,-5.1657,-5.1483,-5.133,-5.133,-5.1126,-5.0789,-5.0611,-5.0616,-5.0412,-4.9914,-4.9623,-4.9411,0.0,-4.8899,0.0,0.0,0.0,0.0,0.0,0.0,0.0,0.0,-4.6347,-4.666,-4.6815,-4.6601,-4.6421,-4.6361,-4.6436,-4.6461,-4.6426,-4.6903,-4.7168,-4.7193,-4.7707,-4.8008,-4.8008,-4.851,-4.8887,-4.8912,-4.9314,-4.9791,-5.0343,-5.0829,-5.113,-5.1179,-5.1147,-5.1161,-5.1303,-5.1,-5.0316,-4.9579,-4.9943,-5.0202,-4.9713,-4.9842,-5.0109,-4.9707,-4.9358,-4.9022,-4.8601,-4.881,-4.8965,-4.8588,-4.8562,-4.8575,-4.8616,-4.8188,-4.7627,-4.7121,-4.6706,-4.6396,-6.1104,-6.1104,-6.1104,-6.1104,-6.1074,-6.0659,-6.0424,-6.045,-6.0086,-5.9608,-5.9099,-5.8925,-5.8722,-5.8578,-5.8578,-5.8548,-5.8578,-5.8632,-5.8686,-5.8686,-5.8686,-5.871,-5.868,-5.8171,-5.7872,-5.7723,-5.7184,-5.6795,-5.6504,-5.6504,-5.6123,-5.5496,-5.5496,-5.5496,-5.5445,0.0,0.0,0.0,-5.2288,-5.2238,-5.2209,-5.2258,-5.2258,-5.2209,-5.2209,0.0,-5.2188,-5.1909,-5.1657,-5.1381,-5.1667,0.0,0.0,0.0,0.0,0.0,0.0,0.0,0.0,0.0,0.0,0.0,-5.0213,-4.9432,-4.8121,-4.7646,-4.7339,-4.7146,-4.7027,-4.6934,-4.6746,-4.7126,-4.7258,-4.7004,-4.7456,-4.7757,-4.7782,-4.8259,-4.8611,-4.8611,-4.9113,-4.9439,-4.9414,-4.954,-4.9791,-5.0343,-5.0921,-5.1406,-5.1822,-5.1974,-5.2159,-5.2144,-5.1586,-5.1071,-5.0789,-5.0747,-5.0833,-5.0717,-5.0804,-5.0903,-5.062,-5.0501,-5.0304,-4.9883,-4.9881,-4.9924,-4.9842,-4.9621,-4.9505,-4.9824,-4.9323,-4.8539,-4.7707,-4.7181,-4.692,-6.2288,-6.2318,-6.2457,-6.2513,0.0,-6.2544,-6.2333,-6.1885,-6.0616,-5.9837,-5.9315,-5.9315,-5.9369,-5.956,-5.956,-5.956,-5.956,-5.956,-5.956,-5.956,-5.956,-5.956,-5.9529,-5.9198,-5.8866,-5.8535,-5.8046,-5.7663,-5.7333,-5.7176,-5.6944,-5.6615,-5.6645,-5.6615,-5.6615,-5.6615,-5.6034,-5.4735,-5.4713,-5.4684,-5.4684,-5.4684,-5.4586,-5.4318,-5.4137,0.0,0.0,0.0,0.0,0.0,0.0,0.0,0.0,-5.2929,0.0,-5.2812,-5.2705,-5.2598,-5.2437,-5.2437,-5.2139,-5.1568,-5.1403,-5.0656,-4.9213,-4.8669,-4.8262,-4.7912,-4.7619,-4.7511,-4.7667,-4.7803,-4.7841,-4.7814,-4.8257,-4.8523,-4.8448,-4.8837,-4.9163,-4.9188,-4.9414,-4.959,-4.959,-4.959,-4.9816,-5.0343,-5.0921,-5.1473,-5.2026,-5.2441,-5.256,-5.2446,-5.2074,-5.1726,-5.1565,-5.1673,-5.1585,-5.156,-5.1624,-5.1648,-5.1612,-5.1224,-5.1012,-5.1084,-5.1142,-5.1139,-5.1081,-5.0858,-5.0615,-5.0731,-5.0162,-4.9507,-4.9027,-4.8294,-4.7595,-6.3595,-6.3595,-6.388,-6.3993,-6.3993,-6.4049,-6.3619,-6.2798,-6.0982,0.0,0.0,-5.9583,-5.9743,-6.0039,-6.0039,-6.0092,-6.0175,-6.0175,-6.0175,-6.0144,-6.0144,-6.0144,-6.0144,-6.0092,-5.9788,-5.9271,-5.8957,-5.858,-5.8036,-5.7715,-5.7551,-5.7431,-5.7431,-5.7378,-5.7408,-5.7393,-5.7453,-5.7423,-5.7214,-5.7094,-5.7094,-5.7094,-5.6855,-5.6346,-5.6109,-5.5656,-5.5113,-5.4768,-5.4576,-5.4385,-5.4385,-5.4252,-5.3993,-5.3942,-5.3838,-5.3658,-5.3658,-5.3553,-5.3314,-5.3343,-5.3078,-5.2465,-5.2167,-5.1403,-4.9953,-4.9586,-4.9244,-4.8811,-4.8426,-4.8335,-4.8711,-4.8644,-4.8625,-4.8804,-4.9214,-4.9419,-4.9128,-4.9378,-4.9629,-4.959,-4.959,-4.959,-4.959,-4.959,-4.9741,-5.0218,-5.072,-5.1398,-5.2,-5.2578,-5.2792,-5.2585,-5.2446,-5.2377,-5.2149,-5.221,-5.2484,-5.2252,-5.2187,-5.2283,-5.2297,-5.1919,-5.1681,-5.1944,-5.2079,-5.2078,-5.2161,-5.1809,-5.165,-5.166,-5.1041,-5.0549,-5.0435,-4.968,-4.881,-6.3936,-6.3936,-6.3993,-6.3993,-6.4049,-6.4244,-6.3734,-6.2703,-6.1369,-6.0486,-5.9963,-5.9933,-6.0092,-6.0324,-6.0324,-6.0481,-6.069,-6.069,-6.069,-6.069,-6.0721,-6.069,-6.0721,-6.0429,-6.0294,-6.0202,-5.994,-5.9751,-5.966,-5.9607,-5.9304,-5.8789,-5.8728,-5.8624,-5.8422,-5.8667,-5.883,-5.88,-5.7693,-5.7094,-5.7094,-5.7094,-5.7064,-5.6974,-5.6922,-5.6623,-5.6025,-5.5966,-5.5573,-5.4781,-5.4751,-5.4568,-5.4252,-5.4252,-5.42,-5.42,-5.42,-5.4149,-5.4149,-5.4097,-5.389,-5.3343,-5.3078,-5.2301,-5.0878,-5.0656,-5.0348,-4.9583,-4.9787,-4.9844,-4.9475,-5.0044,-5.0279,-5.01,-5.0278,-5.0295,-4.9952,-4.9989,-4.9912,-4.9654,-4.959,-4.959,-4.959,-4.959,-4.9615,-4.9791,-5.0343,-5.0946,-5.1925,-5.2578,-5.2836,-5.2861,-5.2861,-5.2792,-5.2679,-5.2565,-5.2605,-5.2932,-5.2703,-5.2545,-5.2696,-5.2574,-5.2401,-5.2407,-5.2447,-5.2486,-5.2535,-5.2217,-5.2187,-5.2409,-5.2133,-5.1685,-5.1416,-5.1131,-5.06,-6.4691,-6.4691,-6.4857,-6.4936,-6.4936,-6.4808,-6.4635,-6.4193,-6.3245,-6.201,-6.0699,-6.0669,-6.0928,-6.1257,-6.1257,-6.141,-6.1714,-6.2089,-6.2246,-6.2277,-6.2652,-6.2808,-6.2757,-6.255,-6.2426,-6.2374,-6.2007,-6.1774,-6.1774,-6.1668,-6.1325,-6.086,-6.07,-6.0539,-6.0462,-6.0627,-6.0639,-6.0639,-5.9021,-5.8171,-5.8171,-5.8171,-5.8022,-5.7663,-5.7663,-5.7334,-5.6705,-5.6675,-5.6504,-5.6072,-5.5743,-5.5513,-5.5329,-5.5002,-5.4794,-5.4794,-5.4794,-5.4692,-5.459,-5.4436,-5.42,-5.3942,-5.3838,-5.3419,-5.2623,-5.1976,-5.1293,-5.0655,-5.0923,-5.1129,-5.099,-5.1323,-5.1565,-5.1575,-5.1315,-5.1031,-5.0677,-5.0487,-5.027,-5.0168,-4.9976,-4.9873,-4.9847,-4.9719,-4.959,-4.9665,-5.0293,-5.1197,-5.1975,-5.2578,-5.2861,-5.2861,-5.2861,-5.2861,-5.2861,-5.2792,-5.2754,-5.2978,-5.2725,-5.2668,-5.2828,-5.2809,-5.2766,-5.2938,-5.2913,-5.3131,-5.3367,-5.3165,-5.3155,-5.3409,-5.3118,-5.269,-5.2484,-5.2173,-5.1352,-6.5569,-6.5623,-6.5808,-6.5969,-6.6067,-6.5797,-6.5793,-6.5809,-6.532,-6.4045,-6.2398,-6.2081,-6.2203,-6.2707,-6.2757,-6.2906,-6.3267,-6.3793,-6.4098,-6.4111,-6.462,-6.4875,-6.4824,-6.4519,-6.4398,-6.4315,-6.3829,-6.3567,-6.3567,-6.3357,-6.3092,-6.2772,-6.2449,-6.2286,-6.2256,-6.2232,-6.2232,-6.2086,-6.0657,-5.9789,-5.9765,-5.9711,-5.9387,-5.8937,-5.865,-5.8231,-5.7603,-5.7423,-5.7244,-5.7094,-5.6615,-5.6428,-5.6346,-5.5897,-5.5628,-5.5628,-5.5628,-5.5466,-5.5113,-5.473,-5.4458,-5.4406,-5.4406,-5.4282,-5.3942,-5.3208,-5.244,-5.1957,-5.2128,-5.243,-5.2578,-5.2711,-5.2776,-5.2903,-5.2342,-5.1872,-5.1497,-5.1157,-5.0842,-5.0715,-5.0487,-5.0295,-5.0168,-4.9976,-4.9847,-4.987,-5.0635,-5.1423,-5.19,-5.2477,-5.2836,-5.2861,-5.2861,-5.2861,-5.2861,-5.2861,-5.2861,-5.2861,-5.2654,-5.2715,-5.2899,-5.2858,-5.2844,-5.3146,-5.3318,-5.3395,-5.3837,-5.3741,-5.3668,-5.3861,-5.3659,-5.3446,-5.3312,-5.2759,-5.1832,-6.648,-6.6512,-6.6533,-6.6796,-6.7233,-6.7446,-6.7314,-6.7098,-6.6969,-6.6467,-6.5561,-6.4633,-6.4501,-6.4953,-6.497,-6.5186,-6.5659,-6.5837,-6.5869,-6.5869,-6.5934,-6.5966,-6.5982,-6.5475,-6.5194,-6.5208,-6.4736,-6.4544,-6.4544,-6.4461,-6.4243,-6.3933,-6.341,-6.3207,-6.3176,-6.2994,-6.2856,-6.2825,-6.2326,-6.1995,-6.1722,-6.1418,-6.1253,-6.1162,-6.0371,-5.9608,-5.8943,-5.8351,-5.7752,-5.7154,-5.7064,-5.7004,-5.7004,-5.6944,-5.6915,-5.6885,-5.6885,-5.6675,-5.6107,-5.5487,-5.4976,-5.4803,-5.4722,-5.4619,-5.4304,-5.4178,-5.3943,-5.3586,-5.372,-5.3867,-5.3912,-5.4086,-5.4149,-5.3959,-5.3349,-5.2861,-5.2527,-5.2183,-5.1747,-5.112,-5.112,-5.0931,-5.0677,-5.055,-5.0359,-5.0205,-5.0857,-5.1481,-5.1641,-5.2395,-5.2929,-5.2929,-5.2861,-5.2861,-5.2861,-5.2861,-5.2861,-5.2861,-5.2861,-5.2867,-5.2942,-5.2898,-5.2973,-5.3027,-5.3151,-5.3208,-5.3439,-5.3445,-5.3445,-5.3787,-5.3863,-5.401,-5.3726,-5.3086,-5.2218,-6.7542,-6.7574,-6.7695,-6.8068,-6.8518,-6.8666,-6.8699,-6.8713,-6.8761,-6.8564,-6.8286,-6.7785,-6.7037,-6.5983,-6.5983,-6.6306,-6.6802,-6.7242,-6.7439,-6.7472,-6.7864,-6.7964,-6.7769,-6.7426,-6.7245,-6.7228,-6.6878,-6.6727,-6.6625,-6.6371,-6.6166,-6.5992,-6.5523,-6.5292,-6.5239,-6.5155,-6.5102,-6.5049,-6.4751,-6.4505,-6.4251,-6.2707,-6.1795,-6.1764,-6.1412,-6.0905,-6.0271,-5.9807,-5.9248,-5.8534,-5.7955,-5.7693,-5.7693,-5.7304,-5.7094,-5.7064,-5.6735,-5.6436,-5.6218,-5.5568,-5.5128,-5.5027,-5.5027,-5.4976,-5.4875,-5.5048,-5.5159,-5.5352,-5.5079,-5.4933,-5.5168,-5.5276,-5.5379,-5.5144,-5.4465,-5.3866,-5.3746,-5.3261,-5.2799,-5.2368,-5.2121,-5.1872,-5.1497,-5.1094,-5.0933,-5.0972,-5.1543,-5.188,-5.2127,-5.2767,-5.306,-5.2929,-5.2861,-5.2861,-5.2861,-5.2861,-5.2861,-5.2861,-5.2861,-5.2861,-5.2861,-5.2861,-5.2892,-5.2953,-5.2978,-5.3133,-5.3537,-5.3591,-5.364,-5.3889,-5.3923,-5.3981,-5.3595,-5.3105,-5.2675,-6.8649,-6.8699,-6.8994,-6.9349,-6.9699,-6.9794,-6.9969,-7.019,-7.019,-7.019,-7.019,-7.019,-6.931,-6.7914,-6.7611,-6.7786,-6.8181,-6.8691,-6.8923,-6.8989,-6.9486,-6.9574,-6.9382,-6.914,-6.9042,-6.8994,-6.8765,-6.8567,-6.8501,-6.8,-6.7746,-6.7644,-6.7265,-6.7057,-6.7057,-6.7057,-6.7057,-6.6974,-6.6659,-6.647,-6.6154,-6.4381,-6.3132,-6.2914,-6.2543,-6.2153,-6.1697,-6.1062,-6.0476,-5.9938,-5.9061,-5.8571,-5.8488,-5.8008,-5.7738,-5.7603,-5.7064,-5.6705,-5.6705,-5.6077,-5.5628,-5.5478,-5.5448,-5.5448,-5.5538,-5.5662,-5.6214,-5.6882,-5.6437,-5.6158,-5.6382,-5.6478,-5.6423,-5.625,-5.5468,-5.5029,-5.488,-5.4405,-5.3954,-5.3531,-5.3261,-5.2895,-5.2457,-5.2066,-5.1888,-5.1986,-5.2335,-5.2704,-5.2899,-5.3275,-5.3546,-5.3273,-5.3136,-5.2998,-5.2929,-5.2861,-5.2861,-5.2861,-5.2861,-5.2861,-5.2861,-5.2861,-5.2861,-5.2917,-5.2886,-5.2961,-5.3242,-5.3462,-5.3613,-5.4039,-5.4123,-5.3843,-5.3685,-5.3299,-5.3277,-6.9751,-6.9765,-7.0236,-7.0528,-7.0769,-7.0996,-7.1086,-7.1165,-7.1165,-7.1165,-7.1165,-7.1131,-7.1053,-7.0828,-7.0201,-7.0103,-7.0289,-7.0335,-7.0335,-7.0369,-7.0436,-7.0423,-7.0423,-7.0223,-7.0082,-6.9988,-6.9765,-6.9559,-6.9285,-6.8797,-6.855,-6.855,-6.8251,-6.8151,-6.8151,-6.8101,-6.8151,-6.805,-6.7593,-6.7336,-6.7285,-6.6701,-6.5866,-6.5126,-6.4009,-6.3336,-6.3098,-6.1788,-6.1011,-6.095,-6.0289,-5.9796,-5.9469,-5.9355,-5.9188,-5.8943,-5.8351,-5.7992,-5.7872,-5.7274,-5.6705,-5.6278,-5.6107,-5.6188,-5.6137,-5.6286,-5.6803,-5.7879,-5.7678,-5.7596,-5.7658,-5.7581,-5.7389,-5.6936,-5.6537,-5.6222,-5.5961,-5.5613,-5.5116,-5.4616,-5.4378,-5.4014,-5.322,-5.3281,-5.3263,-5.3192,-5.3413,-5.3697,-5.376,-5.3932,-5.4013,-5.3861,-5.3657,-5.3341,-5.2998,-5.2929,-5.2861,-5.2861,-5.2861,-5.2861,-5.2861,-5.2861,-5.2861,-5.2861,-5.2861,-5.2861,-5.2955,-5.308,-5.3281,-5.3557,-5.3708,-5.3603,-5.3545,-5.3868,-5.3824,-7.0894,-7.1165,-7.1522,-7.1786,-7.1969,-7.2056,-7.2133,-7.2056,-7.2133,-7.2133,-7.2133,-7.2056,-7.2133,-7.2056,-7.1873,-7.1522,-7.1244,-7.1199,-7.1199,-7.1199,-7.1199,-7.1064,-7.0779,-7.0687,-7.0549,-7.041,-7.0283,-7.0223,-7.0096,-6.9765,-6.9655,-6.9607,-6.9334,-6.9188,-6.9188,-6.9042,-6.8994,-6.8896,-6.8451,-6.8151,-6.8151,-6.7797,-6.7439,-6.7098,-6.5794,-6.4946,-6.4511,-6.3587,-6.2626,-6.1576,-6.1088,-6.0571,-5.994,-5.9827,-5.9773,-5.9606,-5.9032,-5.8587,-5.8399,-5.7775,-5.7243,-5.6847,-5.6765,-5.6765,-5.6855,-5.7154,-5.7633,-5.8028,-5.8423,-5.8589,-5.8575,-5.828,-5.7974,-5.7751,-5.7501,-5.7276,-5.7107,-5.6709,-5.625,-5.5759,-5.5409,-5.496,-5.4693,-5.4691,-5.4793,-5.5024,-5.5088,-5.5099,-5.5208,-5.5141,-5.4939,-5.4443,-5.4241,-5.4039,-5.3657,-5.3204,-5.2929,-5.2929,-5.2861,-5.2929,-5.2929,-5.2861,-5.2861,-5.2861,-5.2861,-5.2861,-5.2955,-5.2955,-5.3105,-5.313,-5.3281,-5.3337,-5.3248,-5.3453,-5.3508,-7.2004,-7.2347,-7.2602,-7.2853,-7.3018,-7.3018,-7.3018,-7.3018,-7.3018,-7.3018,-7.3018,-7.3018,-7.3018,-7.3018,-7.3018,-7.2811,-7.2305,-7.2047,-7.1917,-7.1917,-7.1864,-7.1644,-7.1412,-7.1278,-7.1154,-7.0973,-7.0791,-7.0745,-7.0699,-7.0456,-7.0316,-7.027,-7.0129,-7.0002,-6.9988,-6.9813,-6.9765,-6.967,-6.9334,-6.9091,-6.9091,-6.8748,-6.86,-6.8451,-6.751,-6.6563,-6.5879,-6.5114,-6.4137,-6.3025,-6.2319,-6.1449,-6.0552,-6.0302,-6.025,-6.0189,-5.9771,-5.9392,-5.9183,-5.8684,-5.8165,-5.7767,-5.7633,-5.7611,-5.7641,-5.7925,-5.8171,-5.8471,-5.88,-5.9099,-5.9045,-5.8719,-5.8445,-5.839,-5.8225,-5.8059,-5.7948,-5.7528,-5.722,-5.6852,-5.6507,-5.6267,-5.6073,-5.6312,-5.6593,-5.6926,-5.6704,-5.6675,-5.6742,-5.6394,-5.5934,-5.5313,-5.5113,-5.4913,-5.4604,-5.4064,-5.3452,-5.3316,-5.3136,-5.3067,-5.2998,-5.2929,-5.2929,-5.2929,-5.2861,-5.2861,-5.2861,-5.2861,-5.2861,-5.2861,-5.2936,-5.3061,-5.3011,-5.2936,-5.3092,-7.306,-7.3305,-7.3507,-7.3707,-7.3865,-7.3905,-7.3905,-7.3905,-7.3905,-7.3905,-7.3905,-7.3905,-7.3905,-7.3905,-7.3905,-7.3865,-7.3707,-7.3101,-7.2728,-7.2644,-7.2424,-7.2339,-7.2253,-7.2072,-7.1942,-7.1854,-7.1501,-7.1323,-7.1278,-7.0837,-7.0608,-7.0561,-7.0561,-7.0561,-7.0515,-7.0469,-7.0469,-7.0376,-7.0176,-7.0129,-7.0129,-6.9622,-6.9382,-6.9334,-6.8847,-6.8219,-6.7427,-6.6254,-6.5407,-6.4947,-6.3857,-6.2547,-6.1474,-6.1031,-6.0845,-6.0845,-6.0607,-6.0451,-6.0346,-6.0075,-5.9605,-5.9053,-5.8775,-5.8648,-5.8595,-5.8414,-5.8494,-5.8997,-5.9123,-5.9153,-5.9153,-5.9099,-5.8936,-5.8719,-5.8694,-5.85,-5.8335,-5.8195,-5.8114,-5.7842,-5.7741,-5.7628,-5.7653,-5.807,-5.8508,-5.8362,-5.8258,-5.8151,-5.8107,-5.7597,-5.7082,-5.6628,-5.6367,-5.6105,-5.5578,-5.498,-5.4335,-5.3793,-5.3589,-5.3478,-5.3273,-5.3136,-5.3067,-5.3067,-5.2929,-5.2929,-5.2861,-5.2861,-5.2861,-5.2861,-5.2861,-5.2861,-5.2861,-5.2861,-5.2861,-7.4061,-7.4178,-7.4484,-7.4673,-7.4711,-7.4711,-7.4711,-7.4711,-7.4711,-7.4748,-7.4711,-7.4711,-7.4711,-7.4711,-7.4711,-7.4711,-7.4711,-7.4411,-7.4026,-7.3547,-7.3299,-7.3135,-7.297,-7.2797,-7.2544,-7.2245,-7.2072,-7.1942,-7.1766,-7.159,-7.1546,-7.1467,-7.1334,-7.1289,-7.1244,-7.0928,-7.0745,-7.0779,-7.0549,-7.041,-7.041,-7.027,-7.0143,-7.0143,-6.9893,-6.9559,-6.9285,-6.8074,-6.6965,-6.6058,-6.5562,-6.4596,-6.3047,-6.2186,-6.1885,-6.1885,-6.1664,-6.141,-6.1257,-6.0949,-6.0576,-6.0102,-5.9862,-5.9735,-5.9577,-5.9441,-5.9478,-5.972,-5.972,-5.9667,-5.9422,-5.9369,-5.9261,-5.8991,-5.8936,-5.8966,-5.8833,-5.8694,-5.8626,-5.8758,-5.8769,-5.9011,-5.9481,-6.0001,-6.0023,-5.9915,-5.9683,-5.9488,-5.9239,-5.8864,-5.8297,-5.7788,-5.7597,-5.7275,-5.6758,-5.6301,-5.5776,-5.4913,-5.4469,-5.3929,-5.3657,-5.3384,-5.3316,-5.3204,-5.3067,-5.2929,-5.2929,-5.2861,-5.2861,-5.2861,-5.2861,-5.2861,-5.2861,-5.2861,-5.2861,-7.5008,-7.5081,-7.5407,-7.5549,-7.5549,-7.5549,-7.5549,-7.5513,-7.5549,-7.5549,-7.5549,-7.5549,-7.5549,-7.5549,-7.5549,-7.5549,-7.5549,-7.5442,-7.5154,-7.4636,-7.41,-7.3865,-7.3707,-7.3461,-7.3176,-7.2846,-7.272,-7.2552,-7.2373,-7.2202,-7.2115,-7.2072,-7.1864,-7.1732,-7.1732,-7.1501,-7.1323,-7.1278,-7.1064,-7.0928,-7.0882,-7.0745,-7.0654,-7.0641,-7.0456,-7.0316,-7.027,-6.9478,-6.852,-6.7504,-6.6946,-6.5988,-6.4601,-6.4041,-6.3736,-6.3557,-6.3119,-6.2744,-6.2462,-6.1972,-6.1461,-6.1103,-6.0897,-6.0742,-6.0481,-6.0355,-6.0302,-6.0302,-6.0197,-6.0092,-5.9902,-5.9743,-5.9673,-5.9837,-5.9357,-5.9249,-5.9368,-5.9324,-5.9458,-5.9796,-6.0013,-6.0432,-6.082,-6.1146,-6.1204,-6.1137,-6.0894,-6.0652,-6.0409,-6.0043,-5.9488,-5.9052,-5.8802,-5.8424,-5.7952,-5.7532,-5.7146,-5.6301,-5.5472,-5.4712,-5.4106,-5.3861,-5.3657,-5.3478,-5.3273,-5.3067,-5.2998,-5.2929,-5.2861,-5.2861,-5.2929,-5.2861,-5.2861,-5.2861,-5.2861,-7.5864,-7.6072,-7.6275,-7.6342,-7.6342,-7.6342,-7.6342,-7.6342,-7.6342,-7.6342,-7.6342,-7.6309,-7.6309,-7.6309,-7.6275,-7.6242,-7.6311,-7.6106,-7.6038,-7.5725,-7.5154,-7.4673,-7.4446,-7.4139,-7.3935,-7.3802,-7.3641,-7.3432,-7.3428,-7.3058,-7.2476,-7.2768,-7.2631,-7.2209,-7.2277,-7.2131,-7.2044,-7.1898,-7.1688,-7.1556,-7.1556,-7.1199,-7.0961,-7.0961,-7.0745,-7.0608,-7.0561,-7.0376,-6.9955,-6.9041,-6.7932,-6.7005,-6.6323,-6.6193,-6.5853,-6.5577,-6.485,-6.4348,-6.391,-6.3168,-6.2491,-6.2223,-6.1847,-6.1531,-6.1308,-6.1103,-6.1,-6.0949,-6.0742,-6.0564,-6.0573,-6.0425,-6.0487,-6.0805,-6.0193,-5.9807,-6.0057,-6.0146,-6.042,-6.0962,-6.1389,-6.1634,-6.1694,-6.1966,-6.2027,-6.1969,-6.1791,-6.1613,-6.1375,-6.1015,-6.0681,-6.0287,-5.9981,-5.9611,-5.9086,-5.8585,-5.8234,-5.7788,-5.6823,-5.5842,-5.4913,-5.4511,-5.4064,-5.3793,-5.3614,-5.3341,-5.3204,-5.3136,-5.3067,-5.3067,-5.3067,-5.2929,-5.2861,-5.2929,-5.3055,-7.6664,-7.6765,-7.6956,-7.7019,-7.7019,-7.7056,-7.7019,-7.7056,-7.7056,-7.7056,-7.7024,-7.6929,-7.6866,-7.6866,-7.6737,-7.6672,-7.6672,-7.6607,-7.6607,-7.6541,-7.6278,-7.5584,-7.5081,-7.4896,-7.4917,-7.5073,-7.5062,-7.5183,-7.5423,-7.499,-7.4935,-7.5004,-7.4487,-7.4067,-7.3644,-7.3284,-7.2759,-7.227,-7.2029,-7.1932,-7.1932,-7.18,-7.1634,-7.1423,-7.1367,-7.1267,-7.1098,-7.0916,-7.0515,-6.9874,-6.888,-6.8134,-6.7713,-6.732,-6.6995,-6.6692,-6.6256,-6.5869,-6.5594,-6.4739,-6.3996,-6.3655,-6.3059,-6.2414,-6.2085,-6.2035,-6.1985,-6.1935,-6.1734,-6.173,-6.1929,-6.1794,-6.1818,-6.1859,-6.1395,-6.0957,-6.0886,-6.0864,-6.1104,-6.1732,-6.1945,-6.2187,-6.2487,-6.2668,-6.2701,-6.2468,-6.2351,-6.2234,-6.2057,-6.188,-6.1464,-6.1284,-6.0955,-6.0681,-6.0226,-5.9673,-5.9301,-5.9114,-5.8297,-5.7211,-5.6236,-5.5379,-5.4846,-5.4402,-5.42,-5.3997,-5.3751,-5.3614,-5.3478,-5.3384,-5.3204,-5.3136,-5.2929,-5.2955,-5.3206,-7.748,-7.7503,-7.7629,-7.7688,-7.7688,-7.7688,-7.7688,-7.7688,-7.7688,-7.7629,-7.7607,-7.7517,-7.7426,-7.7402,-7.7273,-7.7212,-7.7212,-7.7087,-7.7024,-7.6961,-7.6737,-7.6208,-7.5691,-7.5729,-7.6014,-7.6109,-7.6427,-7.6666,-7.6674,-7.6539,-7.6413,-7.6227,-7.5929,-7.5478,-7.5053,-7.4691,-7.4133,-7.3468,-7.3076,-7.2897,-7.2863,-7.2647,-7.2756,-7.2761,-7.2775,-7.2529,-7.2033,-7.1797,-7.1298,-7.0456,-6.9743,-6.937,-6.9243,-6.8865,-6.8506,-6.8305,-6.7866,-6.7527,-6.7111,-6.6302,-6.5658,-6.5271,-6.461,-6.4287,-6.4092,-6.393,-6.393,-6.3797,-6.3567,-6.3457,-6.3551,-6.3474,-6.3379,-6.3248,-6.3122,-6.2768,-6.2001,-6.1915,-6.219,-6.2528,-6.2712,-6.2744,-6.3107,-6.3137,-6.3021,-6.2847,-6.2789,-6.2731,-6.2615,-6.2439,-6.2263,-6.1998,-6.1761,-6.1464,-6.1195,-6.0713,-6.0287,-6.0104,-5.9521,-5.8487,-5.7404,-5.6367,-5.5776,-5.5313,-5.4939,-5.4604,-5.4402,-5.4132,-5.3929,-5.3793,-5.3452,-5.3341,-5.3204,-5.3337,-5.3589,-7.8174,-7.8285,-7.8312,-7.8285,-7.8285,-7.8285,-7.8285,-7.8285,-7.8285,-7.823,-7.809,-7.8062,-7.7986,-7.7871,-7.7813,-7.7813,-7.7754,-7.7517,-7.7359,-7.7268,-7.7087,-7.6708,-7.6567,-7.6901,-7.7161,-7.7272,-7.7774,-7.7986,-7.8012,-7.7634,-7.7369,-7.7394,-7.7006,-7.667,-7.6559,-7.6281,-7.5779,-7.5061,-7.4552,-7.4344,-7.426,-7.404,-7.4033,-7.4359,-7.4145,-7.3728,-7.314,-7.2767,-7.2192,-7.0867,-7.0675,-7.0494,-7.0448,-7.0482,-7.0309,-6.999,-6.943,-6.8945,-6.8531,-6.7862,-6.7279,-6.6882,-6.6641,-6.6546,-6.6111,-6.595,-6.5853,-6.5659,-6.5591,-6.523,-6.5135,-6.5184,-6.5062,-6.4804,-6.511,-6.4621,-6.3764,-6.3249,-6.3269,-6.3532,-6.3565,-6.3424,-6.3309,-6.3194,-6.3137,-6.3137,-6.3079,-6.2963,-6.2847,-6.2789,-6.2673,-6.2615,-6.2351,-6.2116,-6.1969,-6.1791,-6.1375,-6.1044,-6.0502,-5.9583,-5.8459,-5.7505,-5.6888,-5.6367,-5.6039,-5.5578,-5.5113,-5.4846,-5.4645,-5.4267,-5.4064,-5.3819,-5.3708,-5.3978,-5.4283,-7.8878,-7.8903,-7.8903,-7.8903,-7.8903,-7.8903,-7.8903,-7.8903,-7.8903,-7.8827,-7.8697,-7.8592,-7.8458,-7.8359,-7.8211,-7.8062,-7.8014,-7.79,-7.7813,-7.7666,-7.7636,-7.777,-7.7829,-7.7972,-7.8361,-7.899,-7.9461,-7.9755,-7.9863,-7.9606,-7.956,-7.9408,-7.8966,-7.8775,-7.82,-7.7819,-7.7267,-7.6517,-7.6052,-7.5849,-7.5808,-7.5561,-7.5415,-7.5489,-7.4972,-7.4528,-7.4121,-7.343,-7.2877,-7.2382,-7.1695,-7.1153,-7.087,-7.0791,-7.0733,-7.0515,-7.0322,-7.0109,-6.987,-6.9197,-6.8659,-6.8453,-6.7903,-6.7347,-6.7301,-6.7246,-6.7072,-6.6864,-6.6546,-6.6469,-6.6427,-6.6697,-6.6592,-6.6406,-6.6269,-6.6205,-6.5705,-6.4775,-6.4229,-6.4183,-6.4019,-6.388,-6.3823,-6.3595,-6.3481,-6.3424,-6.3309,-6.3137,-6.3079,-6.3021,-6.2963,-6.2905,-6.2731,-6.2468,-6.241,-6.2234,-6.1939,-6.1702,-6.1255,-6.0805,-5.9707,-5.8836,-5.827,-5.7697,-5.7146,-5.6693,-5.6144,-5.5908,-5.5776,-5.518,-5.4671,-5.4547,-5.4499,-5.4749,-5.5055,-7.8473,-7.8873,-7.8873,-7.91,-7.9401,-7.9439,-7.9439,-7.9439,-7.9439,-7.9321,-7.9177,-7.9041,-7.8954,-7.8749,-7.8671,-7.8565,-7.8431,-7.8267,-7.8099,-7.7928,-7.7945,-7.8419,-7.9198,-7.9171,-7.9503,-8.0235,-8.0642,-8.0975,-8.1054,-8.0948,-8.0695,-8.0694,-8.0437,-8.011,-7.9711,-7.9339,-7.8719,-7.7995,-7.7582,-7.7425,-7.7386,-7.7107,-7.7023,-7.695,-7.652,-7.6149,-7.5647,-7.4944,-7.4106,-7.3347,-7.256,-7.1841,-7.1312,-7.1143,-7.1007,-7.0916,-7.087,-7.0825,-7.0519,-7.026,-6.9854,-6.9762,-6.9223,-6.9044,-6.8931,-6.8872,-6.8779,-6.8639,-6.839,-6.8188,-6.7915,-6.7827,-6.7816,-6.7593,-6.7471,-6.7336,-6.713,-6.6098,-6.5125,-6.4991,-6.4802,-6.4468,-6.4244,-6.4075,-6.3849,-6.3793,-6.3709,-6.3595,-6.3367,-6.3309,-6.3194,-6.3079,-6.2963,-6.2847,-6.2789,-6.2615,-6.2381,-6.2145,-6.188,-6.1613,-6.1075,-6.032,-5.9735,-5.9024,-5.836,-5.7916,-5.7441,-5.7146,-5.6758,-5.6105,-5.5697,-5.5403,-5.5517,-5.5998,-5.6228,-7.7821,-7.8525,-7.8639,-7.9073,-7.9659,-7.9811,-7.9849,-7.9865,-7.9865,-7.9696,-7.9539,-7.9494,-7.9416,-7.9249,-7.9201,-7.9103,-7.8929,-7.8697,-7.8458,-7.8239,-7.8239,-7.8841,-7.9697,-8.0096,-8.0333,-8.0645,-8.131,-8.1678,-8.1613,-8.1476,-8.1337,-8.1266,-8.1161,-8.0912,-8.084,-8.0622,-8.0115,-7.9427,-7.913,-7.8979,-7.8941,-7.8594,-7.8483,-7.8477,-7.8252,-7.7832,-7.7166,-7.64,-7.5492,-7.3999,-7.3454,-7.2712,-7.2015,-7.1501,-7.1356,-7.1323,-7.1233,-7.1131,-7.1007,-7.0882,-7.0803,-7.0608,-7.0574,-7.0574,-7.0507,-7.0314,-7.0222,-7.015,-6.9929,-6.9694,-6.9237,-6.8994,-6.8748,-6.8501,-6.8401,-6.8401,-6.8119,-6.7253,-6.6523,-6.6023,-6.57,-6.5351,-6.4991,-6.4715,-6.4468,-6.4244,-6.4132,-6.4049,-6.3793,-6.3538,-6.3481,-6.3309,-6.3194,-6.3021,-6.2963,-6.2905,-6.2673,-6.2556,-6.2351,-6.2234,-6.2116,-6.1613,-6.0894,-6.0165,-5.955,-5.9114,-5.8676,-5.836,-5.7852,-5.7146,-5.6881,-5.6927,-5.7051,-5.73,-5.7488,-7.7855,-7.8084,-7.879,-7.9171,-7.9323,-7.9932,-8.0197,-8.0154,-8.0154,-8.0034,-7.9929,-7.9908,-7.9843,-7.9734,-7.9652,-7.9539,-7.9307,-7.9128,-7.8903,-7.8749,-7.8734,-7.9226,-7.9828,-8.0516,-8.0984,-8.1507,-8.2034,-8.221,-8.2051,-8.1922,-8.1785,-8.1579,-8.1544,-8.1476,-8.1372,-8.1231,-8.1054,-8.0658,-8.0406,-8.0296,-8.0222,-7.996,-7.9617,-7.9594,-7.9236,-7.8928,-7.8518,-7.7572,-7.6461,-7.5506,-7.4468,-7.3514,-7.2631,-7.1951,-7.1644,-7.1546,-7.1412,-7.1356,-7.1267,-7.1222,-7.1222,-7.1176,-7.1131,-7.1131,-7.1052,-7.0961,-7.0825,-7.0733,-7.0549,-7.0316,-7.0035,-6.9846,-6.9831,-6.9559,-6.94,-6.932,-6.9174,-6.8763,-6.8092,-6.7624,-6.7007,-6.6268,-6.5915,-6.5592,-6.5375,-6.5101,-6.4826,-6.4604,-6.4382,-6.4075,-6.3823,-6.3622,-6.3451,-6.3222,-6.3137,-6.3079,-6.2963,-6.2963,-6.2789,-6.2673,-6.2585,-6.2498,-6.1998,-6.1195,-6.0592,-6.0165,-5.9858,-5.955,-5.9102,-5.84,-5.8448,-5.8492,-5.8674,-5.8885,-5.9049,-7.7037,-7.7496,-7.8356,-7.8989,-7.9394,-8.0197,-8.0523,-8.0525,-8.0525,-8.043,-8.0354,-8.0315,-8.0276,-8.0177,-8.0058,-7.9912,-7.9718,-7.9539,-7.9331,-7.9225,-7.9214,-7.9442,-8.0036,-8.0795,-8.152,-8.2146,-8.2697,-8.2782,-8.2476,-8.238,-8.2182,-8.2084,-8.1982,-8.1952,-8.1785,-8.1683,-8.1544,-8.1441,-8.1304,-8.1198,-8.1199,-8.084,-8.0546,-8.0285,-7.998,-7.9747,-7.9412,-7.8332,-7.7233,-7.6378,-7.5242,-7.4223,-7.3337,-7.2762,-7.2262,-7.1942,-7.1722,-7.159,-7.1501,-7.1457,-7.1412,-7.1312,-7.1312,-7.1312,-7.1267,-7.1176,-7.1131,-7.1041,-7.087,-7.0687,-7.0549,-7.0523,-7.0483,-7.0723,-7.0648,-7.0766,-7.0903,-7.0713,-7.0158,-6.9397,-6.8452,-6.758,-6.6869,-6.6607,-6.6343,-6.5969,-6.5561,-6.5289,-6.5125,-6.4715,-6.4356,-6.4019,-6.3793,-6.3565,-6.3424,-6.3367,-6.3252,-6.3194,-6.3137,-6.3021,-6.2905,-6.2847,-6.2556,-6.2057,-6.1583,-6.1164,-6.0894,-6.0592,-6.0152,-5.9821,-5.9816,-5.9954,-6.0236,-6.0491,-6.0666,-7.6209,-7.6939,-7.7937,-7.8743,-7.9402,-8.0416,-8.0843,-8.0826,-8.0809,-8.0758,-8.065,-8.0632,-8.0578,-8.0523,-8.0411,-8.0276,-8.0116,-7.9954,-7.9762,-7.9607,-7.9539,-7.9816,-8.029,-8.1194,-8.1934,-8.2317,-8.3372,-8.3395,-8.2941,-8.2758,-8.2665,-8.2502,-8.2471,-8.2343,-8.2117,-8.2084,-8.1952,-8.1818,-8.1751,-8.1717,-8.1547,-8.1339,-8.1128,-8.0948,-8.0619,-8.0397,-8.0213,-7.904,-7.7948,-7.7011,-7.5995,-7.4866,-7.3961,-7.3627,-7.3176,-7.2501,-7.2202,-7.1942,-7.1732,-7.1688,-7.1634,-7.1412,-7.1401,-7.1356,-7.1312,-7.1267,-7.1334,-7.1436,-7.1367,-7.1399,-7.1522,-7.1329,-7.1505,-7.1794,-7.2063,-7.215,-7.2343,-7.2285,-7.1945,-7.1094,-6.9928,-6.9086,-6.8382,-6.7593,-6.7388,-6.7026,-6.6575,-6.6311,-6.6045,-6.5452,-6.5046,-6.4549,-6.4244,-6.3906,-6.3766,-6.3652,-6.3481,-6.3309,-6.3252,-6.3194,-6.3137,-6.3079,-6.2789,-6.2556,-6.2468,-6.2057,-6.185,-6.1582,-6.1215,-6.1048,-6.1113,-6.1371,-6.1699,-6.2033,-6.2286,-7.6184,-7.6453,-7.7996,-7.8686,-7.8975,-8.0438,-8.0962,-8.0888,-8.0888,-8.086,-8.0809,-8.0792,-8.0792,-8.0741,-8.0632,-8.0522,-8.0486,-8.0354,-8.0159,-8.0017,-7.9954,-7.9924,-8.0173,-8.1514,-8.2019,-8.2494,-8.3627,-8.3806,-8.3461,-8.3113,-8.2904,-8.2874,-8.2788,-8.2633,-8.2571,-8.2539,-8.2508,-8.2311,-8.215,-8.1952,-8.1681,-8.1544,-8.1547,-8.1407,-8.1232,-8.0984,-8.0659,-7.9574,-7.8526,-7.7624,-7.665,-7.5603,-7.4661,-7.437,-7.4022,-7.3386,-7.2762,-7.2202,-7.2072,-7.1985,-7.1898,-7.1644,-7.1556,-7.1501,-7.1548,-7.1526,-7.1729,-7.2259,-7.2213,-7.237,-7.2742,-7.2979,-7.3147,-7.3122,-7.305,-7.307,-7.3211,-7.3601,-7.3342,-7.2964,-7.1899,-7.0848,-7.0039,-6.9104,-6.8351,-6.8,-6.7676,-6.7432,-6.7005,-6.6427,-6.5615,-6.5156,-6.4826,-6.4549,-6.4244,-6.4075,-6.3849,-6.3565,-6.3481,-6.3424,-6.3309,-6.3194,-6.3137,-6.2963,-6.2905,-6.2791,-6.2499,-6.2292,-6.2231,-6.2341,-6.2529,-6.2827,-6.3239,-6.3565,-6.383,-7.6676,-7.7125,-7.8323,-7.9082,-7.9636,-8.0779,-8.1224,-8.1167,-8.1122,-8.1116,-8.1085,-8.1085,-8.1038,-8.0904,-8.0805,-8.0737,-8.0723,-8.0614,-8.0523,-8.0392,-8.0335,-8.0296,-8.0616,-8.1735,-8.2445,-8.2769,-8.3794,-8.4524,-8.4128,-8.3675,-8.3367,-8.3281,-8.3143,-8.2964,-8.2911,-8.285,-8.269,-8.2565,-8.2476,-8.2348,-8.2117,-8.1985,-8.1885,-8.1785,-8.1579,-8.1223,-8.0612,-7.9713,-7.8636,-7.7665,-7.6661,-7.5836,-7.526,-7.5006,-7.4784,-7.4139,-7.3826,-7.3264,-7.2678,-7.2501,-7.2253,-7.2072,-7.1976,-7.1981,-7.2155,-7.2225,-7.2406,-7.3198,-7.3129,-7.3286,-7.3489,-7.3477,-7.3781,-7.3904,-7.4148,-7.4418,-7.4472,-7.4492,-7.4531,-7.42,-7.3855,-7.2874,-7.1985,-7.1177,-7.0404,-6.9943,-6.9509,-6.9173,-6.8441,-6.756,-6.6649,-6.5723,-6.5507,-6.532,-6.4936,-6.4691,-6.4382,-6.4132,-6.388,-6.3766,-6.3481,-6.3367,-6.3309,-6.3194,-6.3021,-6.2996,-6.2971,-6.3091,-6.3091,-6.3472,-6.3999,-6.4308,-6.458,-6.4964,-6.5176,-7.7252,-7.8124,-7.8718,-7.9509,-8.0322,-8.1141,-8.1452,-8.1427,-8.14,-8.1347,-8.1358,-8.1277,-8.1205,-8.1092,-8.1016,-8.0968,-8.0926,-8.0877,-8.0788,-8.0737,-8.0667,-8.0596,-8.1059,-8.2053,-8.2854,-8.2792,-8.4407,-8.498,-8.4772,-8.4417,-8.4038,-8.3811,-8.363,-8.3395,-8.3194,-8.3135,-8.3076,-8.2911,-8.2788,-8.2628,-8.2502,-8.238,-8.2251,-8.2051,-8.1812,-8.1419,-8.0515,-7.9615,-7.8683,-7.7715,-7.6782,-7.611,-7.5832,-7.5691,-7.5407,-7.4934,-7.4673,-7.4332,-7.3667,-7.3258,-7.2846,-7.2578,-7.2485,-7.2619,-7.2986,-7.3082,-7.3424,-7.4207,-7.415,-7.408,-7.4191,-7.4395,-7.489,-7.5283,-7.5459,-7.5811,-7.6082,-7.5986,-7.6005,-7.5957,-7.5624,-7.5104,-7.4198,-7.342,-7.2661,-7.1969,-7.1457,-7.0894,-6.995,-6.8844,-6.792,-6.6986,-6.6459,-6.6246,-6.5785,-6.5406,-6.5046,-6.4771,-6.4468,-6.4132,-6.3906,-6.3709,-6.3538,-6.3424,-6.3342,-6.3438,-6.3592,-6.3771,-6.3951,-6.4516,-6.5047,-6.5577,-6.5985,-6.631,-6.6504,-7.7877,-7.9377,-7.9265,-7.9747,-8.0553,-8.1349,-8.1646,-8.1602,-8.1573,-8.1516,-8.1427,-8.1333,-8.1305,-8.1277,-8.1263,-8.1249,-8.1234,-8.1062,-8.1,-8.0937,-8.0877,-8.0941,-8.1504,-8.2406,-8.3348,-8.3448,-8.4767,-8.5357,-8.5291,-8.504,-8.4703,-8.4405,-8.4153,-8.3918,-8.373,-8.362,-8.3508,-8.3318,-8.3143,-8.2964,-8.2874,-8.2721,-8.2534,-8.2407,-8.227,-8.1847,-8.0715,-7.9877,-7.8865,-7.7866,-7.7073,-7.661,-7.6378,-7.6278,-7.5969,-7.5655,-7.5657,-7.5405,-7.4961,-7.4053,-7.3502,-7.3344,-7.3384,-7.3594,-7.3937,-7.4076,-7.4524,-7.5242,-7.5322,-7.5525,-7.5931,-7.6449,-7.6605,-7.6679,-7.6801,-7.7024,-7.7295,-7.7333,-7.7352,-7.757,-7.7217,-7.6511,-7.6193,-7.5314,-7.4131,-7.3371,-7.2561,-7.2002,-7.1308,-7.0282,-6.9399,-6.8544,-6.774,-6.7269,-6.6733,-6.6299,-6.5969,-6.5592,-6.5266,-6.4826,-6.4493,-6.4244,-6.4205,-6.4042,-6.4108,-6.4118,-6.4243,-6.4544,-6.4964,-6.5532,-6.6129,-6.66,-6.7189,-6.7567,-6.7737,-7.8031,-7.9548,-7.9494,-8.0254,-8.1516,-8.1709,-8.1783,-8.1756,-8.1767,-8.1685,-8.1558,-8.1502,-8.1491,-8.1478,-8.144,-8.14,-8.1347,-8.1305,-8.1249,-8.1398,-8.1554,-8.1816,-8.2401,-8.3204,-8.4212,-8.4317,-8.5222,-8.5742,-8.5609,-8.5493,-8.5451,-8.5122,-8.4703,-8.4405,-8.423,-8.405,-8.3865,-8.3794,-8.3602,-8.3424,-8.3289,-8.3047,-8.2837,-8.2752,-8.2633,-8.1771,-8.0483,-8.0047,-7.8898,-7.7861,-7.7249,-7.6939,-7.6806,-7.6639,-7.6512,-7.6386,-7.6574,-7.6654,-7.6195,-7.5103,-7.4233,-7.4507,-7.4774,-7.515,-7.5385,-7.5639,-7.5893,-7.6345,-7.6828,-7.7102,-7.7016,-7.7652,-7.8047,-7.8088,-7.8196,-7.8385,-7.8424,-7.8477,-7.8428,-7.8428,-7.8059,-7.7487,-7.7352,-7.7202,-7.5879,-7.4709,-7.3897,-7.3105,-7.2431,-7.1788,-7.0926,-7.0113,-6.9339,-6.8793,-6.8267,-6.7616,-6.6933,-6.6596,-6.6233,-6.5895,-6.5582,-6.5299,-6.5233,-6.5041,-6.5059,-6.5251,-6.5407,-6.553,-6.5832,-6.6221,-6.6879,-6.7595,-6.8187,-6.8806,-6.8852,-7.7935,-7.9221,-7.9522,-8.0618,-8.199,-8.2039,-8.1966,-8.1951,-8.1937,-8.183,-8.1757,-8.1706,-8.1652,-8.163,-8.1608,-8.155,-8.1618,-8.1736,-8.1801,-8.2134,-8.253,-8.2873,-8.3355,-8.3973,-8.4757,-8.5022,-8.5565,-8.5975,-8.5887,-8.5834,-8.5742,-8.5552,-8.5311,-8.4975,-8.4609,-8.4405,-8.4255,-8.4205,-8.4076,-8.3945,-8.3784,-8.3508,-8.3252,-8.3076,-8.2934,-8.216,-8.0973,-8.0254,-7.932,-7.8247,-7.7463,-7.7186,-7.7056,-7.6966,-7.6979,-7.7211,-7.7513,-7.7816,-7.7407,-7.6589,-7.5631,-7.5889,-7.6313,-7.6784,-7.7151,-7.7348,-7.7702,-7.7821,-7.8335,-7.8626,-7.8384,-7.9003,-7.9274,-7.9269,-7.9536,-7.9712,-7.9532,-7.9503,-7.9352,-7.9235,-7.8831,-7.8462,-7.8209,-7.7991,-7.7033,-7.5792,-7.4892,-7.4295,-7.3934,-7.3225,-7.2465,-7.1672,-7.0978,-7.0499,-6.9968,-6.9316,-6.8743,-6.8444,-6.7991,-6.7363,-6.6972,-6.6751,-6.6349,-6.602,-6.6101,-6.6478,-6.6577,-6.6579,-6.6583,-6.6701,-6.7567,-6.8645,-6.9064,-6.956,-6.9858,-7.7644,-7.8502,-7.9363,-8.0631,-8.207,-8.2133,-8.2073,-8.2067,-8.2071,-8.2019,-8.1906,-8.1822,-8.1815,-8.1815,-8.1815,-8.1854,-8.2027,-8.2488,-8.2782,-8.2983,-8.3605,-8.3836,-8.4207,-8.4744,-8.5342,-8.5342,-8.5822,-8.6207,-8.6094,-8.6077,-8.5992,-8.5887,-8.5704,-8.5455,-8.5122,-8.4901,-8.4787,-8.4741,-8.4527,-8.4405,-8.4281,-8.396,-8.373,-8.3564,-8.3281,-8.2556,-8.163,-8.0637,-7.9704,-7.8802,-7.7878,-7.756,-7.7493,-7.7389,-7.7594,-7.8117,-7.8208,-7.8548,-7.8999,-7.8206,-7.7771,-7.7542,-7.7912,-7.8315,-7.8407,-7.8864,-7.9437,-7.9433,-8.0011,-8.0175,-8.0299,-8.0409,-8.0536,-8.0578,-8.085,-8.0844,-8.0666,-8.0375,-8.019,-8.0024,-7.9756,-7.9454,-7.9118,-7.868,-7.7905,-7.6898,-7.5893,-7.5392,-7.5161,-7.4497,-7.3654,-7.3174,-7.2465,-7.2052,-7.1474,-7.1007,-7.0485,-7.0209,-6.9664,-6.8882,-6.8467,-6.8287,-6.7808,-6.7229,-6.7408,-6.7935,-6.7775,-6.7574,-6.788,-6.8299,-6.895,-6.9692,-7.0051,-7.029,-7.0435,-7.7616,-7.8476,-7.9336,-8.035,-8.1395,-8.199,-8.2166,-8.2159,-8.2114,-8.2067,-8.2026,-8.2012,-8.1998,-8.1998,-8.2061,-8.2272,-8.2712,-8.285,-8.3223,-8.3949,-8.4688,-8.4901,-8.5202,-8.5643,-8.6041,-8.6142,-8.6423,-8.6472,-8.6384,-8.6339,-8.6293,-8.6214,-8.6026,-8.5834,-8.5551,-8.527,-8.5143,-8.51,-8.4924,-8.4787,-8.4741,-8.4392,-8.4141,-8.4128,-8.3784,-8.3135,-8.2249,-8.124,-8.0287,-7.9393,-7.847,-7.7976,-7.7983,-7.7952,-7.8443,-7.8976,-7.925,-8.0369,-8.0758,-8.0466,-7.9863,-7.9575,-7.9673,-8.0161,-8.0363,-8.095,-8.1083,-8.1076,-8.1592,-8.1653,-8.1515,-8.2057,-8.2182,-8.1989,-8.2095,-8.1851,-8.1629,-8.1235,-8.096,-8.0877,-8.0678,-8.0463,-8.0243,-7.9688,-7.8929,-7.8288,-7.7348,-7.6627,-7.626,-7.5493,-7.4679,-7.443,-7.3934,-7.3454,-7.2976,-7.2399,-7.1935,-7.1552,-7.0931,-7.0157,-6.9849,-6.9787,-6.9405,-6.8837,-6.9089,-6.9334,-6.9093,-6.9053,-6.9611,-7.0122,-7.0383,-7.0423,-7.0534,-7.0684,-7.0739,-7.744,-7.8067,-7.9207,-8.0032,-8.0701,-8.1752,-8.2246,-8.22,-8.217,-8.214,-8.2123,-8.2143,-8.2128,-8.2206,-8.2507,-8.2719,-8.3318,-8.4005,-8.4287,-8.5024,-8.5738,-8.6,-8.626,-8.6467,-8.6576,-8.6698,-8.6649,-8.661,-8.6532,-8.6542,-8.6472,-8.6384,-8.6293,-8.6149,-8.5887,-8.5685,-8.5473,-8.5433,-8.5311,-8.5245,-8.5078,-8.4878,-8.4647,-8.4503,-8.418,-8.3708,-8.2949,-8.1985,-8.0926,-8.0042,-7.9343,-7.871,-7.8792,-7.9039,-7.9579,-8.0124,-8.0818,-8.1833,-8.2194,-8.2251,-8.1729,-8.1559,-8.1816,-8.1994,-8.224,-8.2658,-8.2632,-8.275,-8.3157,-8.3329,-8.3387,-8.3937,-8.3947,-8.3763,-8.3751,-8.3561,-8.323,-8.2927,-8.2691,-8.2527,-8.1964,-8.1751,-8.1234,-8.0697,-8.0088,-7.9464,-7.8842,-7.8152,-7.7348,-7.6526,-7.5826,-7.5527,-7.5127,-7.4612,-7.415,-7.3738,-7.3309,-7.2928,-7.2414,-7.1858,-7.1493,-7.1475,-7.1006,-7.0526,-7.0545,-7.0564,-7.0442,-7.0568,-7.1135,-7.1261,-7.1252,-7.1205,-7.1088,-7.1138,-7.1323,-7.7098,-7.7335,-7.8989,-7.9697,-8.0018,-8.1562,-8.2262,-8.2293,-8.2205,-8.22,-8.2198,-8.2182,-8.2293,-8.2446,-8.3096,-8.3545,-8.3913,-8.5175,-8.5654,-8.604,-8.6561,-8.6841,-8.6917,-8.6932,-8.6933,-8.6904,-8.6892,-8.6827,-8.6704,-8.6698,-8.6649,-8.6542,-8.6457,-8.6369,-8.6207,-8.6043,-8.5831,-8.5779,-8.5648,-8.5551,-8.5431,-8.5249,-8.5078,-8.4924,-8.4633,-8.4403,-8.3816,-8.3035,-8.2215,-8.1495,-8.0997,-8.0403,-8.0191,-8.0291,-8.0955,-8.1659,-8.2264,-8.2839,-8.3443,-8.3464,-8.3771,-8.3573,-8.3258,-8.3372,-8.3629,-8.4059,-8.4266,-8.4394,-8.4776,-8.5217,-8.5621,-8.571,-8.5762,-8.5799,-8.5903,-8.5667,-8.5355,-8.5119,-8.4936,-8.4495,-8.3786,-8.3157,-8.2155,-8.1503,-8.1318,-8.0604,-8.0014,-7.9464,-7.8589,-7.7513,-7.6927,-7.668,-7.6212,-7.5677,-7.528,-7.5134,-7.502,-7.4805,-7.4506,-7.4052,-7.3591,-7.3175,-7.2948,-7.2531,-7.199,-7.1847,-7.2059,-7.2351,-7.2748,-7.2764,-7.2768,-7.2296,-7.2217,-7.2103,-7.2154,-7.697,-7.7131,-7.891,-7.9635,-7.9888,-8.149,-8.2257,-8.2304,-8.2265,-8.2265,-8.2263,-8.2257,-8.2529,-8.3192,-8.3456,-8.4265,-8.5113,-8.5846,-8.6378,-8.6775,-8.7047,-8.7181,-8.7228,-8.7142,-8.7113,-8.7082,-8.7042,-8.7019,-8.6982,-8.6902,-8.6782,-8.6647,-8.6623,-8.6544,-8.6447,-8.6345,-8.6191,-8.6026,-8.5887,-8.5797,-8.5723,-8.5552,-8.5471,-8.527,-8.5078,-8.4901,-8.4551,-8.3723,-8.2949,-8.2661,-8.1832,-8.1215,-8.1189,-8.1666,-8.2398,-8.3418,-8.3756,-8.3903,-8.4479,-8.4636,-8.4907,-8.5441,-8.5199,-8.4922,-8.5079,-8.5446,-8.5917,-8.6128,-8.6302,-8.6686,-8.7105,-8.7272,-8.7326,-8.7366,-8.7413,-8.7244,-8.69,-8.6595,-8.6418,-8.5903,-8.5164,-8.4494,-8.3462,-8.2894,-8.258,-8.1763,-8.1119,-8.0569,-7.98,-7.8686,-7.7968,-7.7735,-7.7299,-7.6763,-7.6901,-7.6822,-7.6774,-7.6692,-7.6208,-7.5855,-7.5584,-7.5172,-7.4971,-7.4482,-7.389,-7.3776,-7.3905,-7.423,-7.4536,-7.4785,-7.4712,-7.3974,-7.3343,-7.3391,-7.3213,-7.6487,-7.7039,-7.8767,-7.9901,-8.0724,-8.1689,-8.2195,-8.2224,-8.2244,-8.2254,-8.2261,-8.2264,-8.2772,-8.3554,-8.3983,-8.4762,-8.5971,-8.6474,-8.6936,-8.7118,-8.7329,-8.7354,-8.7334,-8.7268,-8.7242,-8.7214,-8.7222,-8.7181,-8.7137,-8.7046,-8.6933,-8.6874,-8.6838,-8.6735,-8.6661,-8.6559,-8.6451,-8.6262,-8.6126,-8.5992,-8.5905,-8.5834,-8.5742,-8.5628,-8.5413,-8.5291,-8.5126,-8.4211,-8.3846,-8.3625,-8.2769,-8.2696,-8.276,-8.3288,-8.379,-8.4637,-8.4882,-8.5193,-8.5676,-8.5704,-8.6274,-8.6845,-8.7144,-8.7166,-8.7001,-8.7156,-8.7487,-8.7741,-8.7848,-8.81,-8.842,-8.874,-8.8758,-8.8811,-8.869,-8.8644,-8.8279,-8.7942,-8.7551,-8.7043,-8.6497,-8.5905,-8.5294,-8.4648,-8.3876,-8.3033,-8.2291,-8.171,-8.0871,-7.9789,-7.9124,-7.8661,-7.8273,-7.7886,-7.8093,-7.808,-7.7846,-7.7563,-7.7161,-7.6961,-7.711,-7.6789,-7.6262,-7.5944,-7.5718,-7.5581,-7.5538,-7.608,-7.6432,-7.6609,-7.6709,-7.6295,-7.5652,-7.5081,-7.4813,-7.5892,-7.6833,-7.8598,-8.0387,-8.1929,-8.2052,-8.2091,-8.2065,-8.2118,-8.217,-8.2185,-8.2193,-8.2708,-8.3577,-8.425,-8.5112,-8.6129,-8.6795,-8.7187,-8.742,-8.7376,-8.741,-8.736,-8.7345,-8.7326,-8.7308,-8.7321,-8.7286,-8.7247,-8.7181,-8.7113,-8.7105,-8.698,-8.6904,-8.687,-8.6799,-8.6708,-8.6584,-8.6366,-8.6231,-8.6126,-8.6065,-8.5979,-8.5834,-8.5742,-8.5648,-8.5511,-8.5159,-8.4779,-8.4464,-8.4278,-8.4264,-8.4505,-8.4764,-8.5235,-8.5698,-8.6078,-8.6458,-8.6892,-8.7112,-8.7667,-8.8322,-8.8893,-8.9089,-8.8962,-8.8463,-8.8579,-8.8947,-8.9093,-8.9384,-8.9709,-8.9926,-8.9991,-9.0017,-8.9972,-8.9853,-8.9694,-8.9333,-8.8978,-8.8553,-8.8199,-8.7579,-8.6672,-8.6028,-8.5446,-8.4392,-8.3771,-8.3158,-8.2257,-8.1211,-8.0508,-7.9951,-7.9401,-7.908,-7.885,-7.8819,-7.8567,-7.8249,-7.8066,-7.8101,-7.8287,-7.7934,-7.7362,-7.7285,-7.7245,-7.7145,-7.7162,-7.763,-7.8014,-7.8355,-7.8467,-7.857,-7.8043,-7.7246,-7.6484,-7.5739,-7.6718,-7.8496,-8.024,-8.1761,-8.1887,-8.1887,-8.1848,-8.1881,-8.2,-8.2104,-8.221,-8.2659,-8.3536,-8.4411,-8.5236,-8.6137,-8.6882,-8.7282,-8.7369,-8.7376,-8.7381,-8.7422,-8.7378,-8.7372,-8.7405,-8.7389,-8.7362,-8.7291,-8.7247,-8.7247,-8.7222,-8.7135,-8.7082,-8.7055,-8.698,-8.6953,-8.6804,-8.6672,-8.6492,-8.636,-8.6308,-8.623,-8.6077,-8.5975,-8.5887,-8.576,-8.559,-8.5436,-8.532,-8.5176,-8.5312,-8.5705,-8.6017,-8.6577,-8.7221,-8.7506,-8.7903,-8.8259,-8.8645,-8.9272,-8.9436,-8.9872,-9.0416,-9.0405,-8.9693,-8.9523,-9.0005,-9.0337,-9.0667,-9.0849,-9.0995,-9.1103,-9.1098,-9.113,-9.1053,-9.0975,-9.0628,-9.0353,-9.0042,-8.9765,-8.9049,-8.8147,-8.7465,-8.6845,-8.6301,-8.579,-8.5137,-8.4207,-8.3263,-8.236,-8.1694,-8.0829,-8.0346,-7.9945,-7.9627,-7.9442,-7.9395,-7.9347,-7.9398,-7.9465,-7.9061,-7.8606,-7.877,-7.8827,-7.8664,-7.8717,-7.9032,-7.943,-7.9875,-8.01,-8.021,-8.0189,-7.9483,-7.8595,-7.5252,-7.6529,-7.8286,-8.0069,-8.1469,-8.1674,-8.1685,-8.1706,-8.1706,-8.1776,-8.1898,-8.2046,-8.253,-8.342,-8.4303,-8.5166,-8.6024,-8.6882,-8.7217,-8.7319,-8.7333,-8.735,-8.7366,-8.7338,-8.742,-8.7422,-8.7417,-8.7366,-8.7347,-8.7333,-8.7354,-8.733,-8.7258,-8.7214,-8.7202,-8.7174,-8.7113,-8.6972,-8.6904,-8.6827,-8.661,-8.6542,-8.6428,-8.6269,-8.6245,-8.6187,-8.5992,-8.587,-8.5815,-8.5952,-8.5953,-8.6543,-8.701,-8.7535,-8.7908,-8.8473,-8.8985,-8.9527,-8.9776,-9.0249,-9.0783,-9.0894,-9.1019,-9.1677,-9.2022,-9.1428,-9.1087,-9.1427,-9.1287,-9.1509,-9.14,-9.1473,-9.1473,-9.1509,-9.1508,-9.1433,-9.1282,-9.1016,-9.0825,-9.0746,-9.0516,-9.0328,-8.9469,-8.8798,-8.8223,-8.7598,-8.7208,-8.6631,-8.5824,-8.5137,-8.4292,-8.3404,-8.2531,-8.1496,-8.078,-8.0516,-8.0353,-8.0458,-8.058,-8.0242,-8.0006,-7.9972,-7.987,-7.9885,-7.9931,-8.0062,-8.0153,-8.0475,-8.0967,-8.1459,-8.1689,-8.1787,-8.1679,-8.1467,-8.0509,-7.4848,-7.6623,-7.8155,-7.9842,-8.1324,-8.1491,-8.1516,-8.1565,-8.1565,-8.1596,-8.1667,-8.1756,-8.2373,-8.3148,-8.3987,-8.4883,-8.5701,-8.6363,-8.6832,-8.7225,-8.7276,-8.7273,-8.7229,-8.718,-8.7082,-8.7174,-8.7302,-8.7343,-8.7381,-8.7376,-8.7368,-8.7394,-8.7333,-8.7304,-8.7316,-8.7292,-8.7241,-8.7167,-8.7113,-8.715,-8.7,-8.6866,-8.6816,-8.6721,-8.6728,-8.6647,-8.6538,-8.6456,-8.6372,-8.6537,-8.6984,-8.7581,-8.8155,-8.8685,-8.921,-8.9724,-9.0441,-9.0835,-9.113,-9.1643,-9.2117,-9.2437,-9.2621,-9.2825,-9.3146,-9.297,-9.2636,-9.2399,-9.2264,-9.2055,-9.1947,-9.184,-9.184,-9.1803,-9.1767,-9.173,-9.1546,-9.1396,-9.132,-9.1244,-9.1168,-9.1055,-9.0609,-8.9978,-8.9524,-8.8874,-8.8378,-8.7777,-8.7199,-8.6674,-8.6028,-8.5083,-8.4131,-8.3079,-8.2108,-8.1708,-8.1733,-8.1539,-8.161,-8.107,-8.0699,-8.0987,-8.0987,-8.0749,-8.0883,-8.1133,-8.1533,-8.1859,-8.2355,-8.2804,-8.2754,-8.2731,-8.2661,-8.2395,-8.205,-7.5451,-7.8243,-7.8604,-7.9737,-8.1217,-8.1333,-8.1347,-8.1347,-8.136,-8.14,-8.1452,-8.149,-8.1785,-8.2141,-8.2997,-8.3861,-8.4755,-8.561,-8.648,-8.7051,-8.7106,-8.7156,-8.6935,-8.6478,-8.6332,-8.6555,-8.6962,-8.7329,-8.7374,-8.738,-8.7422,-8.7416,-8.7415,-8.7364,-8.7381,-8.7365,-8.7343,-8.7292,-8.7376,-8.7429,-8.7994,-8.7915,-8.7774,-8.7938,-8.8261,-8.8397,-8.8465,-8.839,-8.8297,-8.8276,-8.8256,-8.8725,-8.9304,-8.9803,-9.028,-9.1097,-9.1828,-9.2032,-9.2395,-9.301,-9.344,-9.3353,-9.3519,-9.3766,-9.3873,-9.3635,-9.332,-9.3067,-9.2876,-9.2476,-9.2303,-9.2127,-9.2056,-9.1984,-9.1948,-9.1876,-9.173,-9.1694,-9.162,-9.1546,-9.1433,-9.1284,-9.1133,-9.0725,-9.0648,-9.0193,-8.9995,-8.9397,-8.8726,-8.8254,-8.7692,-8.6845,-8.5914,-8.5094,-8.4297,-8.3486,-8.3266,-8.3041,-8.271,-8.2187,-8.2037,-8.2293,-8.2242,-8.18,-8.1952,-8.2288,-8.2672,-8.2937,-8.3302,-8.3544,-8.3561,-8.3576,-8.3499,-8.3332,-8.2907]},{"header":{"parameterUnit":"m.s-1","parameterCategory":1,"la1":31.0,"la2":29.5877,"lo1":-88.7671,"lo2":-86.6584,"dx":0.0162,"dy":0.0185,"nx":115,"ny":88,"refTime":"2023-01-20T06:00:00:Z","depth":0,"parameterNumber":3,"parameterNumberName":"V-component_of_WINDS"},"data":[0.0,0.0,0.0,0.0,0.0,0.0,0.0,0.0,0.0,0.0,0.0,0.0,0.0,0.0,0.0,0.0,0.0,0.0,0.0,0.0,0.0,0.0,0.0,0.0,0.0,0.0,0.0,0.0,0.0,0.0,0.0,0.0,0.0,0.0,0.0,0.0,0.0,0.0,0.0,0.0,0.0,0.0,0.0,0.0,0.0,0.0,0.0,0.0,0.0,0.0,0.0,0.0,0.0,0.0,0.0,0.0,0.0,0.0,0.0,0.0,0.0,0.0,0.0,0.0,0.0,0.0,0.0,0.0,0.0,0.0,0.0,0.0,0.0,0.0,0.0,0.0,0.0,0.0,0.0,0.0,0.0,0.0,0.0,0.0,0.0,0.0,0.0,0.0,0.0,0.0,0.0,0.0,0.0,0.0,0.0,0.0,0.0,0.0,0.0,0.0,0.0,0.0,0.0,0.0,0.0,0.0,0.0,0.0,0.0,0.0,0.0,0.0,0.0,0.0,0.0,0.0,0.0,0.0,0.0,0.0,0.0,0.0,0.0,0.0,0.0,0.0,0.0,0.0,0.0,0.0,0.0,0.0,0.0,0.0,0.0,0.0,0.0,0.0,0.0,0.0,0.0,0.0,0.0,0.0,0.0,0.0,0.0,0.0,0.0,0.0,0.0,0.0,0.0,0.0,0.0,0.0,0.0,0.0,0.0,0.0,0.0,0.0,0.0,0.0,0.0,0.0,0.0,0.0,0.0,0.0,0.0,0.0,0.0,0.0,0.0,0.0,0.0,0.0,0.0,0.0,0.0,0.0,0.0,0.0,0.0,0.0,0.0,0.0,0.0,0.0,0.0,0.0,0.0,0.0,0.0,0.0,0.0,0.0,0.0,0.0,0.0,0.0,0.0,0.0,0.0,0.0,0.0,0.0,0.0,0.0,0.0,0.0,0.0,0.0,0.0,0.0,0.0,0.0,0.0,0.0,0.0,0.0,0.0,0.0,0.0,0.0,0.0,0.0,0.0,0.0,0.0,0.0,0.0,0.0,0.0,0.0,0.0,0.0,0.0,0.0,0.0,0.0,0.0,0.0,0.0,0.0,0.0,0.0,0.0,0.0,0.0,0.0,0.0,0.0,0.0,0.0,0.0,0.0,0.0,0.0,0.0,0.0,0.0,0.0,0.0,0.0,0.0,0.0,0.0,0.0,0.0,0.0,0.0,0.0,0.0,0.0,0.0,0.0,0.0,0.0,0.0,0.0,0.0,0.0,0.0,0.0,0.0,0.0,0.0,0.0,0.0,0.0,0.0,0.0,0.0,0.0,0.0,0.0,0.0,0.0,0.0,0.0,0.0,0.0,0.0,0.0,0.0,0.0,0.0,0.0,0.0,0.0,0.0,0.0,0.0,0.0,0.0,0.0,0.0,0.0,0.0,0.0,0.0,0.0,0.0,0.0,0.0,0.0,0.0,0.0,0.0,0.0,0.0,0.0,0.0,0.0,0.0,0.0,0.0,0.0,0.0,0.0,0.0,0.0,0.0,0.0,0.0,0.0,0.0,0.0,0.0,0.0,0.0,0.0,0.0,0.0,0.0,0.0,0.0,0.0,0.0,0.0,0.0,0.0,0.0,0.0,0.0,0.0,0.0,0.0,0.0,0.0,0.0,0.0,0.0,0.0,0.0,0.0,0.0,0.0,0.0,0.0,0.0,0.0,0.0,0.0,0.0,0.0,0.0,0.0,0.0,0.0,0.0,0.0,0.0,0.0,0.0,0.0,0.0,0.0,0.0,0.0,0.0,0.0,0.0,0.0,0.0,0.0,0.0,0.0,0.0,0.0,0.0,0.0,0.0,0.0,0.0,0.0,0.0,0.0,0.0,0.0,0.0,0.0,0.0,0.0,0.0,0.0,0.0,0.0,0.0,0.0,0.0,0.0,0.0,0.0,0.0,0.0,0.0,0.0,0.0,0.0,0.0,0.0,0.0,0.0,0.0,0.0,0.0,0.0,0.0,0.0,0.0,0.0,0.0,0.0,0.0,0.0,0.0,0.0,0.0,0.0,0.0,0.0,0.0,0.0,0.0,0.0,0.0,0.0,0.0,0.0,0.0,0.0,0.0,0.0,0.0,0.0,0.0,0.0,0.0,0.0,0.0,0.0,0.0,0.0,0.0,0.0,0.0,0.0,0.0,0.0,0.0,0.0,0.0,0.0,0.0,0.0,0.0,0.0,0.0,0.0,0.0,0.0,0.0,0.0,0.0,0.0,0.0,0.0,0.0,0.0,0.0,0.0,0.0,0.0,0.0,0.0,0.0,0.0,0.0,0.0,0.0,0.0,0.0,0.0,0.0,0.0,0.0,0.0,0.0,0.0,0.0,0.0,0.0,0.0,0.0,0.0,0.0,0.0,0.0,0.0,0.0,0.0,0.0,0.0,0.0,0.0,0.0,0.0,0.0,0.0,0.0,0.0,0.0,0.0,0.0,0.0,0.0,0.0,0.0,0.0,0.0,0.0,0.0,0.0,0.0,0.0,0.0,0.0,0.0,0.0,0.0,0.0,0.0,0.0,0.0,0.0,0.0,0.0,0.0,0.0,0.0,0.0,0.0,0.0,0.0,0.0,0.0,0.0,0.0,0.0,0.0,0.0,0.0,0.0,0.0,0.0,0.0,0.0,0.0,0.0,0.0,0.0,0.0,0.0,0.0,0.0,0.0,0.0,0.0,0.0,0.0,0.0,0.0,0.0,0.0,0.0,0.0,0.0,0.0,0.0,0.0,0.0,0.0,0.0,0.0,0.0,0.0,0.0,0.0,0.0,0.0,0.0,0.0,0.0,0.0,0.0,0.0,0.0,0.0,0.0,0.0,0.0,0.0,0.0,0.0,0.0,0.0,0.0,0.0,0.0,0.0,0.0,0.0,0.0,0.0,0.0,0.0,0.0,0.0,0.0,0.0,0.0,0.0,0.0,0.0,0.0,0.0,0.0,0.0,0.0,0.0,0.0,0.0,0.0,0.0,0.0,0.0,0.0,0.0,0.0,0.0,0.0,0.0,0.0,0.0,0.0,0.0,0.0,0.0,0.0,0.0,0.0,0.0,0.0,0.0,0.0,0.0,0.0,0.0,0.0,0.0,0.0,0.0,0.0,0.0,0.0,0.0,0.0,0.0,0.0,0.0,0.0,0.0,0.0,0.0,0.0,0.0,0.0,0.0,0.0,0.0,0.0,0.0,0.0,0.0,0.0,0.0,0.0,0.0,0.0,0.0,0.0,0.0,0.0,0.0,0.0,0.0,0.0,0.0,0.0,0.0,0.0,0.0,0.0,0.0,0.0,0.0,0.0,0.0,0.0,0.0,0.0,0.0,0.0,0.0,0.0,0.0,0.0,0.0,0.0,0.0,0.0,0.0,0.0,0.0,0.0,0.0,0.0,0.0,0.0,0.0,0.0,0.0,0.0,0.0,0.0,0.0,0.0,0.0,0.0,0.0,0.0,0.0,0.0,0.0,0.0,0.0,0.0,0.0,0.0,0.0,0.0,0.0,0.0,0.0,0.0,0.0,0.0,0.0,0.0,0.0,0.0,0.0,0.0,0.0,0.0,0.0,0.0,0.0,0.0,0.0,0.0,0.0,0.0,0.0,0.0,0.0,0.0,0.0,0.0,0.0,0.0,0.0,0.0,0.0,0.0,0.0,0.0,0.0,0.0,0.0,0.0,0.0,0.0,0.0,0.0,0.0,0.0,0.0,0.0,0.0,0.0,0.0,0.0,0.0,0.0,0.0,0.0,0.0,0.0,0.0,0.0,0.0,0.0,0.0,0.0,0.0,0.0,0.0,0.0,0.0,0.0,0.0,0.0,0.0,0.0,0.0,0.0,0.0,0.0,0.0,0.0,0.0,0.0,0.0,0.0,0.0,0.0,0.0,0.0,0.0,0.0,0.0,0.0,0.0,0.0,0.0,0.0,0.0,0.0,0.0,0.0,0.0,0.0,0.0,0.0,0.0,0.0,0.0,0.0,0.0,0.0,0.0,0.0,0.0,0.0,0.0,0.0,0.0,0.0,0.0,0.0,0.0,0.0,0.0,0.0,0.0,0.0,0.0,0.0,0.0,0.0,0.0,0.0,0.0,0.0,0.0,0.0,0.0,0.0,0.0,0.0,0.0,0.0,0.0,0.0,0.0,0.0,0.0,0.0,0.0,0.0,0.0,0.0,0.0,0.0,0.0,0.0,0.0,0.0,0.0,0.0,0.0,0.0,0.0,0.0,0.0,0.0,0.0,0.0,5.3203,0.0,0.0,0.0,5.3203,0.0,0.0,0.0,0.0,0.0,0.0,0.0,0.0,0.0,0.0,0.0,0.0,0.0,0.0,0.0,0.0,0.0,0.0,0.0,0.0,0.0,0.0,0.0,0.0,0.0,0.0,0.0,0.0,0.0,0.0,0.0,0.0,0.0,0.0,0.0,0.0,0.0,0.0,0.0,0.0,0.0,0.0,0.0,0.0,0.0,0.0,0.0,0.0,0.0,0.0,0.0,0.0,0.0,0.0,0.0,0.0,0.0,0.0,0.0,0.0,0.0,0.0,0.0,0.0,0.0,0.0,0.0,0.0,0.0,0.0,0.0,0.0,0.0,0.0,0.0,0.0,0.0,0.0,0.0,0.0,0.0,0.0,0.0,0.0,0.0,0.0,0.0,0.0,0.0,0.0,0.0,0.0,0.0,0.0,0.0,0.0,0.0,0.0,0.0,0.0,0.0,0.0,0.0,0.0,0.0,0.0,0.0,0.0,0.0,0.0,5.3203,5.3203,5.3203,5.3203,5.3203,0.0,0.0,0.0,0.0,0.0,0.0,0.0,0.0,0.0,0.0,0.0,0.0,0.0,0.0,0.0,0.0,0.0,0.0,0.0,0.0,0.0,0.0,0.0,0.0,0.0,0.0,0.0,0.0,0.0,0.0,0.0,0.0,0.0,0.0,0.0,0.0,0.0,0.0,0.0,0.0,0.0,0.0,0.0,0.0,0.0,0.0,0.0,0.0,0.0,0.0,0.0,0.0,0.0,0.0,0.0,0.0,0.0,0.0,0.0,0.0,0.0,0.0,0.0,0.0,0.0,0.0,0.0,0.0,0.0,0.0,0.0,0.0,0.0,0.0,0.0,0.0,0.0,0.0,0.0,0.0,0.0,0.0,0.0,0.0,0.0,0.0,0.0,0.0,0.0,0.0,0.0,0.0,0.0,0.0,0.0,0.0,0.0,0.0,0.0,0.0,0.0,0.0,0.0,0.0,0.0,0.0,0.0,0.0,0.0,0.0,0.0,0.0,5.3203,5.3203,5.3203,0.0,0.0,0.0,0.0,0.0,0.0,0.0,0.0,0.0,0.0,0.0,0.0,0.0,0.0,0.0,0.0,0.0,0.0,0.0,0.0,0.0,0.0,0.0,0.0,0.0,0.0,0.0,0.0,0.0,0.0,0.0,0.0,0.0,0.0,0.0,0.0,0.0,0.0,0.0,0.0,0.0,0.0,0.0,0.0,0.0,0.0,0.0,0.0,0.0,0.0,0.0,0.0,0.0,0.0,0.0,0.0,0.0,0.0,0.0,0.0,0.0,0.0,0.0,0.0,0.0,0.0,0.0,0.0,0.0,0.0,0.0,0.0,0.0,0.0,0.0,0.0,0.0,0.0,0.0,0.0,0.0,0.0,0.0,0.0,0.0,0.0,0.0,0.0,0.0,0.0,0.0,0.0,0.0,0.0,0.0,0.0,0.0,0.0,0.0,0.0,0.0,0.0,0.0,0.0,0.0,0.0,0.0,0.0,0.0,0.0,5.3203,5.3203,5.3203,0.0,5.3203,0.0,0.0,0.0,0.0,0.0,0.0,0.0,0.0,0.0,0.0,0.0,0.0,0.0,0.0,0.0,0.0,0.0,0.0,0.0,0.0,0.0,0.0,0.0,0.0,0.0,0.0,0.0,0.0,0.0,0.0,0.0,0.0,0.0,0.0,0.0,0.0,0.0,0.0,0.0,0.0,0.0,0.0,0.0,0.0,0.0,0.0,0.0,0.0,0.0,0.0,0.0,0.0,0.0,0.0,0.0,0.0,0.0,0.0,0.0,0.0,0.0,0.0,0.0,0.0,0.0,0.0,0.0,0.0,0.0,0.0,0.0,0.0,0.0,0.0,0.0,0.0,0.0,0.0,0.0,0.0,0.0,0.0,0.0,0.0,0.0,0.0,0.0,0.0,0.0,0.0,0.0,0.0,0.0,0.0,0.0,0.0,0.0,0.0,0.0,0.0,0.0,0.0,0.0,0.0,0.0,0.0,0.0,0.0,0.0,0.0,5.3203,5.3203,5.3203,5.3146,0.0,0.0,0.0,0.0,0.0,0.0,0.0,0.0,0.0,0.0,0.0,0.0,0.0,0.0,0.0,0.0,0.0,0.0,0.0,0.0,0.0,0.0,0.0,0.0,0.0,0.0,0.0,0.0,0.0,0.0,0.0,0.0,0.0,0.0,0.0,0.0,0.0,0.0,0.0,0.0,0.0,0.0,0.0,0.0,0.0,0.0,0.0,0.0,0.0,0.0,0.0,0.0,0.0,0.0,0.0,0.0,0.0,0.0,0.0,0.0,0.0,0.0,0.0,0.0,0.0,0.0,0.0,0.0,0.0,0.0,0.0,0.0,0.0,0.0,0.0,0.0,0.0,0.0,0.0,0.0,0.0,0.0,0.0,0.0,0.0,0.0,0.0,0.0,0.0,0.0,0.0,0.0,0.0,0.0,0.0,0.0,0.0,0.0,0.0,0.0,0.0,0.0,0.0,0.0,0.0,0.0,0.0,0.0,0.0,0.0,5.3004,5.2726,5.2522,5.2684,5.2752,5.2608,0.0,0.0,0.0,0.0,0.0,0.0,0.0,0.0,0.0,0.0,0.0,0.0,0.0,0.0,0.0,0.0,0.0,0.0,0.0,0.0,0.0,0.0,0.0,0.0,0.0,0.0,0.0,0.0,0.0,0.0,0.0,0.0,0.0,0.0,0.0,0.0,0.0,0.0,0.0,0.0,0.0,0.0,0.0,0.0,0.0,0.0,0.0,0.0,0.0,0.0,0.0,0.0,0.0,0.0,0.0,0.0,0.0,0.0,0.0,0.0,0.0,0.0,0.0,0.0,0.0,0.0,0.0,0.0,0.0,0.0,0.0,0.0,0.0,0.0,0.0,0.0,0.0,0.0,0.0,0.0,0.0,0.0,0.0,0.0,0.0,0.0,0.0,0.0,0.0,0.0,0.0,0.0,0.0,0.0,0.0,0.0,0.0,0.0,0.0,0.0,0.0,0.0,0.0,0.0,0.0,0.0,0.0,0.0,5.3167,5.2417,5.1605,5.0806,5.1444,5.1804,0.0,0.0,0.0,0.0,0.0,0.0,0.0,0.0,0.0,0.0,0.0,0.0,0.0,0.0,0.0,0.0,0.0,0.0,0.0,0.0,0.0,0.0,0.0,0.0,0.0,0.0,0.0,0.0,0.0,0.0,0.0,0.0,0.0,0.0,0.0,0.0,0.0,0.0,0.0,0.0,0.0,0.0,0.0,0.0,0.0,0.0,0.0,0.0,0.0,0.0,0.0,0.0,0.0,0.0,0.0,0.0,0.0,0.0,0.0,0.0,0.0,0.0,0.0,0.0,0.0,0.0,0.0,0.0,0.0,0.0,0.0,0.0,0.0,0.0,0.0,0.0,0.0,0.0,0.0,0.0,0.0,0.0,0.0,0.0,0.0,0.0,0.0,0.0,0.0,0.0,0.0,0.0,0.0,0.0,0.0,0.0,0.0,0.0,0.0,0.0,0.0,0.0,0.0,0.0,0.0,0.0,0.0,0.0,0.0,5.2169,5.1402,5.0853,5.0498,5.1164,5.1493,0.0,0.0,0.0,0.0,0.0,0.0,0.0,0.0,0.0,0.0,0.0,0.0,0.0,0.0,0.0,0.0,0.0,0.0,0.0,0.0,0.0,0.0,0.0,0.0,0.0,0.0,0.0,0.0,0.0,0.0,0.0,0.0,0.0,0.0,0.0,0.0,0.0,0.0,0.0,0.0,0.0,0.0,0.0,0.0,0.0,0.0,0.0,0.0,0.0,0.0,0.0,0.0,0.0,0.0,0.0,0.0,0.0,0.0,0.0,0.0,0.0,0.0,0.0,0.0,0.0,0.0,0.0,0.0,0.0,0.0,0.0,0.0,0.0,0.0,0.0,0.0,0.0,0.0,0.0,0.0,0.0,0.0,0.0,0.0,0.0,0.0,0.0,0.0,0.0,0.0,0.0,0.0,0.0,0.0,0.0,0.0,0.0,0.0,0.0,0.0,0.0,0.0,0.0,0.0,0.0,0.0,0.0,0.0,0.0,5.0765,0.0,4.9783,4.9522,5.0359,5.0805,0.0,0.0,0.0,0.0,0.0,0.0,0.0,0.0,0.0,0.0,0.0,0.0,0.0,0.0,0.0,0.0,0.0,0.0,0.0,0.0,0.0,0.0,0.0,0.0,0.0,0.0,0.0,0.0,0.0,0.0,0.0,0.0,0.0,0.0,0.0,0.0,0.0,0.0,0.0,0.0,0.0,0.0,0.0,0.0,0.0,0.0,0.0,0.0,0.0,0.0,0.0,0.0,0.0,0.0,0.0,0.0,0.0,0.0,0.0,0.0,0.0,0.0,0.0,0.0,0.0,0.0,0.0,0.0,0.0,0.0,0.0,0.0,0.0,0.0,0.0,0.0,0.0,0.0,0.0,0.0,0.0,0.0,0.0,0.0,0.0,0.0,0.0,0.0,0.0,0.0,0.0,0.0,0.0,0.0,0.0,0.0,0.0,0.0,0.0,0.0,0.0,0.0,0.0,0.0,0.0,0.0,0.0,0.0,5.0502,4.9025,4.8931,4.854,4.7637,4.9019,4.9695,0.0,0.0,0.0,0.0,0.0,0.0,0.0,0.0,0.0,0.0,0.0,0.0,0.0,0.0,0.0,0.0,0.0,0.0,0.0,0.0,0.0,0.0,0.0,0.0,0.0,0.0,0.0,0.0,0.0,0.0,0.0,0.0,0.0,0.0,0.0,0.0,0.0,0.0,0.0,0.0,0.0,0.0,0.0,0.0,0.0,0.0,0.0,0.0,0.0,0.0,0.0,0.0,0.0,0.0,0.0,0.0,0.0,0.0,0.0,0.0,0.0,0.0,0.0,0.0,0.0,0.0,0.0,0.0,0.0,0.0,0.0,0.0,0.0,0.0,0.0,0.0,0.0,0.0,0.0,0.0,0.0,0.0,0.0,0.0,0.0,0.0,0.0,0.0,0.0,0.0,0.0,0.0,0.0,0.0,0.0,0.0,0.0,0.0,0.0,0.0,0.0,0.0,0.0,0.0,0.0,0.0,0.0,0.0,0.0,4.9208,4.8634,4.8468,4.8744,4.9554,4.9966,0.0,0.0,0.0,0.0,0.0,0.0,0.0,0.0,0.0,0.0,0.0,0.0,0.0,0.0,0.0,0.0,0.0,0.0,0.0,0.0,0.0,0.0,0.0,0.0,0.0,0.0,0.0,0.0,0.0,0.0,0.0,0.0,0.0,0.0,0.0,0.0,0.0,0.0,0.0,0.0,0.0,0.0,0.0,0.0,0.0,0.0,0.0,0.0,0.0,0.0,0.0,0.0,0.0,0.0,0.0,0.0,0.0,0.0,0.0,0.0,0.0,0.0,0.0,0.0,0.0,0.0,0.0,0.0,0.0,0.0,0.0,0.0,0.0,0.0,0.0,0.0,0.0,0.0,0.0,0.0,0.0,0.0,0.0,0.0,0.0,0.0,0.0,0.0,0.0,0.0,0.0,0.0,0.0,0.0,0.0,0.0,0.0,0.0,0.0,0.0,0.0,0.0,0.0,0.0,0.0,0.0,0.0,0.0,0.0,4.9276,4.8597,4.8504,4.9001,4.9543,4.9837,4.9837,0.0,0.0,0.0,0.0,0.0,0.0,0.0,0.0,0.0,0.0,0.0,0.0,0.0,0.0,0.0,0.0,0.0,0.0,0.0,0.0,0.0,0.0,0.0,0.0,0.0,0.0,0.0,0.0,0.0,0.0,0.0,0.0,0.0,0.0,0.0,0.0,0.0,0.0,0.0,0.0,0.0,0.0,0.0,0.0,0.0,0.0,0.0,0.0,0.0,0.0,0.0,0.0,0.0,0.0,0.0,0.0,0.0,0.0,0.0,0.0,0.0,0.0,0.0,0.0,0.0,0.0,0.0,0.0,0.0,0.0,0.0,0.0,0.0,0.0,0.0,0.0,0.0,0.0,0.0,0.0,0.0,0.0,0.0,0.0,0.0,0.0,0.0,0.0,0.0,0.0,0.0,0.0,0.0,0.0,0.0,0.0,0.0,0.0,0.0,0.0,0.0,0.0,0.0,0.0,0.0,0.0,0.0,0.0,4.9326,4.8837,4.8583,4.8609,4.9151,4.9447,0.0,0.0,0.0,0.0,0.0,0.0,0.0,0.0,0.0,0.0,0.0,0.0,0.0,0.0,0.0,0.0,0.0,0.0,0.0,0.0,0.0,0.0,0.0,0.0,0.0,0.0,0.0,0.0,0.0,0.0,0.0,0.0,0.0,0.0,0.0,0.0,0.0,0.0,0.0,0.0,0.0,0.0,0.0,0.0,0.0,0.0,0.0,0.0,0.0,0.0,0.0,0.0,0.0,0.0,0.0,0.0,0.0,0.0,0.0,0.0,0.0,0.0,0.0,0.0,0.0,0.0,0.0,0.0,0.0,0.0,0.0,0.0,0.0,0.0,0.0,0.0,0.0,0.0,0.0,0.0,0.0,0.0,0.0,0.0,0.0,0.0,0.0,0.0,0.0,0.0,0.0,0.0,0.0,0.0,0.0,0.0,0.0,0.0,0.0,0.0,0.0,0.0,0.0,0.0,0.0,0.0,0.0,0.0,0.0,4.9463,4.9315,4.9412,4.9722,4.9756,4.9717,0.0,0.0,0.0,0.0,0.0,0.0,0.0,0.0,0.0,0.0,0.0,0.0,0.0,0.0,0.0,0.0,0.0,0.0,0.0,0.0,0.0,0.0,0.0,0.0,0.0,0.0,0.0,0.0,0.0,0.0,0.0,0.0,0.0,0.0,0.0,0.0,0.0,0.0,0.0,0.0,0.0,0.0,0.0,0.0,0.0,0.0,0.0,0.0,0.0,0.0,0.0,0.0,0.0,0.0,0.0,0.0,0.0,0.0,0.0,0.0,0.0,0.0,0.0,0.0,0.0,0.0,0.0,0.0,0.0,0.0,0.0,0.0,0.0,0.0,0.0,0.0,0.0,0.0,0.0,0.0,0.0,0.0,0.0,0.0,0.0,0.0,0.0,0.0,0.0,0.0,0.0,0.0,0.0,0.0,0.0,0.0,0.0,0.0,0.0,0.0,0.0,0.0,0.0,0.0,0.0,0.0,0.0,0.0,4.9471,4.9505,4.9812,5.0039,5.0312,4.9939,4.9708,0.0,0.0,0.0,0.0,0.0,0.0,0.0,0.0,0.0,0.0,0.0,0.0,0.0,0.0,0.0,0.0,0.0,0.0,0.0,0.0,0.0,0.0,0.0,0.0,0.0,0.0,0.0,0.0,0.0,0.0,0.0,0.0,0.0,0.0,0.0,0.0,0.0,0.0,0.0,0.0,0.0,0.0,0.0,0.0,0.0,0.0,0.0,0.0,0.0,0.0,0.0,0.0,0.0,0.0,0.0,0.0,0.0,0.0,0.0,0.0,0.0,0.0,0.0,0.0,0.0,0.0,0.0,0.0,0.0,0.0,0.0,0.0,0.0,0.0,0.0,0.0,0.0,0.0,0.0,0.0,0.0,0.0,0.0,0.0,0.0,0.0,0.0,0.0,0.0,0.0,0.0,0.0,0.0,0.0,0.0,0.0,0.0,0.0,0.0,0.0,0.0,0.0,0.0,0.0,0.0,0.0,0.0,0.0,4.9475,4.9577,5.0195,5.0543,5.0487,4.9926,4.9577,0.0,0.0,0.0,0.0,0.0,0.0,0.0,0.0,0.0,0.0,0.0,0.0,0.0,0.0,0.0,0.0,0.0,0.0,0.0,0.0,0.0,0.0,0.0,0.0,0.0,0.0,0.0,0.0,0.0,0.0,0.0,0.0,0.0,0.0,0.0,0.0,0.0,0.0,0.0,0.0,0.0,0.0,0.0,0.0,0.0,0.0,0.0,0.0,0.0,0.0,0.0,0.0,0.0,0.0,0.0,0.0,0.0,0.0,0.0,0.0,0.0,0.0,0.0,0.0,0.0,0.0,0.0,0.0,0.0,0.0,0.0,0.0,0.0,0.0,0.0,0.0,0.0,0.0,0.0,0.0,0.0,0.0,0.0,0.0,0.0,0.0,0.0,0.0,0.0,0.0,0.0,0.0,0.0,0.0,0.0,0.0,0.0,0.0,0.0,0.0,0.0,0.0,0.0,0.0,0.0,0.0,0.0,0.0,4.9413,4.9955,5.0125,5.05,5.1012,5.049,5.0147,0.0,0.0,0.0,0.0,0.0,0.0,0.0,0.0,0.0,0.0,0.0,0.0,0.0,0.0,0.0,0.0,0.0,0.0,0.0,0.0,0.0,0.0,0.0,0.0,0.0,0.0,0.0,0.0,0.0,0.0,0.0,0.0,0.0,0.0,0.0,0.0,0.0,0.0,0.0,0.0,0.0,0.0,0.0,0.0,0.0,0.0,0.0,0.0,4.9679,0.0,0.0,0.0,0.0,0.0,0.0,0.0,0.0,0.0,0.0,0.0,0.0,0.0,0.0,0.0,0.0,0.0,0.0,0.0,0.0,0.0,0.0,0.0,0.0,0.0,0.0,0.0,0.0,0.0,0.0,0.0,0.0,0.0,0.0,0.0,0.0,0.0,0.0,0.0,0.0,0.0,0.0,0.0,0.0,0.0,0.0,0.0,0.0,0.0,0.0,0.0,0.0,0.0,0.0,0.0,0.0,0.0,0.0,0.0,4.9357,5.0067,5.0439,5.098,5.1691,5.1449,5.0907,0.0,0.0,0.0,0.0,0.0,0.0,0.0,0.0,0.0,0.0,0.0,0.0,0.0,0.0,0.0,0.0,0.0,0.0,0.0,0.0,0.0,0.0,0.0,0.0,0.0,0.0,0.0,0.0,0.0,0.0,0.0,0.0,0.0,0.0,0.0,0.0,0.0,0.0,0.0,0.0,0.0,0.0,0.0,0.0,0.0,0.0,0.0,0.0,0.0,0.0,0.0,0.0,0.0,0.0,0.0,0.0,0.0,0.0,0.0,0.0,0.0,0.0,0.0,0.0,0.0,0.0,0.0,0.0,0.0,0.0,0.0,0.0,0.0,0.0,0.0,0.0,0.0,0.0,0.0,0.0,0.0,0.0,0.0,0.0,0.0,0.0,0.0,0.0,0.0,0.0,0.0,0.0,0.0,0.0,0.0,0.0,0.0,0.0,0.0,0.0,0.0,0.0,0.0,0.0,0.0,0.0,0.0,4.9089,4.9463,5.0173,5.0884,5.1627,5.2369,5.2369,5.1761,5.0443,0.0,0.0,0.0,0.0,0.0,0.0,0.0,0.0,0.0,0.0,0.0,0.0,0.0,0.0,0.0,0.0,0.0,0.0,0.0,0.0,0.0,0.0,0.0,0.0,0.0,0.0,0.0,0.0,0.0,0.0,0.0,0.0,0.0,0.0,0.0,0.0,0.0,0.0,5.1386,5.1488,0.0,0.0,0.0,0.0,0.0,0.0,0.0,0.0,4.96,0.0,0.0,0.0,0.0,0.0,0.0,0.0,0.0,0.0,0.0,0.0,0.0,0.0,0.0,0.0,0.0,0.0,0.0,0.0,0.0,0.0,0.0,0.0,0.0,0.0,0.0,0.0,0.0,0.0,0.0,0.0,0.0,0.0,0.0,0.0,0.0,0.0,0.0,0.0,0.0,0.0,0.0,0.0,0.0,0.0,0.0,0.0,0.0,0.0,0.0,0.0,0.0,0.0,0.0,0.0,0.0,4.8832,4.9407,4.9983,5.0592,5.1296,5.2068,5.2738,5.2771,5.2403,5.1564,0.0,0.0,0.0,0.0,0.0,0.0,0.0,0.0,0.0,0.0,0.0,0.0,0.0,0.0,0.0,0.0,0.0,0.0,0.0,0.0,0.0,0.0,0.0,0.0,0.0,0.0,0.0,0.0,0.0,0.0,0.0,0.0,0.0,0.0,0.0,0.0,0.0,0.0,0.0,5.2706,5.2875,0.0,0.0,0.0,0.0,0.0,0.0,0.0,0.0,5.0877,0.0,0.0,0.0,0.0,0.0,0.0,0.0,0.0,0.0,0.0,0.0,0.0,0.0,0.0,0.0,0.0,0.0,0.0,0.0,0.0,0.0,0.0,0.0,0.0,0.0,0.0,0.0,0.0,0.0,0.0,0.0,0.0,0.0,0.0,0.0,0.0,0.0,0.0,0.0,0.0,0.0,0.0,0.0,0.0,0.0,0.0,0.0,0.0,0.0,0.0,0.0,0.0,0.0,0.0,0.0,4.9214,4.9421,5.0058,5.106,5.1392,5.1823,5.2557,5.2555,5.2459,0.0,0.0,0.0,0.0,0.0,0.0,0.0,0.0,0.0,0.0,0.0,0.0,0.0,0.0,0.0,0.0,0.0,0.0,0.0,0.0,0.0,0.0,0.0,0.0,0.0,0.0,0.0,0.0,0.0,0.0,0.0,0.0,0.0,0.0,0.0,0.0,0.0,0.0,0.0,0.0,5.3247,5.3348,5.2976,0.0,0.0,0.0,0.0,0.0,0.0,5.1217,5.1217,0.0,0.0,0.0,0.0,0.0,0.0,0.0,0.0,0.0,0.0,0.0,0.0,0.0,0.0,0.0,0.0,0.0,0.0,0.0,0.0,0.0,0.0,0.0,0.0,0.0,0.0,0.0,0.0,0.0,0.0,0.0,0.0,0.0,0.0,0.0,0.0,0.0,0.0,0.0,0.0,0.0,0.0,0.0,0.0,0.0,0.0,0.0,0.0,0.0,0.0,0.0,0.0,0.0,0.0,0.0,4.9392,4.9427,5.0024,5.1216,5.1272,5.1531,5.2023,5.2056,5.2164,0.0,0.0,0.0,0.0,0.0,0.0,0.0,0.0,0.0,0.0,0.0,0.0,0.0,0.0,0.0,0.0,0.0,0.0,0.0,0.0,0.0,0.0,0.0,0.0,0.0,0.0,0.0,0.0,0.0,0.0,0.0,0.0,0.0,0.0,0.0,0.0,0.0,0.0,0.0,0.0,0.0,5.3788,5.3923,5.3957,0.0,0.0,0.0,0.0,5.2165,5.2098,0.0,0.0,0.0,0.0,0.0,0.0,0.0,0.0,0.0,0.0,0.0,0.0,0.0,0.0,0.0,0.0,0.0,0.0,0.0,0.0,0.0,0.0,0.0,0.0,0.0,0.0,0.0,0.0,0.0,0.0,0.0,0.0,0.0,0.0,0.0,0.0,0.0,0.0,0.0,0.0,0.0,0.0,0.0,0.0,0.0,0.0,0.0,0.0,0.0,0.0,0.0,0.0,0.0,0.0,0.0,0.0,4.8893,4.9519,5.007,5.0536,5.1153,5.1401,5.1215,5.1215,5.1359,0.0,0.0,0.0,0.0,0.0,0.0,0.0,0.0,0.0,0.0,0.0,0.0,0.0,0.0,0.0,0.0,0.0,0.0,0.0,0.0,0.0,0.0,0.0,0.0,0.0,0.0,0.0,0.0,0.0,0.0,0.0,0.0,0.0,0.0,0.0,0.0,0.0,0.0,0.0,0.0,0.0,5.4702,5.5378,5.5446,5.5412,0.0,0.0,5.5276,5.5209,5.5174,0.0,0.0,0.0,0.0,0.0,0.0,0.0,0.0,0.0,0.0,0.0,0.0,0.0,0.0,0.0,0.0,0.0,0.0,0.0,0.0,0.0,0.0,0.0,0.0,0.0,0.0,0.0,0.0,0.0,0.0,0.0,0.0,0.0,0.0,0.0,0.0,0.0,0.0,0.0,0.0,0.0,0.0,0.0,0.0,0.0,0.0,0.0,0.0,0.0,0.0,0.0,0.0,0.0,0.0,0.0,4.9044,4.9518,4.9736,5.0075,5.0456,5.0665,5.064,5.0448,5.0409,5.0563,0.0,0.0,0.0,0.0,0.0,0.0,0.0,0.0,0.0,0.0,0.0,0.0,0.0,0.0,0.0,0.0,0.0,0.0,0.0,0.0,0.0,0.0,0.0,0.0,0.0,0.0,0.0,0.0,0.0,0.0,0.0,0.0,0.0,0.0,0.0,0.0,0.0,0.0,0.0,0.0,0.0,0.0,5.6224,5.6325,0.0,0.0,0.0,5.6799,5.6393,0.0,0.0,0.0,0.0,0.0,0.0,0.0,0.0,0.0,0.0,0.0,0.0,0.0,0.0,0.0,0.0,0.0,0.0,0.0,0.0,0.0,0.0,0.0,0.0,0.0,0.0,0.0,0.0,0.0,0.0,0.0,0.0,0.0,0.0,0.0,0.0,0.0,0.0,0.0,0.0,0.0,0.0,0.0,0.0,0.0,0.0,0.0,0.0,0.0,0.0,0.0,0.0,0.0,0.0,0.0,0.0,0.0,4.9876,4.9652,4.9783,5.026,5.0136,4.9939,4.9741,4.9773,0.0,0.0,0.0,0.0,0.0,0.0,0.0,0.0,0.0,0.0,0.0,0.0,0.0,0.0,0.0,0.0,0.0,0.0,0.0,0.0,0.0,0.0,0.0,0.0,0.0,0.0,0.0,5.2414,0.0,0.0,0.0,0.0,0.0,0.0,0.0,0.0,0.0,0.0,0.0,0.0,0.0,0.0,5.6528,5.7239,5.7509,5.7814,0.0,0.0,5.8254,5.7712,5.7476,5.7103,0.0,0.0,0.0,0.0,0.0,0.0,0.0,0.0,0.0,0.0,0.0,0.0,0.0,0.0,0.0,0.0,0.0,0.0,0.0,0.0,0.0,0.0,0.0,0.0,0.0,0.0,0.0,0.0,0.0,0.0,0.0,0.0,0.0,0.0,0.0,0.0,0.0,0.0,0.0,0.0,0.0,0.0,0.0,0.0,0.0,0.0,0.0,0.0,0.0,0.0,0.0,0.0,0.0,0.0,4.8722,4.9203,4.9011,4.9134,4.963,4.9622,4.9573,4.9372,4.9372,4.9421,0.0,0.0,0.0,0.0,0.0,0.0,0.0,0.0,0.0,0.0,0.0,0.0,0.0,0.0,0.0,0.0,0.0,0.0,0.0,0.0,0.0,0.0,0.0,0.0,0.0,0.0,0.0,0.0,0.0,0.0,0.0,0.0,0.0,0.0,0.0,0.0,0.0,0.0,0.0,0.0,0.0,5.8017,5.8761,5.9438,5.9911,0.0,5.9945,5.9945,5.9877,5.9302,5.8626,5.7848,0.0,0.0,0.0,0.0,0.0,0.0,0.0,0.0,0.0,0.0,0.0,0.0,0.0,0.0,0.0,0.0,0.0,0.0,0.0,0.0,0.0,0.0,0.0,0.0,0.0,0.0,0.0,0.0,0.0,0.0,0.0,0.0,0.0,0.0,0.0,0.0,0.0,0.0,0.0,0.0,0.0,0.0,0.0,0.0,0.0,0.0,0.0,0.0,0.0,0.0,0.0,0.0,0.0,4.9111,4.9077,4.8965,4.8889,4.8811,4.8769,4.8718,4.851,4.851,4.8593,0.0,0.0,0.0,0.0,0.0,0.0,0.0,0.0,0.0,0.0,0.0,0.0,0.0,0.0,0.0,0.0,0.0,0.0,0.0,0.0,0.0,0.0,0.0,0.0,0.0,0.0,0.0,0.0,5.1725,5.1908,5.22,0.0,0.0,0.0,0.0,0.0,0.0,0.0,0.0,0.0,0.0,5.8845,6.0025,6.0579,0.0,0.0,6.1501,6.1366,6.0926,6.0622,6.0182,5.937,5.866,0.0,0.0,0.0,0.0,0.0,0.0,0.0,0.0,0.0,0.0,0.0,0.0,0.0,0.0,0.0,0.0,0.0,0.0,0.0,0.0,0.0,0.0,0.0,0.0,0.0,0.0,0.0,0.0,0.0,0.0,0.0,0.0,0.0,0.0,0.0,0.0,0.0,0.0,0.0,0.0,0.0,0.0,0.0,0.0,0.0,0.0,0.0,0.0,0.0,0.0,0.0,0.0,4.9087,4.8759,4.8718,4.8583,4.8218,4.8218,4.8133,4.8007,4.8007,4.8091,0.0,0.0,0.0,0.0,0.0,0.0,0.0,0.0,0.0,0.0,0.0,0.0,0.0,0.0,0.0,0.0,0.0,0.0,0.0,0.0,0.0,0.0,0.0,0.0,0.0,0.0,0.0,0.0,5.1561,5.1717,5.2052,0.0,0.0,0.0,0.0,0.0,0.0,0.0,0.0,0.0,0.0,5.9458,6.0936,6.1458,6.2015,6.2837,6.2978,6.2707,6.2076,6.1772,6.1366,6.0588,0.0,0.0,0.0,0.0,0.0,0.0,0.0,0.0,0.0,0.0,0.0,0.0,0.0,0.0,0.0,0.0,0.0,0.0,0.0,0.0,0.0,0.0,0.0,0.0,0.0,0.0,0.0,4.8496,0.0,0.0,4.8509,0.0,0.0,0.0,0.0,0.0,0.0,0.0,0.0,0.0,0.0,0.0,0.0,0.0,0.0,0.0,0.0,0.0,0.0,0.0,0.0,0.0,0.0,4.8343,4.8301,4.8133,4.8007,4.8007,4.8007,4.8007,4.8007,4.8007,4.8007,4.8007,0.0,0.0,0.0,0.0,0.0,0.0,0.0,0.0,0.0,0.0,0.0,0.0,0.0,0.0,0.0,0.0,0.0,0.0,0.0,0.0,0.0,0.0,0.0,0.0,0.0,0.0,5.1296,5.166,5.1972,0.0,0.0,0.0,0.0,0.0,0.0,0.0,0.0,0.0,5.7886,5.8875,6.0035,6.1475,6.2312,6.3064,6.4076,6.4218,6.4065,6.3525,6.2854,6.2144,0.0,0.0,0.0,0.0,0.0,0.0,0.0,0.0,0.0,0.0,0.0,0.0,0.0,0.0,0.0,0.0,0.0,0.0,0.0,0.0,0.0,0.0,0.0,0.0,0.0,0.0,0.0,4.8105,4.8182,0.0,0.0,0.0,0.0,0.0,0.0,0.0,0.0,0.0,0.0,0.0,4.7928,4.7531,0.0,0.0,0.0,0.0,0.0,0.0,0.0,0.0,0.0,0.0,0.0,0.0,4.8007,4.7837,4.7752,4.7666,4.7568,4.7495,4.7525,4.7525,4.7568,4.7568,4.7568,0.0,0.0,0.0,0.0,0.0,0.0,0.0,0.0,0.0,0.0,0.0,0.0,0.0,0.0,0.0,0.0,0.0,0.0,0.0,0.0,0.0,0.0,0.0,0.0,0.0,5.0849,0.0,0.0,0.0,0.0,0.0,0.0,0.0,0.0,0.0,0.0,5.5665,5.6599,5.7983,5.897,6.0125,6.1583,6.2266,6.2874,0.0,0.0,0.0,0.0,0.0,0.0,0.0,0.0,0.0,0.0,0.0,0.0,0.0,0.0,6.3937,6.1975,6.1637,6.1637,6.1603,0.0,0.0,0.0,0.0,0.0,0.0,0.0,0.0,0.0,0.0,0.0,0.0,0.0,0.0,4.8411,4.8638,4.8987,0.0,0.0,0.0,0.0,0.0,0.0,0.0,0.0,4.856,4.8518,4.8128,4.7466,4.7188,4.7133,4.6827,4.6792,0.0,0.0,0.0,0.0,0.0,0.0,0.0,0.0,4.7409,4.7236,4.7236,4.7312,4.7346,4.7376,4.7376,4.7376,4.7167,4.7048,4.7048,4.7257,4.7376,0.0,0.0,0.0,0.0,0.0,0.0,0.0,0.0,0.0,0.0,0.0,0.0,0.0,0.0,0.0,0.0,0.0,0.0,0.0,0.0,0.0,0.0,0.0,5.0956,0.0,0.0,0.0,0.0,0.0,0.0,0.0,0.0,0.0,5.5231,5.5978,5.693,5.8069,5.903,6.0181,6.171,0.0,0.0,0.0,0.0,0.0,0.0,0.0,6.4614,6.4821,6.4491,6.4633,6.5967,6.6576,6.7184,6.8199,0.0,0.0,6.4478,6.3937,6.3937,6.3937,6.3937,6.414,6.4918,6.5628,6.6373,0.0,0.0,0.0,0.0,4.6294,0.0,0.0,0.0,4.8677,4.9266,0.0,4.921,0.0,0.0,0.0,0.0,4.8544,4.8831,0.0,0.0,4.8645,4.8707,4.8137,4.7541,4.727,4.7269,4.6624,4.6353,4.6349,4.6643,0.0,0.0,0.0,0.0,0.0,0.0,4.6609,4.6639,4.6639,4.6889,4.7462,4.7492,4.7492,4.7492,4.6948,4.6653,4.6653,4.7213,4.7492,4.7537,4.8354,0.0,0.0,0.0,0.0,0.0,0.0,0.0,0.0,0.0,0.0,0.0,0.0,0.0,0.0,0.0,0.0,0.0,0.0,0.0,0.0,5.1606,0.0,0.0,0.0,0.0,0.0,0.0,0.0,0.0,0.0,5.5296,5.5761,5.6638,5.7473,5.8192,0.0,0.0,0.0,0.0,6.3623,6.4877,6.5279,6.5227,6.486,6.4943,6.5201,6.5455,0.0,0.0,6.8765,6.9214,6.9654,7.1109,7.1312,7.0466,6.759,6.7015,6.6948,6.6948,6.6948,6.7218,6.7929,6.8707,6.9451,4.6159,0.0,0.0,0.0,0.0,4.7553,4.7996,4.816,4.8352,4.8516,4.8653,4.8489,0.0,0.0,0.0,0.0,0.0,0.0,4.8245,4.7839,4.7783,4.7616,4.7285,4.7125,4.7045,4.6992,4.6813,4.6755,4.6701,4.615,4.5923,4.6081,0.0,0.0,0.0,0.0,4.625,4.6716,4.6745,4.7066,4.7631,4.7631,4.7631,4.7631,4.7456,4.7369,4.7369,4.7544,4.7724,4.7909,4.8177,0.0,0.0,0.0,0.0,0.0,0.0,0.0,0.0,0.0,0.0,0.0,0.0,0.0,0.0,0.0,0.0,0.0,0.0,0.0,5.2312,5.2285,5.2378,0.0,0.0,0.0,0.0,0.0,0.0,0.0,0.0,0.0,5.6373,5.7287,5.801,0.0,0.0,6.0516,6.1692,6.2169,6.2951,6.4509,6.5129,0.0,6.6114,6.6593,6.6956,6.7146,6.7759,6.8909,7.086,7.113,7.1524,7.2653,7.2868,7.2563,7.1785,7.0703,7.0094,7.0026,7.0026,7.0432,7.1582,7.209,7.2597,4.6652,4.6089,4.6545,4.6867,4.7055,4.7728,4.8181,4.834,4.8442,4.8626,4.8813,4.8471,4.834,4.8342,4.8354,0.0,0.0,0.0,4.7854,4.7545,4.7476,4.7271,4.7069,4.6778,4.6699,4.673,4.6576,4.6455,4.6352,4.5929,4.559,4.5496,0.0,4.5779,4.5787,4.5899,4.6146,4.6518,4.6594,4.6862,4.7463,4.7463,4.7463,4.7463,4.7234,4.7091,4.7119,4.7348,4.7559,4.7845,4.822,4.8537,0.0,0.0,0.0,0.0,0.0,0.0,0.0,0.0,0.0,0.0,0.0,5.1229,5.1229,0.0,0.0,0.0,5.1858,5.2234,5.2768,5.2846,0.0,0.0,0.0,0.0,0.0,0.0,0.0,5.45,5.5285,5.6054,5.6696,5.7788,5.8491,5.8577,5.9565,6.0652,6.1687,0.0,6.3016,6.4476,6.5029,6.5578,6.6241,6.6784,6.7405,6.8374,6.9663,7.0978,7.2256,7.2868,7.348,7.4391,7.4924,7.5175,7.527,7.4525,7.3612,7.2834,7.2868,7.3477,7.4627,7.4864,7.5202,4.7444,4.7696,4.7494,4.7413,4.7439,4.7683,4.8095,4.8621,4.8826,4.9195,4.9637,4.895,4.8653,4.86,4.7831,0.0,4.7856,4.777,4.766,4.7429,4.7658,4.7596,4.7249,4.6737,4.6481,4.6481,4.6128,4.5844,4.5682,4.5881,4.5684,4.5205,4.536,4.563,4.6056,4.6028,4.6056,4.6161,4.6112,4.6469,4.7007,4.7035,4.7035,4.7035,4.6476,4.6245,4.6196,4.6777,4.7235,4.7511,4.8375,4.9016,4.9293,0.0,0.0,0.0,0.0,0.0,0.0,0.0,0.0,0.0,0.0,0.0,0.0,0.0,0.0,5.2276,5.2815,0.0,5.3264,5.3264,0.0,0.0,0.0,5.3724,5.3694,5.3917,5.4304,5.491,0.0,0.0,5.688,5.8061,5.8897,5.919,5.9784,6.0687,6.1784,6.2523,6.3417,6.4621,6.5039,6.5322,6.5764,6.6371,6.7427,6.9204,7.1075,7.2379,7.3242,7.4172,7.5236,7.6102,7.6992,7.7563,7.7844,7.7675,7.7352,7.5242,7.5391,7.6082,7.6826,7.6995,7.7232,4.8329,4.8548,4.8532,4.841,4.825,4.8498,4.8687,4.8816,4.891,4.8978,4.9081,4.8945,4.8937,4.9179,4.8713,4.8729,4.8968,4.8739,4.8575,4.8515,4.8314,4.8207,4.8121,4.7561,4.7307,4.7256,4.6609,4.6245,4.6174,4.5825,4.5633,4.5709,4.5773,4.5529,4.5021,4.4989,4.5185,4.5672,4.5672,4.5973,4.6548,4.6575,4.6575,4.6575,4.6438,4.6356,4.6356,4.6727,4.7067,4.735,4.8164,4.8808,4.9093,4.9797,0.0,0.0,0.0,0.0,0.0,0.0,0.0,0.0,0.0,5.2435,5.2435,0.0,5.2935,0.0,5.3084,5.3384,5.3922,5.3982,0.0,0.0,5.478,5.483,5.483,5.53,5.5711,5.5861,5.6462,5.7092,5.7731,5.8091,5.876,5.9971,6.0457,6.0958,6.1511,6.2307,6.322,6.4212,6.479,6.5428,6.6214,6.7459,6.865,7.0199,7.1284,7.2306,7.3437,7.4436,7.5287,7.579,7.6592,7.7179,7.7296,7.7783,7.7984,7.7447,7.741,7.7671,7.8416,7.8585,7.8788,4.9799,4.999,4.9926,4.9901,4.9696,4.9237,4.9033,4.9059,4.9126,4.9228,4.9228,4.9099,4.9091,4.9193,4.8984,4.8984,4.9106,4.8861,4.8676,4.8676,4.8342,4.8156,4.8156,4.7853,4.7637,4.7349,4.6923,4.6544,4.6178,4.5846,4.5655,4.5742,4.5742,4.5515,4.5022,4.5289,4.5555,4.5929,4.5929,4.6089,4.6382,4.6409,4.6409,4.6409,4.6517,4.6625,4.6652,4.6921,4.7189,4.7455,4.7915,4.8373,4.8825,4.942,4.9799,0.0,0.0,0.0,0.0,0.0,0.0,0.0,0.0,0.0,0.0,0.0,5.3446,5.3844,5.4022,5.4221,5.461,5.464,5.479,5.5149,5.5448,5.5628,5.5628,5.6196,5.6585,5.6585,5.7154,5.7693,5.8082,5.8381,5.8973,6.0156,6.0741,6.1231,6.1971,6.2554,6.3176,6.4149,6.4708,6.5317,6.6205,6.7567,6.8893,6.9922,7.1003,7.2022,7.2802,7.3875,7.4733,7.5058,7.6163,7.71,7.7237,7.7925,7.8478,7.8497,7.8571,7.8809,7.9297,7.9499,7.9735,5.1272,5.1272,5.1272,5.1272,5.1238,5.0013,4.9444,4.947,4.9643,4.9665,4.9565,4.9381,4.9152,4.9004,4.903,4.9004,4.8968,4.8694,4.857,4.857,4.8259,4.8109,4.8109,4.8058,4.7782,4.7294,4.7218,4.6849,4.6129,4.6129,4.6027,4.57,4.5674,4.5674,4.5732,4.6191,4.643,4.6278,4.6252,4.6252,4.6278,4.6252,4.6278,4.6308,4.6559,4.6728,4.6728,4.6951,4.7258,4.7506,4.7615,4.7944,4.8518,4.8871,4.9196,0.0,4.976,0.0,0.0,0.0,0.0,0.0,0.0,0.0,0.0,5.3082,5.3794,5.4692,5.4926,5.5078,5.5128,5.5218,5.5248,5.5329,5.5897,5.6338,5.6368,5.6855,5.7214,5.7214,5.7812,5.8261,5.8291,5.877,5.9338,5.9997,6.071,6.1477,6.25,6.288,6.332,6.4209,6.4549,6.4985,6.5794,6.7034,6.8155,6.8898,7.0199,7.1397,7.182,7.3005,7.3889,7.4306,7.5521,7.6675,7.7007,7.7715,7.8306,7.8372,7.8636,7.9068,7.9598,7.9887,8.0158,5.1272,5.1272,5.1272,5.1272,5.1247,5.1012,5.0927,5.0836,5.0419,5.0017,4.959,4.9554,4.9492,4.9481,4.9481,4.9455,4.9481,4.9417,4.9353,4.9353,4.9353,4.9264,4.9238,4.8812,4.856,4.8435,4.7983,4.7657,4.7517,4.7517,4.7302,4.6773,4.6773,4.6773,4.6834,0.0,0.0,0.0,4.5654,4.5711,4.5685,4.5628,4.5628,4.5685,4.5685,0.0,4.5768,4.6026,4.6308,4.6672,4.7344,0.0,0.0,0.0,0.0,0.0,0.0,0.0,0.0,0.0,0.0,0.0,5.1098,5.1638,5.2861,5.35,5.398,5.4355,5.4458,5.459,5.4854,5.53,5.57,5.6017,5.6555,5.6915,5.6944,5.7513,5.7932,5.7932,5.853,5.8919,5.889,5.9039,5.9338,5.9997,6.0685,6.1399,6.2171,6.2909,6.3414,6.3679,6.4132,6.4493,6.4715,6.5837,6.7,6.7919,6.8972,7.0062,7.1131,7.2124,7.3022,7.3263,7.4301,7.5071,7.5126,7.5506,7.6049,7.654,7.705,7.7868,7.9202,7.9699,7.9853,5.1804,5.1829,5.16,5.1532,0.0,5.1557,5.1383,5.1128,5.0638,4.9987,4.9332,4.9332,4.9267,4.9097,4.9097,4.9097,4.9097,4.9097,4.9097,4.9097,4.9097,4.9097,4.9072,4.8799,4.8526,4.8252,4.8169,4.7958,4.7683,4.787,4.7782,4.7506,4.7531,4.7506,4.7506,4.7506,4.7227,4.6645,4.673,4.6704,4.6704,4.6704,4.6518,4.629,4.6442,0.0,0.0,0.0,0.0,0.0,0.0,0.0,0.0,4.8395,0.0,4.8926,4.9041,4.9156,4.9328,4.9328,4.9586,5.0235,5.0404,5.11,5.2544,5.2996,5.3366,5.3681,5.3942,5.4296,5.4834,5.5233,5.5768,5.6355,5.7004,5.7444,5.761,5.8201,5.859,5.862,5.889,5.9099,5.9099,5.9099,5.9368,5.9997,6.0685,6.1343,6.2002,6.2774,6.3337,6.3481,6.3736,6.4019,6.4249,6.4962,6.5878,6.6591,6.7429,6.8539,6.959,7.0504,7.1187,7.1617,7.2533,7.3203,7.3291,7.3826,7.4513,7.4859,7.5429,7.6234,7.7515,7.8617,7.9407,5.2308,5.2308,5.196,5.182,5.182,5.1751,5.1288,5.0627,5.0381,0.0,0.0,4.9007,4.8812,4.851,4.851,4.8445,4.8403,4.8403,4.8403,4.8379,4.8379,4.8379,4.8379,4.8445,4.8199,4.7783,4.817,4.8075,4.7629,4.7895,4.7971,4.7871,4.7871,4.7933,4.7958,4.8159,4.8209,4.8184,4.8008,4.7908,4.7908,4.7908,4.7707,4.728,4.75,4.743,4.6863,4.7087,4.713,4.7172,4.7172,4.7265,4.756,4.7619,4.7736,4.7997,4.7997,4.8114,4.8321,4.8347,4.8637,4.9354,4.9613,5.0404,5.1841,5.2139,5.2462,5.2919,5.3429,5.4036,5.4696,5.5225,5.5813,5.664,5.7369,5.7862,5.8161,5.8716,5.9015,5.9099,5.9099,5.9099,5.9099,5.9099,5.9279,5.9847,6.0446,6.1253,6.1972,6.266,6.3194,6.3367,6.3481,6.3538,6.3827,6.4331,6.4813,6.525,6.6051,6.6919,6.7848,6.8432,6.9052,6.9879,7.0702,7.1188,7.1465,7.2299,7.3083,7.3267,7.3747,7.4416,7.5482,7.6866,7.8113,5.189,5.189,5.182,5.182,5.1751,5.1446,5.0583,4.9431,4.9474,4.9199,4.8666,4.8641,4.8445,4.8092,4.8092,4.7894,4.763,4.763,4.763,4.763,4.7654,4.763,4.7654,4.796,4.8067,4.7994,4.8322,4.8493,4.8419,4.8484,4.8238,4.7819,4.777,4.7898,4.8266,4.901,4.9364,4.9339,4.841,4.7908,4.7908,4.7908,4.7883,4.7807,4.7869,4.7618,4.7115,4.7065,4.7046,4.6891,4.6866,4.7019,4.7265,4.7265,4.7324,4.7324,4.7324,4.7383,4.7383,4.7442,4.7677,4.8347,4.8637,4.9415,5.0878,5.11,5.1458,5.225,5.2809,5.3452,5.4111,5.5336,5.6333,5.6753,5.7584,5.8242,5.8486,5.8659,5.8828,5.9045,5.9099,5.9099,5.9099,5.9099,5.9129,5.9338,5.9997,6.0715,6.1882,6.266,6.3107,6.3137,6.3137,6.3194,6.3339,6.3484,6.3957,6.4498,6.4937,6.5616,6.6545,6.684,6.7372,6.8453,6.8815,6.9179,6.9875,7.0406,7.1011,7.1477,7.192,7.2627,7.3772,7.4397,7.5371,5.0884,5.0884,5.0672,5.0506,5.0506,4.9842,4.9039,4.8263,4.8092,4.7905,4.7744,4.772,4.7388,4.6898,4.6898,4.6697,4.6294,4.6576,4.6693,4.6716,4.6998,4.7115,4.7183,4.7457,4.7685,4.7753,4.8228,4.8589,4.8589,4.8724,4.878,4.8736,4.8935,4.9133,4.929,4.9644,4.9876,4.9876,4.9196,4.8812,4.8812,4.8812,4.8686,4.8385,4.8385,4.8109,4.7581,4.7556,4.7517,4.7363,4.7086,4.6995,4.7151,4.6873,4.6695,4.6695,4.6695,4.6815,4.6934,4.7112,4.7324,4.7619,4.7736,4.8204,4.9072,4.9756,5.0516,5.1211,5.1933,5.2715,5.3498,5.4797,5.5905,5.6532,5.7241,5.7807,5.8169,5.8335,5.847,5.8609,5.8773,5.8912,5.8882,5.8991,5.9099,5.9189,5.9937,6.1014,6.1942,6.266,6.3137,6.3137,6.3137,6.3137,6.3137,6.3194,6.3429,6.37,6.396,6.4462,6.5238,6.5505,6.604,6.6851,6.712,6.7396,6.8154,6.851,6.8962,6.9604,7.017,7.0882,7.1907,7.2807,7.4197,4.9747,4.9675,4.9365,4.915,4.8887,4.8134,4.7474,4.705,4.6592,4.6425,4.6489,4.6782,4.6555,4.5874,4.5805,4.5599,4.5232,4.5503,4.5615,4.573,4.6093,4.6275,4.6345,4.6769,4.7003,4.705,4.7772,4.8119,4.8119,4.8396,4.8741,4.9153,4.9563,4.9767,4.9742,4.9835,4.9835,4.9829,4.9669,4.9616,4.9706,4.9771,4.9611,4.9236,4.9213,4.8862,4.8335,4.8184,4.8033,4.7908,4.7506,4.7244,4.728,4.6903,4.6677,4.6677,4.6677,4.6748,4.6863,4.6951,4.7027,4.7087,4.7087,4.729,4.7619,4.8437,4.9438,5.0284,5.1226,5.2088,5.3155,5.4228,5.5251,5.5992,5.6623,5.7107,5.7445,5.7696,5.7974,5.8085,5.8335,5.85,5.8609,5.8773,5.8882,5.917,6.0211,6.1283,6.1852,6.254,6.3107,6.3137,6.3137,6.3137,6.3137,6.3137,6.3137,6.3137,6.3309,6.3665,6.4171,6.4407,6.4822,6.5483,6.5696,6.6085,6.6632,6.696,6.7319,6.7864,6.8372,6.9182,7.0268,7.1463,7.3002,4.8523,4.8546,4.845,4.8086,4.7406,4.6898,4.6264,4.5472,4.5384,4.515,4.4953,4.6209,4.6327,4.5692,4.5598,4.5221,4.4601,4.4617,4.4639,4.4639,4.4683,4.4705,4.482,4.5422,4.5756,4.5872,4.6603,4.7001,4.7001,4.7049,4.7213,4.7633,4.8327,4.872,4.8696,4.8995,4.9109,4.9084,4.9466,4.9756,5.0093,5.0404,5.0605,5.053,5.0322,5.0017,4.935,4.8962,4.846,4.7958,4.7883,4.7832,4.7832,4.7782,4.7757,4.7732,4.7732,4.7556,4.7079,4.6663,4.6541,4.6806,4.684,4.6959,4.7205,4.7409,4.8146,4.9643,5.0757,5.1792,5.2979,5.3968,5.4623,5.5029,5.5729,5.6193,5.6451,5.6823,5.722,5.7781,5.7781,5.7948,5.8169,5.828,5.8445,5.8783,6.0075,6.1081,6.1407,6.2304,6.3079,6.3079,6.3137,6.3137,6.3137,6.3137,6.3137,6.3137,6.3137,6.3284,6.3374,6.3462,6.3552,6.447,6.4621,6.4979,6.5698,6.6146,6.6146,6.6422,6.6962,6.7596,6.8766,6.9654,7.0891,4.6965,4.6987,4.6743,4.6129,4.5459,4.5234,4.4827,4.4304,4.4229,4.4102,4.4029,4.4654,4.4793,4.4611,4.4611,4.42,4.3589,4.3772,4.39,4.3921,4.4177,4.4453,4.4749,4.5265,4.5464,4.5559,4.6071,4.629,4.6435,4.6798,4.7087,4.7398,4.8044,4.8424,4.8495,4.8543,4.8614,4.8685,4.9015,4.9274,4.9413,4.9991,5.0376,5.0351,5.0288,4.9983,4.9463,4.9411,4.9167,4.8682,4.8522,4.841,4.841,4.8083,4.7908,4.7883,4.7606,4.7355,4.7068,4.6627,4.6361,4.6481,4.6481,4.6541,4.6661,4.712,4.7949,4.8972,4.9921,5.089,5.1897,5.3031,5.3713,5.3954,5.4584,5.5175,5.5292,5.5759,5.625,5.6652,5.688,5.7107,5.7445,5.7751,5.8206,5.8896,5.9951,6.0743,6.1303,6.2193,6.2816,6.3079,6.3137,6.3137,6.3137,6.3137,6.3137,6.3137,6.3137,6.3137,6.3137,6.3137,6.3314,6.367,6.37,6.4028,6.4657,6.4866,6.4927,6.5228,6.5706,6.6365,6.7077,6.7515,6.8493,4.533,4.5256,4.4805,4.418,4.3553,4.34,4.3192,4.2907,4.2907,4.2907,4.2907,4.2907,4.2995,4.3162,4.3489,4.3289,4.2811,4.3027,4.3172,4.3214,4.3525,4.3898,4.4201,4.4579,4.473,4.4805,4.5084,4.5384,4.5555,4.6299,4.667,4.6817,4.7428,4.7721,4.7721,4.7721,4.7721,4.7772,4.8209,4.8404,4.8506,4.9179,4.9769,5.0044,5.0196,4.9995,4.9628,4.9668,4.9521,4.919,4.8903,4.8821,4.886,4.8459,4.8234,4.8335,4.7883,4.7581,4.7581,4.7054,4.6677,4.6552,4.6527,4.6527,4.6602,4.7122,4.78,4.8582,4.9276,5.0123,5.1101,5.198,5.2615,5.2799,5.3565,5.3959,5.4166,5.4643,5.5144,5.5554,5.5759,5.6106,5.6623,5.7194,5.7881,5.8631,5.9677,6.0496,6.1258,6.1965,6.2556,6.2789,6.2905,6.3021,6.3079,6.3137,6.3137,6.3137,6.3137,6.3137,6.3137,6.3137,6.3137,6.3344,6.3166,6.3256,6.3734,6.3855,6.4035,6.4544,6.4932,6.5317,6.6001,6.6113,6.6381,4.3691,4.3594,4.283,4.2273,4.179,4.1404,4.1249,4.1191,4.1191,4.1191,4.1191,4.1171,4.1229,4.1305,4.2285,4.2749,4.2443,4.2366,4.2366,4.2386,4.2427,4.2524,4.2524,4.2927,4.3157,4.331,4.3594,4.3995,4.4352,4.5106,4.548,4.548,4.5928,4.6077,4.6077,4.6151,4.6077,4.6225,4.6891,4.7259,4.7332,4.8018,4.8961,4.9748,5.0234,5.0267,5.019,4.9701,4.9296,4.9247,4.8821,4.8747,4.9023,4.9038,4.9117,4.935,4.8962,4.8661,4.856,4.8058,4.7581,4.7118,4.7079,4.7043,4.7104,4.723,4.7769,4.8674,4.9153,4.9848,5.0787,5.1168,5.156,5.2059,5.2492,5.2773,5.3105,5.347,5.3926,5.4378,5.4616,5.5085,5.596,5.6763,5.7367,5.8176,5.9452,6.056,6.0765,6.1498,6.1998,6.2234,6.241,6.2731,6.3021,6.3079,6.3137,6.3137,6.3137,6.3137,6.3137,6.3137,6.3137,6.3137,6.3137,6.3137,6.3109,6.3258,6.3498,6.3827,6.4006,6.445,6.4955,6.5347,6.5585,4.1656,4.1191,4.0568,4.0099,3.9688,3.9531,3.9471,3.9531,3.9471,3.9471,3.9471,3.9531,3.9471,3.9531,3.9943,4.0568,4.1133,4.121,4.121,4.121,4.121,4.1443,4.2005,4.2159,4.239,4.2621,4.2754,4.2927,4.306,4.3594,4.3843,4.3919,4.4277,4.4504,4.4504,4.473,4.4805,4.4955,4.563,4.6077,4.6077,4.6596,4.7112,4.753,4.8796,4.9275,4.8944,4.9123,4.9149,4.8651,4.8701,4.8722,4.8756,4.8772,4.8837,4.8918,4.8447,4.8189,4.8355,4.7945,4.7608,4.7595,4.7631,4.7631,4.7707,4.7958,4.836,4.88,4.924,4.9709,5.0028,5.055,5.0842,5.1094,5.1434,5.1685,5.1872,5.2306,5.2799,5.3261,5.3625,5.4364,5.5293,5.5898,5.6616,5.7856,5.8817,5.9606,6.0249,6.0839,6.1284,6.1673,6.185,6.2028,6.241,6.2847,6.3079,6.3079,6.3137,6.3079,6.3079,6.3137,6.3137,6.3137,6.3137,6.3137,6.3109,6.3109,6.3288,6.3318,6.3498,6.3706,6.3882,6.427,6.4479,3.9707,3.9077,3.8603,3.8127,3.7809,3.7809,3.7809,3.7809,3.7809,3.7809,3.7809,3.7809,3.7809,3.7809,3.7809,3.8206,3.9156,3.9629,3.9864,3.9864,4.004,4.0431,4.0919,4.1152,4.1288,4.1598,4.1907,4.1985,4.2062,4.2544,4.2774,4.2851,4.3081,4.3213,4.331,4.3518,4.3594,4.3746,4.4277,4.4654,4.4654,4.5181,4.5405,4.563,4.6942,4.7808,4.7754,4.8402,4.8661,4.8252,4.8144,4.8117,4.8057,4.8182,4.8248,4.8199,4.7971,4.7881,4.8139,4.7947,4.7841,4.7832,4.7933,4.8021,4.8046,4.8497,4.8812,4.9063,4.9339,4.959,4.9654,5.004,5.0359,5.0423,5.0614,5.0804,5.0931,5.1346,5.1747,5.2209,5.2925,5.3747,5.4624,5.5217,5.6101,5.7425,5.8082,5.8817,5.9403,5.9948,6.0377,6.0894,6.1075,6.1255,6.1583,6.2057,6.2585,6.2701,6.2905,6.2963,6.3021,6.3079,6.3079,6.3079,6.3137,6.3137,6.3137,6.3137,6.3137,6.3137,6.3226,6.3376,6.3316,6.3226,6.3554,3.7729,3.725,3.685,3.6448,3.6126,3.6046,3.6046,3.6046,3.6046,3.6046,3.6046,3.6046,3.6046,3.6046,3.6046,3.6126,3.6448,3.7649,3.8365,3.8524,3.9017,3.9175,3.9333,3.9745,3.9981,4.0137,4.0763,4.1074,4.1152,4.183,4.2216,4.2293,4.2293,4.2293,4.237,4.2447,4.2447,4.26,4.3004,4.3081,4.3081,4.3822,4.4201,4.4277,4.5031,4.5906,4.6994,4.7368,4.774,4.7839,4.7144,4.6812,4.7064,4.7255,4.7431,4.7431,4.7672,4.787,4.8002,4.8216,4.8052,4.7927,4.8021,4.8238,4.8302,4.8582,4.8974,4.9286,4.95,4.9525,4.9525,4.959,4.9783,5.004,5.0129,5.0295,5.0487,5.0588,5.0741,5.1287,5.2219,5.3038,5.3644,5.4627,5.5643,5.6359,5.725,5.8024,5.8234,5.8739,5.9239,5.9673,5.992,6.0165,6.0652,6.1195,6.1821,6.2292,6.2468,6.2615,6.2789,6.2905,6.2963,6.2963,6.3079,6.3079,6.3137,6.3137,6.3137,6.3137,6.3137,6.3137,6.3137,6.3137,6.3137,3.5723,3.548,3.4832,3.4425,3.4343,3.4343,3.4343,3.4343,3.4343,3.4262,3.4343,3.4343,3.4343,3.4343,3.4343,3.4343,3.4343,3.4896,3.5706,3.6769,3.7348,3.7667,3.7986,3.8402,3.8877,3.943,3.9745,3.9981,4.0294,4.0607,4.0685,4.0744,4.0977,4.1055,4.1133,4.1676,4.1985,4.2005,4.239,4.2621,4.2621,4.2851,4.2984,4.2984,4.3462,4.3995,4.4352,4.5701,4.6563,4.6902,4.6657,4.6396,4.6334,4.612,4.6001,4.6001,4.6362,4.6697,4.6898,4.7298,4.7648,4.7807,4.8044,4.8265,4.846,4.8565,4.8704,4.8902,4.8902,4.8967,4.9202,4.9267,4.9396,4.9719,4.9783,4.9808,5.0026,5.0129,5.0627,5.119,5.1653,5.2323,5.3322,5.4263,5.4761,5.5628,5.639,5.6823,5.7082,5.7468,5.8043,5.855,5.8739,5.9052,5.955,5.9981,6.047,6.1255,6.1702,6.2175,6.241,6.2643,6.2701,6.2847,6.2963,6.3079,6.3079,6.3137,6.3137,6.3137,6.3137,6.3137,6.3137,6.3137,6.3137,3.369,3.3526,3.2788,3.2458,3.2458,3.2458,3.2458,3.2541,3.2458,3.2458,3.2458,3.2458,3.2458,3.2458,3.2458,3.2458,3.2556,3.2705,3.3363,3.4506,3.5642,3.6126,3.6448,3.7028,3.7587,3.8225,3.8463,3.878,3.9193,3.9509,3.9666,3.9745,4.004,4.0275,4.0275,4.0763,4.1074,4.1152,4.1443,4.1676,4.1753,4.1985,4.2139,4.2236,4.2544,4.2774,4.2851,4.405,4.503,4.5639,4.5903,4.5778,4.5445,4.5155,4.5044,4.523,4.5439,4.5691,4.6009,4.6277,4.663,4.7098,4.7364,4.7563,4.7894,4.8116,4.8182,4.8182,4.8313,4.8445,4.8616,4.8812,4.9082,4.9436,4.9586,4.9715,4.9816,5.0111,5.0558,5.1184,5.1711,5.2302,5.2987,5.3741,5.403,5.4927,5.5313,5.5578,5.5842,5.6236,5.6823,5.7275,5.7532,5.7916,5.8333,5.8802,5.9177,5.9981,6.0802,6.1434,6.1969,6.2234,6.241,6.2615,6.2789,6.2963,6.3021,6.3079,6.3137,6.3137,6.3079,6.3137,6.3137,6.3137,6.3137,3.1715,3.1316,3.0817,3.0651,3.0651,3.0651,3.0651,3.0651,3.0651,3.0651,3.0651,3.0734,3.0734,3.0734,3.0817,3.09,3.0832,3.1233,3.1399,3.2046,3.3363,3.4425,3.4913,3.5561,3.6161,3.6696,3.7018,3.7517,3.8122,3.8743,3.9249,3.9202,3.9538,3.982,3.9858,3.988,4.0037,4.0059,4.0353,4.0588,4.0588,4.121,4.1695,4.1695,4.1985,4.2216,4.2293,4.26,4.3289,4.4515,4.4857,4.4771,4.4525,4.4438,4.4523,4.486,4.4883,4.5057,4.5272,4.537,4.5507,4.5938,4.6183,4.6473,4.6831,4.7098,4.7232,4.7298,4.7563,4.7852,4.7967,4.8279,4.8763,4.9239,4.9619,4.9962,5.0393,5.0469,5.0811,5.138,5.2085,5.2641,5.2691,5.3394,5.3801,5.4106,5.4309,5.4511,5.4779,5.518,5.5604,5.5973,5.6301,5.6693,5.7184,5.7697,5.8107,5.855,5.9488,6.0409,6.1255,6.1613,6.2057,6.2292,6.2498,6.2731,6.2847,6.2905,6.2963,6.2963,6.2963,6.3079,6.3137,6.3079,6.3228,2.9621,2.9467,2.8964,2.8796,2.8796,2.881,2.8796,2.881,2.881,2.881,2.8894,2.9146,2.9314,2.9314,2.9649,2.9816,2.9816,2.9983,2.9983,3.015,3.0915,3.2376,3.3526,3.4033,3.4736,3.5507,3.5803,3.6365,3.7297,3.7901,3.8181,3.8217,3.8879,3.9175,3.9054,3.948,3.9711,3.9546,3.9823,4.0078,4.0078,4.0313,4.0529,4.0821,4.0997,4.125,4.1463,4.1773,4.237,4.3345,4.346,4.3615,4.3764,4.3509,4.3507,4.3829,4.4062,4.422,4.4348,4.4494,4.4811,4.5091,4.5187,4.5347,4.5731,4.5799,4.5866,4.5934,4.6204,4.6728,4.7305,4.7738,4.8406,4.9425,4.9939,5.0473,5.0863,5.1071,5.1272,5.18,5.2093,5.2412,5.2783,5.3053,5.3316,5.3589,5.3725,5.3861,5.4064,5.4267,5.4738,5.4939,5.5246,5.5604,5.6039,5.6628,5.7017,5.7211,5.8043,5.9114,6.0043,6.0834,6.1315,6.1761,6.1939,6.2116,6.2381,6.2498,6.2615,6.2643,6.2847,6.2905,6.3079,6.3109,6.3408,2.7532,2.735,2.7109,2.694,2.694,2.694,2.694,2.694,2.694,2.7109,2.7292,2.7545,2.7799,2.7981,2.8221,2.8389,2.8389,2.8726,2.8894,2.9062,2.9649,3.0984,3.2324,3.283,3.3447,3.4384,3.4629,3.5141,3.5958,3.661,3.696,3.7076,3.7857,3.8147,3.8035,3.8571,3.8797,3.8551,3.8958,3.9374,3.9356,3.9753,4.0122,4.0436,4.0652,4.093,4.117,4.1347,4.1893,4.2544,4.2739,4.2823,4.2954,4.2823,4.2807,4.3201,4.3236,4.3331,4.3687,4.3781,4.3975,4.4338,4.4405,4.4598,4.4878,4.4973,4.4973,4.5296,4.5551,4.6104,4.6704,4.7398,4.8303,4.9304,5.0097,5.0602,5.111,5.1152,5.1494,5.2004,5.2273,5.2416,5.2836,5.2861,5.2998,5.3204,5.3273,5.3341,5.3478,5.3682,5.3887,5.4132,5.4402,5.4738,5.498,5.5512,5.5973,5.617,5.6731,5.7852,5.8927,5.992,6.047,6.0894,6.1284,6.1583,6.1761,6.1998,6.2175,6.2292,6.2585,6.2731,6.2847,6.3144,6.3442,2.5495,2.5153,2.5068,2.5153,2.5153,2.5153,2.5153,2.5153,2.5153,2.5324,2.575,2.5835,2.6188,2.6528,2.6698,2.6698,2.6868,2.7545,2.787,2.8123,2.8726,2.983,3.1032,3.1559,3.2257,3.3099,3.3414,3.3909,3.453,3.5278,3.5668,3.5987,3.6627,3.6878,3.6928,3.7411,3.737,3.7322,3.7986,3.8392,3.8554,3.9058,3.9571,3.9955,4.0677,4.0868,4.096,4.1065,4.1365,4.2162,4.2256,4.2253,4.233,4.235,4.256,4.2785,4.2651,4.2768,4.3135,4.3025,4.3068,4.3538,4.3692,4.3837,4.407,4.417,4.4314,4.4601,4.5185,4.5568,4.6246,4.725,4.8143,4.8945,4.9511,5.0148,5.0607,5.0876,5.1349,5.2139,5.2283,5.2515,5.2654,5.2792,5.2861,5.2861,5.2929,5.3067,5.3204,5.3273,5.341,5.3478,5.3725,5.3997,5.4106,5.4309,5.4779,5.5206,5.5683,5.6666,5.7825,5.8774,5.9426,5.992,6.0226,6.0652,6.1075,6.1315,6.1494,6.188,6.2057,6.2322,6.2469,6.3061,6.3417,2.3365,2.3279,2.3279,2.3279,2.3279,2.3279,2.3279,2.3279,2.3279,2.3537,2.3966,2.4309,2.4738,2.5177,2.5507,2.5835,2.6103,2.6443,2.6698,2.7122,2.7207,2.8114,2.9196,3.0028,3.0966,3.1814,3.2004,3.2629,3.3592,3.4099,3.4697,3.5044,3.5365,3.5693,3.5638,3.6184,3.6442,3.6292,3.699,3.7404,3.7487,3.7982,3.853,3.8984,3.9968,4.0465,4.0559,4.0598,4.0709,4.0952,4.1289,4.16,4.185,4.1907,4.2082,4.237,4.2463,4.2439,4.2607,4.2508,4.2488,4.2671,4.274,4.2596,4.2669,4.3047,4.3245,4.3422,4.3837,4.4728,4.5761,4.681,4.75,4.8026,4.848,4.8766,4.9176,5.0268,5.109,5.1397,5.1726,5.196,5.203,5.2308,5.2446,5.2515,5.2654,5.2861,5.2929,5.2998,5.3067,5.3136,5.3341,5.3589,5.3657,5.3861,5.42,5.4469,5.4913,5.5353,5.6536,5.7441,5.8016,5.8585,5.9177,5.9611,6.0075,6.0348,6.047,6.1015,6.1523,6.179,6.2144,6.2704,6.3473,2.121,2.1226,2.1226,2.1287,2.1368,2.1379,2.1379,2.1379,2.1379,2.1811,2.233,2.2665,2.3106,2.3795,2.4052,2.4395,2.4823,2.5336,2.5848,2.6358,2.6554,2.7097,2.7948,2.8718,2.9626,3.1,3.1461,3.1897,3.244,3.2911,3.3219,3.3528,3.404,3.4211,3.4349,3.491,3.5151,3.5237,3.5766,3.6104,3.6188,3.6778,3.7671,3.8261,3.9199,3.9746,3.9695,4.0269,4.0341,4.0344,4.0636,4.0956,4.1172,4.1385,4.1618,4.1773,4.185,4.1927,4.2059,4.2112,4.218,4.2333,4.2316,4.231,4.2344,4.2515,4.2665,4.289,4.3359,4.3965,4.5166,4.5858,4.65,4.6891,4.7134,4.7259,4.7552,4.891,5.0198,5.0435,5.0742,5.1165,5.1446,5.1656,5.1935,5.2005,5.2169,5.2308,5.2585,5.2654,5.2792,5.2929,5.3067,5.3204,5.3273,5.3478,5.3751,5.4022,5.4267,5.4511,5.5113,5.5881,5.6563,5.7248,5.798,5.8424,5.8836,5.9177,5.955,6.0165,6.0649,6.1128,6.1658,6.2328,6.3275,1.9043,1.9124,1.9152,1.9349,1.9585,1.9622,1.9631,1.9728,1.9728,2.024,2.0848,2.1022,2.1465,2.2071,2.2244,2.2589,2.3193,2.3966,2.4738,2.5421,2.5421,2.6093,2.686,2.7384,2.825,3.0252,3.0704,3.0945,3.1226,3.1582,3.1937,3.2012,3.2277,3.2793,3.3176,3.3601,3.3801,3.392,3.451,3.4854,3.4941,3.5714,3.6701,3.7537,3.8272,3.8594,3.8789,3.9348,3.9823,3.9553,3.9986,4.0201,4.033,4.0763,4.1094,4.1074,4.123,4.1483,4.1618,4.1753,4.181,4.2216,4.2196,4.2196,4.2156,4.2249,4.2402,4.2673,4.2958,4.3339,4.4428,4.4805,4.5181,4.5555,4.5704,4.5704,4.6055,4.731,4.8331,4.9078,4.9509,5.0033,5.0435,5.0789,5.1165,5.1446,5.1586,5.1751,5.2005,5.2377,5.2446,5.2654,5.2792,5.2998,5.3067,5.3136,5.341,5.3546,5.3725,5.3861,5.3997,5.4511,5.5313,5.6105,5.6758,5.7211,5.7661,5.798,5.8487,5.9177,5.981,6.0251,6.1046,6.1987,6.2875,1.7171,1.7222,1.7287,1.7552,1.7949,1.8087,1.8331,1.8689,1.8689,1.903,1.9466,1.9553,1.9815,2.025,2.0414,2.0848,2.1715,2.2503,2.3279,2.3795,2.3978,2.4506,2.5457,2.587,2.6704,2.7966,2.8949,2.9618,3.0169,3.0629,3.0884,3.1315,3.1404,3.1582,3.1848,3.21,3.244,3.269,3.3305,3.3671,3.3846,3.456,3.5344,3.6063,3.6843,3.7225,3.7451,3.8149,3.854,3.8265,3.8662,3.8883,3.9128,3.9883,4.0431,4.0685,4.0919,4.1094,4.125,4.1327,4.1327,4.1405,4.1483,4.1483,4.154,4.1695,4.1927,4.2082,4.239,4.2774,4.3233,4.3539,4.3635,4.3995,4.4319,4.4588,4.4815,4.5513,4.658,4.7461,4.8127,4.8812,4.9221,4.9652,4.9938,5.0293,5.0648,5.093,5.1211,5.1656,5.203,5.2213,5.2421,5.2698,5.2861,5.2929,5.3067,5.3067,5.3273,5.341,5.3452,5.3614,5.4132,5.498,5.5644,5.6105,5.6432,5.6758,5.7449,5.8273,5.8832,5.9392,6.0362,6.1244,6.1953,1.5761,1.5855,1.5942,1.616,1.6514,1.6681,1.6841,1.7024,1.7024,1.7279,1.763,1.7805,1.7981,1.8418,1.8759,1.937,2.0153,2.0848,2.1628,2.2157,2.2341,2.2967,2.3993,2.4317,2.502,2.5901,2.687,2.8101,2.9105,2.9375,2.981,3.0079,3.0245,3.0437,3.0884,3.1151,3.1404,3.1671,3.2129,3.2395,3.2498,3.3382,3.3983,3.4597,3.5296,3.5819,3.6086,3.6839,3.7149,3.6943,3.7309,3.7513,3.7872,3.8383,3.9235,3.9981,4.0372,4.0607,4.0763,4.0841,4.0919,4.1172,4.1172,4.1172,4.125,4.1405,4.1483,4.1638,4.185,4.2159,4.239,4.2584,4.2876,4.3233,4.3505,4.3685,4.3983,4.4509,4.5235,4.6042,4.6607,4.732,4.7918,4.8282,4.8644,4.915,4.9628,4.9985,5.0198,5.0789,5.1306,5.1726,5.2005,5.2283,5.2515,5.2585,5.2723,5.2792,5.2861,5.2998,5.3136,5.3204,5.3546,5.4064,5.4604,5.5072,5.5313,5.5644,5.6462,5.7266,5.789,5.8533,5.9583,6.0491,6.1198,1.4297,1.4433,1.4621,1.4772,1.5075,1.5177,1.544,1.5528,1.5616,1.5881,1.6225,1.6313,1.6577,1.6841,1.7367,1.7981,1.8681,1.9195,1.9979,2.0588,2.0848,2.148,2.2266,2.2804,2.3204,2.3993,2.4696,2.6095,2.7752,2.8294,2.8565,2.8912,2.9002,2.9362,2.999,3.0079,3.0437,3.0794,3.0973,3.1062,3.1507,3.204,3.2675,3.3014,3.391,3.4334,3.4566,3.5294,3.5625,3.5605,3.5842,3.6212,3.6374,3.6609,3.7587,3.8956,3.9509,3.9981,4.0275,4.0353,4.0529,4.0919,4.1016,4.1094,4.1172,4.125,4.1289,4.1347,4.162,4.1953,4.213,4.2226,4.2541,4.2819,4.2979,4.3138,4.3575,4.3972,4.4304,4.4857,4.5303,4.5944,4.6778,4.6891,4.7186,4.7699,4.8259,4.8621,4.8982,4.9771,5.0364,5.1,5.1446,5.1866,5.2099,5.2238,5.2446,5.2654,5.2723,5.2792,5.2861,5.2929,5.3273,5.3546,5.3589,5.4064,5.4241,5.4723,5.5482,5.6186,5.6864,5.7732,5.8806,5.9643,6.0281,1.2407,1.2451,1.2702,1.3079,1.3482,1.3731,1.4367,1.4992,1.4992,1.5352,1.5616,1.5704,1.5704,1.5969,1.6313,1.6657,1.7016,1.763,1.8322,1.8934,1.9195,1.965,2.0268,2.0702,2.1403,2.2201,2.2799,2.4328,2.6015,2.7105,2.7739,2.783,2.8204,2.8655,2.8835,2.8925,2.9015,2.9451,2.99,3.0437,3.1048,3.1404,3.1507,3.176,3.2203,3.2719,3.3101,3.3675,3.394,3.4054,3.4227,3.4554,3.4914,3.5075,3.5804,3.709,3.8383,3.9509,3.9745,3.9902,4.0059,4.0431,4.0588,4.0763,4.0996,4.1191,4.1308,4.1719,4.1797,4.1994,4.2209,4.2347,4.2445,4.2644,4.2922,4.3042,4.334,4.3679,4.396,4.4058,4.4601,4.5244,4.5919,4.5847,4.5779,4.6299,4.684,4.7326,4.7794,4.8595,4.9557,5.0222,5.0648,5.1,5.1446,5.1656,5.1935,5.2283,5.2446,5.2515,5.2654,5.2792,5.2861,5.3067,5.3136,5.3392,5.3972,5.4389,5.4696,5.5397,5.6301,5.7193,5.8075,5.8759,5.9392,1.0435,1.144,1.1618,1.1819,1.2079,1.2614,1.3046,1.3401,1.3666,1.3938,1.4115,1.4115,1.438,1.4903,1.5433,1.5785,1.6057,1.6401,1.6841,1.7271,1.7534,1.7893,1.8427,1.8964,1.9698,2.0349,2.1086,2.1859,2.3627,2.5183,2.6186,2.6458,2.7015,2.7558,2.7842,2.8023,2.8372,2.8732,2.9105,2.9465,2.999,3.0348,3.0616,3.0884,3.1315,3.1586,3.1754,3.2004,3.2271,3.2369,3.2541,3.2975,3.3508,3.3788,3.4278,3.5561,3.6207,3.733,3.8542,3.8956,3.9333,3.9745,3.9999,4.0311,4.0719,4.1071,4.1384,4.173,4.2008,4.2205,4.2322,4.2422,4.2598,4.2776,4.3133,4.3291,4.3431,4.3551,4.3793,4.3816,4.3939,4.4657,4.52,4.5236,4.5285,4.5638,4.6225,4.6658,4.7038,4.7416,4.8423,4.9413,4.97,5.0009,5.0506,5.0884,5.1211,5.1586,5.196,5.2099,5.2446,5.2585,5.2654,5.2792,5.2998,5.333,5.3782,5.4123,5.4482,5.5175,5.5879,5.677,5.764,5.7856,5.8556,0.829,0.9592,1.0189,1.0468,1.0575,1.1223,1.1538,1.1716,1.2165,1.252,1.2704,1.2964,1.3407,1.3843,1.4285,1.455,1.4999,1.5264,1.5521,1.5785,1.6137,1.6489,1.6952,1.7535,1.8084,1.8544,1.9196,2.001,2.1038,2.2422,2.38,2.4727,2.5468,2.6095,2.6731,2.6912,2.7093,2.7842,2.8204,2.8552,2.8912,2.9375,2.9734,3.0169,3.0588,3.0746,3.0706,3.0761,3.0895,3.1005,3.1022,3.1429,3.1994,3.2324,3.2886,3.3854,3.4425,3.5156,3.6529,3.7428,3.8225,3.8896,3.9561,4.0047,4.0353,4.0823,4.133,4.1771,4.1952,4.2233,4.2511,4.2628,4.302,4.3355,4.3676,4.3769,4.3926,4.4092,4.4214,4.4297,4.4324,4.4129,4.4583,4.4662,4.4854,4.508,4.5523,4.6039,4.6409,4.6655,4.7448,4.8557,4.8618,4.8908,4.946,4.9961,5.0364,5.0718,5.1165,5.1586,5.1866,5.2169,5.2377,5.2515,5.2798,5.3231,5.3715,5.3987,5.4379,5.5101,5.5802,5.6504,5.7107,5.7389,5.7939,0.5702,0.6073,0.7807,0.847,0.8644,0.9268,0.9754,1.011,1.0649,1.1366,1.1988,1.2609,1.2787,1.2964,1.3053,1.3141,1.323,1.402,1.4374,1.4727,1.5264,1.555,1.5935,1.6205,1.6674,1.7167,1.7728,1.8338,1.9006,1.9926,2.1315,2.2616,2.3536,2.4361,2.5001,2.5366,2.573,2.647,2.7015,2.7558,2.783,2.8281,2.8822,2.9182,2.9335,2.9588,3.0178,2.9964,2.9879,3.0085,2.9972,3.0081,3.0665,3.0915,3.1565,3.2211,3.2701,3.3375,3.436,3.5918,3.6947,3.7775,3.8711,3.9647,3.9832,4.064,4.1203,4.16,4.1859,4.2296,4.285,4.3363,4.3562,4.3826,4.4007,4.4246,4.4402,4.4648,4.4772,4.4785,4.4694,4.4508,4.4434,4.4696,4.4543,4.4742,4.4793,4.532,4.5757,4.6189,4.681,4.744,4.7432,4.7761,4.8373,4.8835,4.915,4.9652,5.008,5.0648,5.1071,5.1446,5.1993,5.2441,5.2729,5.3208,5.3668,5.4039,5.4511,5.511,5.5735,5.6631,5.7385,5.7964,5.8366,0.3833,0.3995,0.4949,0.5876,0.6773,0.7688,0.8145,0.8413,0.9045,0.9758,1.0466,1.1182,1.1543,1.1632,1.1899,1.2165,1.252,1.2787,1.3141,1.3439,1.3922,1.4242,1.4529,1.5139,1.5703,1.6199,1.6662,1.7055,1.7515,1.8075,1.8456,1.975,2.1315,2.2616,2.326,2.3903,2.4544,2.4921,2.556,2.6004,2.6561,2.7184,2.7817,2.8191,2.8655,2.8756,2.8995,2.8937,2.9009,2.9111,2.9074,2.9342,2.9579,2.99,3.0332,3.0959,3.1327,3.1849,3.2736,3.4425,3.5906,3.6945,3.7894,3.8705,3.893,3.9795,4.0566,4.1129,4.1714,4.219,4.2911,4.3376,4.3709,4.3955,4.4241,4.4461,4.471,4.4853,4.4939,4.4939,4.4954,4.485,4.4772,4.4797,4.4584,4.4337,4.4402,4.4579,4.515,4.5514,4.606,4.6517,4.655,4.673,4.7359,4.7676,4.7963,4.8496,4.9122,4.9769,5.0437,5.1247,5.1773,5.2201,5.2801,5.3431,5.3917,5.4259,5.4752,5.5443,5.6118,5.6845,5.7597,5.8378,5.8805,0.2296,0.242,0.2777,0.3696,0.5104,0.6097,0.6541,0.672,0.7349,0.806,0.8773,0.958,1.0026,1.0204,1.0382,1.0827,1.1198,1.1487,1.1861,1.2275,1.2795,1.3126,1.3575,1.4146,1.4659,1.5183,1.5473,1.5838,1.6306,1.6587,1.7055,1.7795,1.8913,2.0205,2.1685,2.2616,2.3168,2.3352,2.3811,2.4269,2.4818,2.573,2.6549,2.7093,2.7649,2.799,2.8079,2.8124,2.8186,2.8286,2.8386,2.8571,2.881,2.916,2.9453,2.9832,3.024,3.0751,3.1767,3.3302,3.4866,3.5792,3.6809,3.745,3.7942,3.8775,3.9805,4.0511,4.1214,4.1916,4.2449,4.2783,4.3266,4.3601,4.4087,4.4413,4.4654,4.4866,4.4895,4.4943,4.4942,4.4958,4.4927,4.4915,4.4699,4.4423,4.4335,4.4421,4.4644,4.4982,4.5171,4.555,4.5764,4.6001,4.6311,4.6864,4.7357,4.7925,4.8498,4.9167,4.9896,5.0644,5.1489,5.2163,5.2815,5.3593,5.4154,5.4398,5.5131,5.5845,5.6696,5.76,5.7951,5.8757,5.9009,0.1355,0.1456,0.1385,0.2287,0.3583,0.4664,0.502,0.5109,0.5649,0.6365,0.7256,0.8149,0.8599,0.8599,0.8599,0.8964,0.9527,0.9946,1.0439,1.1017,1.1657,1.2249,1.2679,1.3043,1.3517,1.3517,1.3977,1.4523,1.5181,1.5275,1.5744,1.6306,1.7048,1.8067,1.975,2.0677,2.114,2.1325,2.2156,2.2616,2.3076,2.4075,2.5001,2.5548,2.6458,2.6924,2.7115,2.7373,2.7444,2.7423,2.7578,2.7656,2.7728,2.8359,2.8819,2.9207,2.963,3.0054,3.0622,3.2594,3.3816,3.4625,3.5609,3.6415,3.677,3.7722,3.8959,3.9496,4.0001,4.0631,4.1246,4.197,4.2484,4.307,4.3556,4.3895,4.414,4.4667,4.4679,4.4816,4.4894,4.4953,4.4991,4.497,4.4752,4.4621,4.4482,4.441,4.4494,4.4541,4.4804,4.4841,4.5171,4.5242,4.5643,4.6223,4.6874,4.7357,4.7879,4.8456,4.9176,4.9956,5.0865,5.182,5.2546,5.3077,5.3911,5.4598,5.546,5.6427,5.76,5.8478,5.878,5.8981,5.9233,-0.0423,-0.0342,-0.0087,0.0438,0.1332,0.2595,0.3139,0.3318,0.4303,0.5109,0.5736,0.6454,0.6633,0.6633,0.6819,0.7107,0.7873,0.8069,0.8655,0.9565,1.0305,1.0801,1.1217,1.1751,1.2284,1.2682,1.2916,1.3116,1.3682,1.3964,1.4247,1.4717,1.5556,1.6587,1.7989,1.9099,1.9657,1.9843,2.0584,2.114,2.1325,2.2514,2.3433,2.3627,2.4818,2.5615,2.5834,2.6298,2.6572,2.6661,2.6828,2.6944,2.7042,2.7604,2.7971,2.8453,2.8845,2.965,3.0395,3.1697,3.2469,3.3471,3.4436,3.5272,3.578,3.6572,3.7595,3.8346,3.8808,3.9495,4.0309,4.08,4.1423,4.1888,4.2282,4.2836,4.3175,4.3993,4.4416,4.4486,4.4605,4.4831,4.4824,4.4856,4.477,4.4632,4.4544,4.4464,4.4474,4.4469,4.454,4.4501,4.4644,4.4682,4.4939,4.557,4.5938,4.6245,4.6837,4.7433,4.8231,4.9207,5.0079,5.1053,5.1826,5.2604,5.3497,5.4437,5.5868,5.7038,5.7891,5.87,5.9054,5.918,5.9357,-0.1774,-0.1703,-0.1383,-0.1048,-0.0528,0.0981,0.1795,0.2063,0.3049,0.3766,0.4124,0.4485,0.4753,0.4758,0.4956,0.5331,0.6283,0.6519,0.6911,0.7906,0.8633,0.9134,0.9637,1.0234,1.063,1.1222,1.16,1.1883,1.2161,1.2644,1.3116,1.3682,1.4247,1.5093,1.6306,1.7141,1.8168,1.8354,1.8913,1.9387,1.9935,2.077,2.1694,2.2248,2.3148,2.4102,2.4472,2.4968,2.5613,2.5814,2.6067,2.624,2.6363,2.6734,2.7207,2.7785,2.852,2.928,3.0119,3.0753,3.1578,3.2333,3.3368,3.3963,3.4592,3.5406,3.6251,3.6951,3.7569,3.8415,3.9217,3.9699,4.0041,4.0515,4.1075,4.1548,4.2293,4.3054,4.3506,4.365,4.4041,4.4272,4.4567,4.4731,4.4622,4.4616,4.4607,4.4555,4.4544,4.4405,4.4442,4.4489,4.4474,4.45,4.4664,4.4966,4.5144,4.5239,4.5911,4.6777,4.7545,4.8552,4.9373,5.019,5.0902,5.1739,5.3082,5.4271,5.5452,5.6556,5.7442,5.8306,5.9123,5.9428,5.9451,-0.2777,-0.2701,-0.2327,-0.2174,-0.1833,-0.0267,0.0718,0.1347,0.1883,0.2063,0.2152,0.269,0.2874,0.2969,0.3356,0.383,0.4306,0.4837,0.5333,0.6016,0.6907,0.7311,0.7795,0.8466,0.885,0.9134,0.9612,1.0181,1.055,1.1222,1.1889,1.2644,1.3211,1.3776,1.4523,1.5462,1.6393,1.6868,1.7523,1.7989,1.8549,1.9192,1.9935,2.0584,2.1592,2.232,2.2851,2.3614,2.4061,2.443,2.486,2.5062,2.5477,2.6185,2.6793,2.7521,2.8527,2.9132,2.9651,3.0172,3.0697,3.1455,3.2064,3.2526,3.3259,3.4282,3.5012,3.5715,3.6313,3.7164,3.7897,3.8273,3.8633,3.9214,3.9829,4.0517,4.117,4.1745,4.2116,4.2474,4.2922,4.3289,4.3683,4.3908,4.3923,4.4335,4.4352,4.4616,4.4577,4.4414,4.4414,4.4607,4.4557,4.4466,4.4676,4.4922,4.5188,4.5393,4.5881,4.661,4.7335,4.7976,4.8742,4.95,4.9941,5.0894,5.2474,5.3659,5.4695,5.5708,5.6725,5.7765,5.861,5.9305,5.9612,-0.4623,-0.4549,-0.4222,-0.3825,-0.3401,-0.2312,-0.1167,-0.018,0.009,0.0269,0.0628,0.1167,0.126,0.1361,0.1821,0.2299,0.2693,0.2998,0.3394,0.4168,0.4943,0.5332,0.5813,0.6476,0.6856,0.7236,0.7711,0.8379,0.8759,0.9517,1.0559,1.1311,1.1789,1.2356,1.3016,1.3676,1.4617,1.5556,1.6306,1.6774,1.7149,1.7795,1.8363,1.9099,1.9935,2.0677,2.1277,2.214,2.2614,2.2924,2.3561,2.3864,2.3953,2.4676,2.5487,2.7305,2.8024,2.8686,2.9295,2.9556,2.9963,3.0676,3.1115,3.1751,3.2552,3.3336,3.406,3.4689,3.5197,3.5906,3.6526,3.6933,3.7405,3.8101,3.8576,3.8958,3.9717,4.038,4.0757,4.1204,4.1652,4.2127,4.2526,4.2693,4.2874,4.3589,4.4044,4.4316,4.4576,4.4405,4.4562,4.4655,4.4629,4.4542,4.4848,4.5139,4.5449,4.574,4.6017,4.6371,4.6887,4.7544,4.8223,4.8832,4.9372,5.0586,5.211,5.307,5.3782,5.4835,5.5917,5.7019,5.8079,5.8771,5.9552,-0.644,-0.6401,-0.5853,-0.5325,-0.4672,-0.4192,-0.3409,-0.2602,-0.1884,-0.1346,-0.0897,-0.0538,-0.0361,-0.0091,0.0366,0.074,0.0938,0.1321,0.1707,0.2281,0.305,0.3432,0.3909,0.4478,0.4954,0.543,0.5908,0.6479,0.7049,0.8094,0.9233,0.9418,1.0086,1.0938,1.1505,1.1972,1.2727,1.3952,1.4993,1.5744,1.6213,1.6587,1.7055,1.7616,1.8447,1.9006,1.9555,2.0704,2.1197,2.1432,2.2081,2.2352,2.2563,2.3294,2.4522,2.6179,2.6967,2.7784,2.8563,2.9093,2.9601,3.0221,3.0432,3.1189,3.1988,3.2803,3.3364,3.39,3.4273,3.4593,3.5164,3.5628,3.6312,3.69,3.7191,3.7399,3.8156,3.8925,3.9324,3.9782,4.0219,4.0745,4.1026,4.1286,4.1705,4.2422,4.2838,4.3104,4.3681,4.4114,4.4425,4.4845,4.4737,4.4628,4.4973,4.5307,4.5399,4.5574,4.5792,4.6129,4.6562,4.6941,4.7423,4.8149,4.8937,5.0145,5.1191,5.1923,5.2653,5.3767,5.4842,5.5814,5.7008,5.8396,5.9243,-0.8144,-0.816,-0.7395,-0.668,-0.5999,-0.5918,-0.592,-0.5739,-0.4214,-0.3049,-0.2601,-0.2332,-0.2076,-0.1641,-0.1103,-0.0928,-0.0752,-0.0473,-0.0095,0.0572,0.1048,0.143,0.2002,0.2573,0.3145,0.3621,0.4194,0.4861,0.5527,0.6479,0.7334,0.7429,0.8375,0.9134,0.9802,1.0081,1.0838,1.2072,1.3293,1.414,1.4993,1.5563,1.6032,1.6587,1.7055,1.7523,1.8176,1.8879,1.967,1.9986,2.0428,2.0814,2.1461,2.202,2.3438,2.4675,2.56,2.6639,2.7605,2.8199,2.9014,2.9766,3.0392,3.0784,3.1503,3.2198,3.2788,3.3367,3.3754,3.4088,3.4661,3.4857,3.5335,3.5799,3.6123,3.6417,3.6809,3.7575,3.8113,3.8504,3.8923,3.9451,3.9842,4.0116,4.0527,4.1275,4.1652,4.1915,4.2479,4.3295,4.394,4.4546,4.4808,4.4741,4.5066,4.5277,4.5246,4.5405,4.5641,4.5891,4.6345,4.6481,4.6599,4.7476,4.8503,4.9028,4.987,5.0655,5.1636,5.2603,5.3552,5.4506,5.5796,5.7289,5.8688,-0.9467,-0.9505,-0.877,-0.8257,-0.7963,-0.7885,-0.7885,-0.7881,-0.7524,-0.6094,-0.4483,-0.3949,-0.3519,-0.31,-0.2671,-0.2511,-0.2444,-0.237,-0.2,-0.1525,-0.1048,-0.0477,0.0095,0.0858,0.1334,0.1716,0.2384,0.3242,0.4002,0.4859,0.5527,0.5908,0.6571,0.7236,0.7999,0.8375,0.9043,1.037,1.1122,1.2444,1.3582,1.4153,1.4623,1.5275,1.5838,1.6306,1.6962,1.7608,1.7965,1.8135,1.8981,1.9794,2.0675,2.1048,2.2189,2.3575,2.4165,2.5206,2.6353,2.7101,2.772,2.8629,2.931,3.0033,3.0799,3.1542,3.2252,3.2759,3.3327,3.3674,3.408,3.4248,3.4402,3.4855,3.521,3.5408,3.5607,3.6272,3.6849,3.7297,3.7757,3.8144,3.8556,3.8942,3.9463,3.9899,4.0347,4.0722,4.1298,4.1968,4.2874,4.3552,4.4574,4.4881,4.5116,4.528,4.529,4.5608,4.5926,4.6072,4.6111,4.6339,4.665,4.7213,4.7951,4.8442,4.8949,4.9625,5.0603,5.1501,5.2516,5.3342,5.4216,5.5655,5.7234,-1.0744,-1.0926,-1.048,-1.0097,-0.9913,-0.9847,-0.9758,-0.958,-0.958,-0.8595,-0.6895,-0.6007,-0.5228,-0.4737,-0.4326,-0.4277,-0.432,-0.4363,-0.3903,-0.3335,-0.2954,-0.2383,-0.1716,-0.0953,-0.0477,-0.0095,0.0858,0.1716,0.2478,0.2954,0.3432,0.4004,0.4668,0.543,0.6193,0.6574,0.7334,0.8853,0.9134,1.0181,1.1883,1.2644,1.3399,1.4146,1.4529,1.51,1.5744,1.64,1.6681,1.6999,1.7781,1.8395,1.919,1.9707,2.07,2.1854,2.2703,2.3571,2.4897,2.5666,2.6354,2.7356,2.8153,2.8796,2.99,3.0702,3.1698,3.2264,3.2775,3.3194,3.3606,3.386,3.386,3.41,3.4214,3.4413,3.4812,3.5394,3.5777,3.5975,3.6341,3.6495,3.6945,3.7236,3.779,3.8544,3.8942,3.9366,3.9906,4.0722,4.1568,4.2382,4.3307,4.4249,4.4662,4.4976,4.5346,4.5637,4.6055,4.6094,4.6191,4.6405,4.6813,4.7173,4.7554,4.7869,4.8399,4.9074,4.9617,5.0531,5.1417,5.2355,5.317,5.3922,5.5203,-1.1855,-1.2136,-1.1942,-1.1754,-1.161,-1.1543,-1.1366,-1.101,-1.101,-1.0471,-0.9576,-0.8413,-0.7297,-0.6453,-0.6241,-0.6308,-0.6369,-0.6418,-0.5882,-0.5239,-0.5051,-0.4383,-0.3618,-0.2854,-0.2185,-0.1522,-0.0667,-0.0095,0.0572,0.1048,0.162,0.2193,0.2954,0.3716,0.429,0.4766,0.5622,0.6669,0.7334,0.7816,0.9336,1.1147,1.2105,1.2767,1.3252,1.4014,1.4676,1.5147,1.5619,1.6234,1.681,1.7421,1.7935,1.8649,1.9369,2.0302,2.1192,2.2227,2.3462,2.4127,2.5222,2.6397,2.6887,2.7717,2.8811,2.976,3.0659,3.1365,3.1882,3.2598,3.2899,3.3314,3.3314,3.3414,3.3514,3.3614,3.4114,3.4513,3.4712,3.4911,3.511,3.5295,3.5578,3.5898,3.6398,3.7154,3.7628,3.7939,3.8482,3.9272,4.0116,4.0925,4.1717,4.2674,4.3772,4.4595,4.4956,4.5547,4.5821,4.5984,4.624,4.6523,4.6758,4.6856,4.717,4.7672,4.8146,4.8822,4.9362,4.9753,5.0588,5.1445,5.1778,5.2492,5.303,-1.2288,-1.2393,-1.2362,-1.2451,-1.2591,-1.2609,-1.252,-1.252,-1.2432,-1.2165,-1.1538,-1.1271,-1.0223,-0.809,-0.8174,-0.8167,-0.8254,-0.8338,-0.7851,-0.7138,-0.6951,-0.6286,-0.5508,-0.4627,-0.3581,-0.2834,-0.2277,-0.162,-0.1239,-0.0667,0.0095,0.0954,0.1049,0.1811,0.267,0.3146,0.3718,0.4766,0.5344,0.573,0.7118,0.8853,1.0486,1.1382,1.2208,1.2915,1.3517,1.4,1.4578,1.5169,1.5959,1.6645,1.7157,1.7659,1.8265,1.8948,1.9833,2.0719,2.1756,2.2544,2.3731,2.4687,2.5277,2.6003,2.6918,2.7736,2.8642,2.9456,3.0177,3.1504,3.2008,3.2511,3.2712,3.2912,3.3013,3.3213,3.3614,3.3714,3.3914,3.4114,3.4413,3.4698,3.4983,3.5281,3.5479,3.6097,3.6589,3.6915,3.7206,3.7917,3.8814,3.9463,4.0176,4.1618,4.2952,4.3924,4.4506,4.5088,4.5611,4.5909,4.6178,4.6678,4.6767,4.6753,4.7196,4.7629,4.8213,4.861,4.9069,4.958,5.0085,5.059,5.0793,5.1066,5.168]}]]